<?xml version="1.0" encoding="UTF-8" standalone="no" ?>
<gpx xmlns="http://www.topografix.com/GPX/1/1" xmlns:xsi="http://www.w3.org/2001/XMLSchema-instance" xsi:schemaLocation="http://www.topografix.com/GPX/1/1 http://www.topografix.com/GPX/1/1/gpx.xsd" version="1.1" creator="VisuGPX - https://www.visugpx.com">
  <metadata>
    <name>Les Monges AHP</name>
    <desc><![CDATA[Le massif des Monges, un espace immense entre Digne et Sisteron, entre Provence et Alpes. Point culminant, les Monges 2115 m]]></desc>
  </metadata>
  <wpt lat="44.24855" lon="6.14732">
    <ele>1278</ele>
    <name><![CDATA[GMap 44.248550° N, 6.147323° E]]></name>
  </wpt>
  <wpt lat="44.24855" lon="6.14917">
    <ele>1317.3</ele>
    <name><![CDATA[GMap 44.248550° N, 6.149168° E]]></name>
  </wpt>
  <wpt lat="44.24926" lon="6.14453">
    <ele>1221.2</ele>
    <name><![CDATA[GMap 44.249257° N, 6.144533° E]]></name>
  </wpt>
  <wpt lat="44.24867" lon="6.14565">
    <ele>1243</ele>
    <name><![CDATA[GMap 44.248673° N, 6.145649° E]]></name>
  </wpt>
  <wpt lat="44.24886" lon="6.1505">
    <ele>1334</ele>
    <name><![CDATA[GMap 44.248857° N, 6.150498° E]]></name>
  </wpt>
  <wpt lat="44.24889" lon="6.15191">
    <ele>1352.7</ele>
    <name><![CDATA[GMap 44.248888° N, 6.151915° E]]></name>
  </wpt>
  <wpt lat="44.24916" lon="6.15337">
    <ele>1358.7</ele>
    <name><![CDATA[GMap 44.249165° N, 6.153374° E]]></name>
  </wpt>
  <trk>
    <name><![CDATA[13-MAI-12 14:39:10]]></name>
    <trkseg>
      <trkpt lat="44.24916" lon="6.15343">
        <ele>1324.35</ele>
        <time>2012-05-13T07:20:29Z</time>
      </trkpt>
      <trkpt lat="44.24916" lon="6.15344">
        <ele>1324.35</ele>
        <time>2012-05-13T07:20:30Z</time>
      </trkpt>
      <trkpt lat="44.24913" lon="6.15343">
        <ele>1324.83</ele>
        <time>2012-05-13T07:20:32Z</time>
      </trkpt>
      <trkpt lat="44.24913" lon="6.15338">
        <ele>1325.31</ele>
        <time>2012-05-13T07:20:49Z</time>
      </trkpt>
      <trkpt lat="44.24916" lon="6.15338">
        <ele>1325.31</ele>
        <time>2012-05-13T07:20:58Z</time>
      </trkpt>
      <trkpt lat="44.24916" lon="6.15336">
        <ele>1326.76</ele>
        <time>2012-05-13T07:21:21Z</time>
      </trkpt>
      <trkpt lat="44.24913" lon="6.15333">
        <ele>1328.2</ele>
        <time>2012-05-13T07:21:33Z</time>
      </trkpt>
      <trkpt lat="44.24915" lon="6.15334">
        <ele>1328.2</ele>
        <time>2012-05-13T07:21:49Z</time>
      </trkpt>
      <trkpt lat="44.24908" lon="6.15331">
        <ele>1329.16</ele>
        <time>2012-05-13T07:22:15Z</time>
      </trkpt>
      <trkpt lat="44.24908" lon="6.15331">
        <ele>1329.64</ele>
        <time>2012-05-13T07:22:40Z</time>
      </trkpt>
      <trkpt lat="44.24908" lon="6.15331">
        <ele>1329.64</ele>
        <time>2012-05-13T07:23:00Z</time>
      </trkpt>
      <trkpt lat="44.24908" lon="6.15331">
        <ele>1330.6</ele>
        <time>2012-05-13T07:23:20Z</time>
      </trkpt>
      <trkpt lat="44.24903" lon="6.15337">
        <ele>1332.04</ele>
        <time>2012-05-13T07:23:33Z</time>
      </trkpt>
      <trkpt lat="44.24883" lon="6.15347">
        <ele>1333.97</ele>
        <time>2012-05-13T07:23:48Z</time>
      </trkpt>
      <trkpt lat="44.24876" lon="6.15354">
        <ele>1335.89</ele>
        <time>2012-05-13T07:24:03Z</time>
      </trkpt>
      <trkpt lat="44.24867" lon="6.15356">
        <ele>1339.25</ele>
        <time>2012-05-13T07:24:19Z</time>
      </trkpt>
      <trkpt lat="44.24864" lon="6.15356">
        <ele>1342.14</ele>
        <time>2012-05-13T07:24:33Z</time>
      </trkpt>
      <trkpt lat="44.24859" lon="6.15354">
        <ele>1344.06</ele>
        <time>2012-05-13T07:24:49Z</time>
      </trkpt>
      <trkpt lat="44.24847" lon="6.15346">
        <ele>1346.46</ele>
        <time>2012-05-13T07:25:01Z</time>
      </trkpt>
      <trkpt lat="44.24839" lon="6.15344">
        <ele>1348.39</ele>
        <time>2012-05-13T07:25:15Z</time>
      </trkpt>
      <trkpt lat="44.24834" lon="6.1533">
        <ele>1350.79</ele>
        <time>2012-05-13T07:25:30Z</time>
      </trkpt>
      <trkpt lat="44.24832" lon="6.15324">
        <ele>1352.23</ele>
        <time>2012-05-13T07:25:39Z</time>
      </trkpt>
      <trkpt lat="44.24825" lon="6.15319">
        <ele>1354.63</ele>
        <time>2012-05-13T07:25:55Z</time>
      </trkpt>
      <trkpt lat="44.24819" lon="6.15305">
        <ele>1357.04</ele>
        <time>2012-05-13T07:26:09Z</time>
      </trkpt>
      <trkpt lat="44.24814" lon="6.153">
        <ele>1359.44</ele>
        <time>2012-05-13T07:26:23Z</time>
      </trkpt>
      <trkpt lat="44.24812" lon="6.15298">
        <ele>1360.88</ele>
        <time>2012-05-13T07:26:30Z</time>
      </trkpt>
      <trkpt lat="44.24805" lon="6.15292">
        <ele>1363.29</ele>
        <time>2012-05-13T07:26:46Z</time>
      </trkpt>
      <trkpt lat="44.24797" lon="6.15285">
        <ele>1366.17</ele>
        <time>2012-05-13T07:27:00Z</time>
      </trkpt>
      <trkpt lat="44.24791" lon="6.15275">
        <ele>1369.54</ele>
        <time>2012-05-13T07:27:15Z</time>
      </trkpt>
      <trkpt lat="44.24791" lon="6.15281">
        <ele>1372.9</ele>
        <time>2012-05-13T07:27:29Z</time>
      </trkpt>
      <trkpt lat="44.24788" lon="6.15282">
        <ele>1373.86</ele>
        <time>2012-05-13T07:27:43Z</time>
      </trkpt>
      <trkpt lat="44.24785" lon="6.15272">
        <ele>1376.75</ele>
        <time>2012-05-13T07:27:59Z</time>
      </trkpt>
      <trkpt lat="44.24785" lon="6.15271">
        <ele>1377.23</ele>
        <time>2012-05-13T07:28:01Z</time>
      </trkpt>
      <trkpt lat="44.24777" lon="6.15255">
        <ele>1379.63</ele>
        <time>2012-05-13T07:28:19Z</time>
      </trkpt>
      <trkpt lat="44.24772" lon="6.15246">
        <ele>1382.99</ele>
        <time>2012-05-13T07:28:34Z</time>
      </trkpt>
      <trkpt lat="44.2477" lon="6.15242">
        <ele>1385.88</ele>
        <time>2012-05-13T07:28:47Z</time>
      </trkpt>
      <trkpt lat="44.24766" lon="6.15234">
        <ele>1388.28</ele>
        <time>2012-05-13T07:29:01Z</time>
      </trkpt>
      <trkpt lat="44.24759" lon="6.15226">
        <ele>1390.68</ele>
        <time>2012-05-13T07:29:17Z</time>
      </trkpt>
      <trkpt lat="44.24756" lon="6.1522">
        <ele>1392.61</ele>
        <time>2012-05-13T07:29:24Z</time>
      </trkpt>
      <trkpt lat="44.24756" lon="6.15217">
        <ele>1392.61</ele>
        <time>2012-05-13T07:29:27Z</time>
      </trkpt>
      <trkpt lat="44.24752" lon="6.15204">
        <ele>1395.01</ele>
        <time>2012-05-13T07:29:40Z</time>
      </trkpt>
      <trkpt lat="44.24751" lon="6.15199">
        <ele>1395.97</ele>
        <time>2012-05-13T07:29:46Z</time>
      </trkpt>
      <trkpt lat="44.24748" lon="6.15194">
        <ele>1396.45</ele>
        <time>2012-05-13T07:29:50Z</time>
      </trkpt>
      <trkpt lat="44.24745" lon="6.15185">
        <ele>1399.82</ele>
        <time>2012-05-13T07:30:06Z</time>
      </trkpt>
      <trkpt lat="44.24742" lon="6.15182">
        <ele>1401.74</ele>
        <time>2012-05-13T07:30:13Z</time>
      </trkpt>
      <trkpt lat="44.24738" lon="6.15174">
        <ele>1403.18</ele>
        <time>2012-05-13T07:30:28Z</time>
      </trkpt>
      <trkpt lat="44.24734" lon="6.15167">
        <ele>1406.55</ele>
        <time>2012-05-13T07:30:42Z</time>
      </trkpt>
      <trkpt lat="44.24731" lon="6.15155">
        <ele>1409.91</ele>
        <time>2012-05-13T07:30:55Z</time>
      </trkpt>
      <trkpt lat="44.24728" lon="6.15147">
        <ele>1411.35</ele>
        <time>2012-05-13T07:31:07Z</time>
      </trkpt>
      <trkpt lat="44.24728" lon="6.15145">
        <ele>1411.83</ele>
        <time>2012-05-13T07:31:10Z</time>
      </trkpt>
      <trkpt lat="44.24728" lon="6.15139">
        <ele>1412.79</ele>
        <time>2012-05-13T07:31:14Z</time>
      </trkpt>
      <trkpt lat="44.24728" lon="6.15133">
        <ele>1412.79</ele>
        <time>2012-05-13T07:31:18Z</time>
      </trkpt>
      <trkpt lat="44.24727" lon="6.15127">
        <ele>1412.79</ele>
        <time>2012-05-13T07:31:22Z</time>
      </trkpt>
      <trkpt lat="44.24721" lon="6.15111">
        <ele>1414.72</ele>
        <time>2012-05-13T07:31:38Z</time>
      </trkpt>
      <trkpt lat="44.24719" lon="6.15111">
        <ele>1416.64</ele>
        <time>2012-05-13T07:31:53Z</time>
      </trkpt>
      <trkpt lat="44.2472" lon="6.15126">
        <ele>1419.52</ele>
        <time>2012-05-13T07:32:08Z</time>
      </trkpt>
      <trkpt lat="44.24714" lon="6.15122">
        <ele>1420.49</ele>
        <time>2012-05-13T07:32:16Z</time>
      </trkpt>
      <trkpt lat="44.24712" lon="6.15114">
        <ele>1420.49</ele>
        <time>2012-05-13T07:32:22Z</time>
      </trkpt>
      <trkpt lat="44.24708" lon="6.15106">
        <ele>1421.45</ele>
        <time>2012-05-13T07:32:32Z</time>
      </trkpt>
      <trkpt lat="44.247" lon="6.15094">
        <ele>1423.37</ele>
        <time>2012-05-13T07:32:50Z</time>
      </trkpt>
      <trkpt lat="44.24696" lon="6.15092">
        <ele>1426.73</ele>
        <time>2012-05-13T07:32:58Z</time>
      </trkpt>
      <trkpt lat="44.24686" lon="6.1509">
        <ele>1429.14</ele>
        <time>2012-05-13T07:33:14Z</time>
      </trkpt>
      <trkpt lat="44.24677" lon="6.15082">
        <ele>1432.02</ele>
        <time>2012-05-13T07:33:29Z</time>
      </trkpt>
      <trkpt lat="44.24673" lon="6.15081">
        <ele>1434.42</ele>
        <time>2012-05-13T07:33:44Z</time>
      </trkpt>
      <trkpt lat="44.24664" lon="6.15082">
        <ele>1436.83</ele>
        <time>2012-05-13T07:33:59Z</time>
      </trkpt>
      <trkpt lat="44.24661" lon="6.15084">
        <ele>1439.71</ele>
        <time>2012-05-13T07:34:13Z</time>
      </trkpt>
      <trkpt lat="44.2465" lon="6.15083">
        <ele>1441.15</ele>
        <time>2012-05-13T07:34:28Z</time>
      </trkpt>
      <trkpt lat="44.24639" lon="6.15087">
        <ele>1443.56</ele>
        <time>2012-05-13T07:34:45Z</time>
      </trkpt>
      <trkpt lat="44.24631" lon="6.1509">
        <ele>1443.56</ele>
        <time>2012-05-13T07:34:54Z</time>
      </trkpt>
      <trkpt lat="44.24635" lon="6.15104">
        <ele>1444.04</ele>
        <time>2012-05-13T07:35:11Z</time>
      </trkpt>
      <trkpt lat="44.24639" lon="6.1511">
        <ele>1445.48</ele>
        <time>2012-05-13T07:35:23Z</time>
      </trkpt>
      <trkpt lat="44.24639" lon="6.1511">
        <ele>1445.96</ele>
        <time>2012-05-13T07:35:47Z</time>
      </trkpt>
      <trkpt lat="44.24638" lon="6.1511">
        <ele>1445.96</ele>
        <time>2012-05-13T07:36:14Z</time>
      </trkpt>
      <trkpt lat="44.24638" lon="6.1511">
        <ele>1446.44</ele>
        <time>2012-05-13T07:36:43Z</time>
      </trkpt>
      <trkpt lat="44.24638" lon="6.1511">
        <ele>1446.92</ele>
        <time>2012-05-13T07:37:10Z</time>
      </trkpt>
      <trkpt lat="44.24638" lon="6.1511">
        <ele>1446.92</ele>
        <time>2012-05-13T07:37:34Z</time>
      </trkpt>
      <trkpt lat="44.24639" lon="6.15112">
        <ele>1447.4</ele>
        <time>2012-05-13T07:38:04Z</time>
      </trkpt>
      <trkpt lat="44.24638" lon="6.15125">
        <ele>1447.88</ele>
        <time>2012-05-13T07:38:17Z</time>
      </trkpt>
      <trkpt lat="44.24637" lon="6.15141">
        <ele>1448.84</ele>
        <time>2012-05-13T07:38:34Z</time>
      </trkpt>
      <trkpt lat="44.24641" lon="6.1515">
        <ele>1451.25</ele>
        <time>2012-05-13T07:38:49Z</time>
      </trkpt>
      <trkpt lat="44.24648" lon="6.15161">
        <ele>1454.13</ele>
        <time>2012-05-13T07:39:06Z</time>
      </trkpt>
      <trkpt lat="44.2464" lon="6.15172">
        <ele>1455.09</ele>
        <time>2012-05-13T07:39:20Z</time>
      </trkpt>
      <trkpt lat="44.24647" lon="6.1518">
        <ele>1457.02</ele>
        <time>2012-05-13T07:39:36Z</time>
      </trkpt>
      <trkpt lat="44.24657" lon="6.15186">
        <ele>1458.46</ele>
        <time>2012-05-13T07:39:48Z</time>
      </trkpt>
      <trkpt lat="44.24661" lon="6.15205">
        <ele>1459.42</ele>
        <time>2012-05-13T07:40:06Z</time>
      </trkpt>
      <trkpt lat="44.24655" lon="6.15215">
        <ele>1462.3</ele>
        <time>2012-05-13T07:40:23Z</time>
      </trkpt>
      <trkpt lat="44.24653" lon="6.15224">
        <ele>1464.71</ele>
        <time>2012-05-13T07:40:38Z</time>
      </trkpt>
      <trkpt lat="44.24652" lon="6.15225">
        <ele>1465.67</ele>
        <time>2012-05-13T07:40:41Z</time>
      </trkpt>
      <trkpt lat="44.24646" lon="6.15238">
        <ele>1468.55</ele>
        <time>2012-05-13T07:41:00Z</time>
      </trkpt>
      <trkpt lat="44.24645" lon="6.15246">
        <ele>1471.92</ele>
        <time>2012-05-13T07:41:16Z</time>
      </trkpt>
      <trkpt lat="44.24646" lon="6.15256">
        <ele>1474.32</ele>
        <time>2012-05-13T07:41:32Z</time>
      </trkpt>
      <trkpt lat="44.24645" lon="6.15265">
        <ele>1476.24</ele>
        <time>2012-05-13T07:41:46Z</time>
      </trkpt>
      <trkpt lat="44.24646" lon="6.15274">
        <ele>1478.65</ele>
        <time>2012-05-13T07:42:02Z</time>
      </trkpt>
      <trkpt lat="44.24647" lon="6.15282">
        <ele>1481.53</ele>
        <time>2012-05-13T07:42:16Z</time>
      </trkpt>
      <trkpt lat="44.24648" lon="6.15292">
        <ele>1484.41</ele>
        <time>2012-05-13T07:42:31Z</time>
      </trkpt>
      <trkpt lat="44.24652" lon="6.15296">
        <ele>1486.34</ele>
        <time>2012-05-13T07:42:44Z</time>
      </trkpt>
      <trkpt lat="44.24655" lon="6.15298">
        <ele>1488.74</ele>
        <time>2012-05-13T07:42:56Z</time>
      </trkpt>
      <trkpt lat="44.24658" lon="6.15303">
        <ele>1490.66</ele>
        <time>2012-05-13T07:43:10Z</time>
      </trkpt>
      <trkpt lat="44.24661" lon="6.1531">
        <ele>1492.58</ele>
        <time>2012-05-13T07:43:22Z</time>
      </trkpt>
      <trkpt lat="44.24666" lon="6.15317">
        <ele>1495.47</ele>
        <time>2012-05-13T07:43:36Z</time>
      </trkpt>
      <trkpt lat="44.24669" lon="6.15327">
        <ele>1498.35</ele>
        <time>2012-05-13T07:43:53Z</time>
      </trkpt>
      <trkpt lat="44.2467" lon="6.15331">
        <ele>1502.2</ele>
        <time>2012-05-13T07:43:57Z</time>
      </trkpt>
      <trkpt lat="44.2467" lon="6.15332">
        <ele>1494.99</ele>
        <time>2012-05-13T07:43:58Z</time>
      </trkpt>
      <trkpt lat="44.24669" lon="6.15332">
        <ele>1502.68</ele>
        <time>2012-05-13T07:43:59Z</time>
      </trkpt>
      <trkpt lat="44.24669" lon="6.15337">
        <ele>1497.39</ele>
        <time>2012-05-13T07:44:04Z</time>
      </trkpt>
      <trkpt lat="44.24669" lon="6.15338">
        <ele>1501.72</ele>
        <time>2012-05-13T07:44:05Z</time>
      </trkpt>
      <trkpt lat="44.24669" lon="6.15342">
        <ele>1502.68</ele>
        <time>2012-05-13T07:44:12Z</time>
      </trkpt>
      <trkpt lat="44.24669" lon="6.15346">
        <ele>1504.6</ele>
        <time>2012-05-13T07:44:20Z</time>
      </trkpt>
      <trkpt lat="44.24671" lon="6.15352">
        <ele>1506.52</ele>
        <time>2012-05-13T07:44:34Z</time>
      </trkpt>
      <trkpt lat="44.24672" lon="6.15356">
        <ele>1507.97</ele>
        <time>2012-05-13T07:44:44Z</time>
      </trkpt>
      <trkpt lat="44.24674" lon="6.15363">
        <ele>1509.89</ele>
        <time>2012-05-13T07:44:57Z</time>
      </trkpt>
      <trkpt lat="44.24675" lon="6.15377">
        <ele>1512.77</ele>
        <time>2012-05-13T07:45:12Z</time>
      </trkpt>
      <trkpt lat="44.24675" lon="6.15378">
        <ele>1512.77</ele>
        <time>2012-05-13T07:45:13Z</time>
      </trkpt>
      <trkpt lat="44.24677" lon="6.15392">
        <ele>1513.25</ele>
        <time>2012-05-13T07:45:26Z</time>
      </trkpt>
      <trkpt lat="44.24677" lon="6.15401">
        <ele>1514.69</ele>
        <time>2012-05-13T07:45:42Z</time>
      </trkpt>
      <trkpt lat="44.24677" lon="6.15401">
        <ele>1514.69</ele>
        <time>2012-05-13T07:46:02Z</time>
      </trkpt>
      <trkpt lat="44.24677" lon="6.15401">
        <ele>1515.18</ele>
        <time>2012-05-13T07:46:31Z</time>
      </trkpt>
      <trkpt lat="44.24677" lon="6.154">
        <ele>1515.66</ele>
        <time>2012-05-13T07:46:55Z</time>
      </trkpt>
      <trkpt lat="44.24677" lon="6.154">
        <ele>1515.66</ele>
        <time>2012-05-13T07:47:24Z</time>
      </trkpt>
      <trkpt lat="44.24677" lon="6.154">
        <ele>1516.14</ele>
        <time>2012-05-13T07:47:52Z</time>
      </trkpt>
      <trkpt lat="44.24677" lon="6.15401">
        <ele>1516.14</ele>
        <time>2012-05-13T07:48:16Z</time>
      </trkpt>
      <trkpt lat="44.24677" lon="6.15401">
        <ele>1516.14</ele>
        <time>2012-05-13T07:48:38Z</time>
      </trkpt>
      <trkpt lat="44.24677" lon="6.15401">
        <ele>1516.62</ele>
        <time>2012-05-13T07:49:12Z</time>
      </trkpt>
      <trkpt lat="44.24677" lon="6.15401">
        <ele>1517.1</ele>
        <time>2012-05-13T07:49:37Z</time>
      </trkpt>
      <trkpt lat="44.24678" lon="6.154">
        <ele>1517.1</ele>
        <time>2012-05-13T07:50:00Z</time>
      </trkpt>
      <trkpt lat="44.24678" lon="6.154">
        <ele>1517.58</ele>
        <time>2012-05-13T07:50:23Z</time>
      </trkpt>
      <trkpt lat="44.24678" lon="6.154">
        <ele>1517.1</ele>
        <time>2012-05-13T07:50:51Z</time>
      </trkpt>
      <trkpt lat="44.24678" lon="6.154">
        <ele>1517.1</ele>
        <time>2012-05-13T07:51:14Z</time>
      </trkpt>
      <trkpt lat="44.24679" lon="6.15403">
        <ele>1517.58</ele>
        <time>2012-05-13T07:51:29Z</time>
      </trkpt>
      <trkpt lat="44.24679" lon="6.15403">
        <ele>1517.58</ele>
        <time>2012-05-13T07:51:54Z</time>
      </trkpt>
      <trkpt lat="44.24679" lon="6.15402">
        <ele>1518.06</ele>
        <time>2012-05-13T07:52:20Z</time>
      </trkpt>
      <trkpt lat="44.24679" lon="6.15402">
        <ele>1518.06</ele>
        <time>2012-05-13T07:52:45Z</time>
      </trkpt>
      <trkpt lat="44.24679" lon="6.15401">
        <ele>1517.58</ele>
        <time>2012-05-13T07:53:07Z</time>
      </trkpt>
      <trkpt lat="44.24679" lon="6.15404">
        <ele>1518.06</ele>
        <time>2012-05-13T07:53:33Z</time>
      </trkpt>
      <trkpt lat="44.24679" lon="6.15405">
        <ele>1517.58</ele>
        <time>2012-05-13T07:53:50Z</time>
      </trkpt>
      <trkpt lat="44.24679" lon="6.15405">
        <ele>1518.54</ele>
        <time>2012-05-13T07:54:19Z</time>
      </trkpt>
      <trkpt lat="44.24679" lon="6.15405">
        <ele>1518.06</ele>
        <time>2012-05-13T07:54:44Z</time>
      </trkpt>
      <trkpt lat="44.24679" lon="6.15405">
        <ele>1519.02</ele>
        <time>2012-05-13T07:55:18Z</time>
      </trkpt>
      <trkpt lat="44.24679" lon="6.15404">
        <ele>1519.02</ele>
        <time>2012-05-13T07:55:43Z</time>
      </trkpt>
      <trkpt lat="44.24679" lon="6.15404">
        <ele>1519.02</ele>
        <time>2012-05-13T07:56:09Z</time>
      </trkpt>
      <trkpt lat="44.24679" lon="6.15405">
        <ele>1519.5</ele>
        <time>2012-05-13T07:56:44Z</time>
      </trkpt>
      <trkpt lat="44.24679" lon="6.15405">
        <ele>1519.5</ele>
        <time>2012-05-13T07:56:50Z</time>
      </trkpt>
      <trkpt lat="44.24682" lon="6.15413">
        <ele>1518.54</ele>
        <time>2012-05-13T07:56:56Z</time>
      </trkpt>
      <trkpt lat="44.24683" lon="6.15415">
        <ele>1518.06</ele>
        <time>2012-05-13T07:56:58Z</time>
      </trkpt>
      <trkpt lat="44.24683" lon="6.15421">
        <ele>1517.58</ele>
        <time>2012-05-13T07:57:02Z</time>
      </trkpt>
      <trkpt lat="44.24682" lon="6.15435">
        <ele>1516.62</ele>
        <time>2012-05-13T07:57:10Z</time>
      </trkpt>
      <trkpt lat="44.24688" lon="6.15457">
        <ele>1516.62</ele>
        <time>2012-05-13T07:57:26Z</time>
      </trkpt>
      <trkpt lat="44.2469" lon="6.15463">
        <ele>1516.62</ele>
        <time>2012-05-13T07:57:31Z</time>
      </trkpt>
      <trkpt lat="44.2469" lon="6.15471">
        <ele>1516.14</ele>
        <time>2012-05-13T07:57:36Z</time>
      </trkpt>
      <trkpt lat="44.24695" lon="6.1549">
        <ele>1515.18</ele>
        <time>2012-05-13T07:57:50Z</time>
      </trkpt>
      <trkpt lat="44.24697" lon="6.15509">
        <ele>1518.06</ele>
        <time>2012-05-13T07:58:06Z</time>
      </trkpt>
      <trkpt lat="44.24698" lon="6.15516">
        <ele>1519.98</ele>
        <time>2012-05-13T07:58:13Z</time>
      </trkpt>
      <trkpt lat="44.24698" lon="6.1552">
        <ele>1519.5</ele>
        <time>2012-05-13T07:58:17Z</time>
      </trkpt>
      <trkpt lat="44.24699" lon="6.15536">
        <ele>1521.42</ele>
        <time>2012-05-13T07:58:31Z</time>
      </trkpt>
      <trkpt lat="44.24699" lon="6.15552">
        <ele>1522.39</ele>
        <time>2012-05-13T07:58:46Z</time>
      </trkpt>
      <trkpt lat="44.24699" lon="6.15565">
        <ele>1521.9</ele>
        <time>2012-05-13T07:58:58Z</time>
      </trkpt>
      <trkpt lat="44.24701" lon="6.15572">
        <ele>1523.35</ele>
        <time>2012-05-13T07:59:05Z</time>
      </trkpt>
      <trkpt lat="44.24699" lon="6.15578">
        <ele>1522.87</ele>
        <time>2012-05-13T07:59:12Z</time>
      </trkpt>
      <trkpt lat="44.24691" lon="6.15581">
        <ele>1524.31</ele>
        <time>2012-05-13T07:59:20Z</time>
      </trkpt>
      <trkpt lat="44.24688" lon="6.15589">
        <ele>1523.83</ele>
        <time>2012-05-13T07:59:25Z</time>
      </trkpt>
      <trkpt lat="44.24678" lon="6.15601">
        <ele>1525.75</ele>
        <time>2012-05-13T07:59:41Z</time>
      </trkpt>
      <trkpt lat="44.24676" lon="6.15603">
        <ele>1526.23</ele>
        <time>2012-05-13T07:59:45Z</time>
      </trkpt>
      <trkpt lat="44.24673" lon="6.15628">
        <ele>1525.75</ele>
        <time>2012-05-13T08:00:03Z</time>
      </trkpt>
      <trkpt lat="44.24677" lon="6.15646">
        <ele>1526.71</ele>
        <time>2012-05-13T08:00:18Z</time>
      </trkpt>
      <trkpt lat="44.24678" lon="6.15663">
        <ele>1528.63</ele>
        <time>2012-05-13T08:00:33Z</time>
      </trkpt>
      <trkpt lat="44.24683" lon="6.15679">
        <ele>1531.04</ele>
        <time>2012-05-13T08:00:49Z</time>
      </trkpt>
      <trkpt lat="44.24684" lon="6.15679">
        <ele>1530.08</ele>
        <time>2012-05-13T08:00:51Z</time>
      </trkpt>
      <trkpt lat="44.24688" lon="6.15681">
        <ele>1531.04</ele>
        <time>2012-05-13T08:00:55Z</time>
      </trkpt>
      <trkpt lat="44.24691" lon="6.15701">
        <ele>1531.52</ele>
        <time>2012-05-13T08:01:10Z</time>
      </trkpt>
      <trkpt lat="44.24692" lon="6.15705">
        <ele>1531.04</ele>
        <time>2012-05-13T08:01:13Z</time>
      </trkpt>
      <trkpt lat="44.24696" lon="6.15722">
        <ele>1532.96</ele>
        <time>2012-05-13T08:01:27Z</time>
      </trkpt>
      <trkpt lat="44.24698" lon="6.15729">
        <ele>1533.44</ele>
        <time>2012-05-13T08:01:31Z</time>
      </trkpt>
      <trkpt lat="44.24697" lon="6.15733">
        <ele>1533.44</ele>
        <time>2012-05-13T08:01:34Z</time>
      </trkpt>
      <trkpt lat="44.247" lon="6.15751">
        <ele>1536.32</ele>
        <time>2012-05-13T08:01:50Z</time>
      </trkpt>
      <trkpt lat="44.24702" lon="6.15767">
        <ele>1539.69</ele>
        <time>2012-05-13T08:02:05Z</time>
      </trkpt>
      <trkpt lat="44.24704" lon="6.15782">
        <ele>1542.09</ele>
        <time>2012-05-13T08:02:20Z</time>
      </trkpt>
      <trkpt lat="44.24699" lon="6.15785">
        <ele>1543.53</ele>
        <time>2012-05-13T08:02:28Z</time>
      </trkpt>
      <trkpt lat="44.24693" lon="6.15799">
        <ele>1545.46</ele>
        <time>2012-05-13T08:02:44Z</time>
      </trkpt>
      <trkpt lat="44.24695" lon="6.15811">
        <ele>1547.38</ele>
        <time>2012-05-13T08:02:59Z</time>
      </trkpt>
      <trkpt lat="44.24698" lon="6.15817">
        <ele>1549.3</ele>
        <time>2012-05-13T08:03:11Z</time>
      </trkpt>
      <trkpt lat="44.24695" lon="6.15828">
        <ele>1551.22</ele>
        <time>2012-05-13T08:03:25Z</time>
      </trkpt>
      <trkpt lat="44.24695" lon="6.15832">
        <ele>1553.15</ele>
        <time>2012-05-13T08:03:34Z</time>
      </trkpt>
      <trkpt lat="44.24701" lon="6.15843">
        <ele>1555.55</ele>
        <time>2012-05-13T08:03:49Z</time>
      </trkpt>
      <trkpt lat="44.24699" lon="6.15855">
        <ele>1557.47</ele>
        <time>2012-05-13T08:04:04Z</time>
      </trkpt>
      <trkpt lat="44.24701" lon="6.15865">
        <ele>1558.43</ele>
        <time>2012-05-13T08:04:14Z</time>
      </trkpt>
      <trkpt lat="44.24699" lon="6.15878">
        <ele>1560.84</ele>
        <time>2012-05-13T08:04:31Z</time>
      </trkpt>
      <trkpt lat="44.24699" lon="6.15888">
        <ele>1564.2</ele>
        <time>2012-05-13T08:04:46Z</time>
      </trkpt>
      <trkpt lat="44.24698" lon="6.15898">
        <ele>1566.12</ele>
        <time>2012-05-13T08:05:00Z</time>
      </trkpt>
      <trkpt lat="44.24702" lon="6.15907">
        <ele>1568.05</ele>
        <time>2012-05-13T08:05:14Z</time>
      </trkpt>
      <trkpt lat="44.247" lon="6.15918">
        <ele>1570.93</ele>
        <time>2012-05-13T08:05:31Z</time>
      </trkpt>
      <trkpt lat="44.24699" lon="6.15929">
        <ele>1572.85</ele>
        <time>2012-05-13T08:05:46Z</time>
      </trkpt>
      <trkpt lat="44.24698" lon="6.15938">
        <ele>1576.22</ele>
        <time>2012-05-13T08:06:01Z</time>
      </trkpt>
      <trkpt lat="44.24698" lon="6.15946">
        <ele>1578.14</ele>
        <time>2012-05-13T08:06:16Z</time>
      </trkpt>
      <trkpt lat="44.24698" lon="6.15955">
        <ele>1580.06</ele>
        <time>2012-05-13T08:06:32Z</time>
      </trkpt>
      <trkpt lat="44.24694" lon="6.15961">
        <ele>1582.95</ele>
        <time>2012-05-13T08:06:47Z</time>
      </trkpt>
      <trkpt lat="44.24697" lon="6.1597">
        <ele>1584.87</ele>
        <time>2012-05-13T08:07:02Z</time>
      </trkpt>
      <trkpt lat="44.24698" lon="6.15973">
        <ele>1586.31</ele>
        <time>2012-05-13T08:07:05Z</time>
      </trkpt>
      <trkpt lat="44.24694" lon="6.15976">
        <ele>1589.2</ele>
        <time>2012-05-13T08:07:19Z</time>
      </trkpt>
      <trkpt lat="44.2469" lon="6.15983">
        <ele>1591.6</ele>
        <time>2012-05-13T08:07:35Z</time>
      </trkpt>
      <trkpt lat="44.2469" lon="6.15991">
        <ele>1593.52</ele>
        <time>2012-05-13T08:07:51Z</time>
      </trkpt>
      <trkpt lat="44.24688" lon="6.15996">
        <ele>1594.96</ele>
        <time>2012-05-13T08:07:57Z</time>
      </trkpt>
      <trkpt lat="44.24687" lon="6.16005">
        <ele>1596.89</ele>
        <time>2012-05-13T08:08:09Z</time>
      </trkpt>
      <trkpt lat="44.24685" lon="6.16018">
        <ele>1598.81</ele>
        <time>2012-05-13T08:08:24Z</time>
      </trkpt>
      <trkpt lat="44.24686" lon="6.16034">
        <ele>1599.77</ele>
        <time>2012-05-13T08:08:41Z</time>
      </trkpt>
      <trkpt lat="44.24684" lon="6.16051">
        <ele>1603.14</ele>
        <time>2012-05-13T08:08:56Z</time>
      </trkpt>
      <trkpt lat="44.24684" lon="6.16067">
        <ele>1603.14</ele>
        <time>2012-05-13T08:09:09Z</time>
      </trkpt>
      <trkpt lat="44.24685" lon="6.16082">
        <ele>1606.02</ele>
        <time>2012-05-13T08:09:24Z</time>
      </trkpt>
      <trkpt lat="44.24683" lon="6.16094">
        <ele>1607.94</ele>
        <time>2012-05-13T08:09:37Z</time>
      </trkpt>
      <trkpt lat="44.24684" lon="6.16108">
        <ele>1609.86</ele>
        <time>2012-05-13T08:09:51Z</time>
      </trkpt>
      <trkpt lat="44.24684" lon="6.16123">
        <ele>1611.79</ele>
        <time>2012-05-13T08:10:07Z</time>
      </trkpt>
      <trkpt lat="44.24682" lon="6.16139">
        <ele>1613.23</ele>
        <time>2012-05-13T08:10:22Z</time>
      </trkpt>
      <trkpt lat="44.24683" lon="6.16144">
        <ele>1611.31</ele>
        <time>2012-05-13T08:10:27Z</time>
      </trkpt>
      <trkpt lat="44.24682" lon="6.16148">
        <ele>1614.67</ele>
        <time>2012-05-13T08:10:30Z</time>
      </trkpt>
      <trkpt lat="44.24677" lon="6.16157">
        <ele>1616.11</ele>
        <time>2012-05-13T08:10:42Z</time>
      </trkpt>
      <trkpt lat="44.24677" lon="6.16172">
        <ele>1618.52</ele>
        <time>2012-05-13T08:10:56Z</time>
      </trkpt>
      <trkpt lat="44.24677" lon="6.1619">
        <ele>1621.88</ele>
        <time>2012-05-13T08:11:13Z</time>
      </trkpt>
      <trkpt lat="44.24677" lon="6.16199">
        <ele>1622.36</ele>
        <time>2012-05-13T08:11:22Z</time>
      </trkpt>
      <trkpt lat="44.24675" lon="6.16212">
        <ele>1625.73</ele>
        <time>2012-05-13T08:11:36Z</time>
      </trkpt>
      <trkpt lat="44.24673" lon="6.16226">
        <ele>1627.17</ele>
        <time>2012-05-13T08:11:51Z</time>
      </trkpt>
      <trkpt lat="44.24671" lon="6.16238">
        <ele>1629.09</ele>
        <time>2012-05-13T08:12:05Z</time>
      </trkpt>
      <trkpt lat="44.24669" lon="6.16254">
        <ele>1631.98</ele>
        <time>2012-05-13T08:12:22Z</time>
      </trkpt>
      <trkpt lat="44.24669" lon="6.16267">
        <ele>1633.42</ele>
        <time>2012-05-13T08:12:35Z</time>
      </trkpt>
      <trkpt lat="44.24669" lon="6.1628">
        <ele>1635.82</ele>
        <time>2012-05-13T08:12:49Z</time>
      </trkpt>
      <trkpt lat="44.24668" lon="6.16293">
        <ele>1637.26</ele>
        <time>2012-05-13T08:13:02Z</time>
      </trkpt>
      <trkpt lat="44.24669" lon="6.1631">
        <ele>1637.74</ele>
        <time>2012-05-13T08:13:17Z</time>
      </trkpt>
      <trkpt lat="44.24671" lon="6.16325">
        <ele>1640.15</ele>
        <time>2012-05-13T08:13:30Z</time>
      </trkpt>
      <trkpt lat="44.2467" lon="6.1634">
        <ele>1642.07</ele>
        <time>2012-05-13T08:13:45Z</time>
      </trkpt>
      <trkpt lat="44.2467" lon="6.1635">
        <ele>1643.51</ele>
        <time>2012-05-13T08:13:54Z</time>
      </trkpt>
      <trkpt lat="44.24669" lon="6.16367">
        <ele>1645.91</ele>
        <time>2012-05-13T08:14:09Z</time>
      </trkpt>
      <trkpt lat="44.2467" lon="6.1638">
        <ele>1646.88</ele>
        <time>2012-05-13T08:14:19Z</time>
      </trkpt>
      <trkpt lat="44.24671" lon="6.16384">
        <ele>1647.84</ele>
        <time>2012-05-13T08:14:22Z</time>
      </trkpt>
      <trkpt lat="44.24671" lon="6.16405">
        <ele>1649.28</ele>
        <time>2012-05-13T08:14:38Z</time>
      </trkpt>
      <trkpt lat="44.24673" lon="6.16424">
        <ele>1650.72</ele>
        <time>2012-05-13T08:14:53Z</time>
      </trkpt>
      <trkpt lat="44.24675" lon="6.16444">
        <ele>1651.68</ele>
        <time>2012-05-13T08:15:07Z</time>
      </trkpt>
      <trkpt lat="44.24677" lon="6.16461">
        <ele>1653.12</ele>
        <time>2012-05-13T08:15:21Z</time>
      </trkpt>
      <trkpt lat="44.24679" lon="6.16477">
        <ele>1656.97</ele>
        <time>2012-05-13T08:15:35Z</time>
      </trkpt>
      <trkpt lat="44.24681" lon="6.16483">
        <ele>1657.45</ele>
        <time>2012-05-13T08:15:41Z</time>
      </trkpt>
      <trkpt lat="44.24685" lon="6.16497">
        <ele>1658.41</ele>
        <time>2012-05-13T08:15:55Z</time>
      </trkpt>
      <trkpt lat="44.24691" lon="6.16514">
        <ele>1659.37</ele>
        <time>2012-05-13T08:16:10Z</time>
      </trkpt>
      <trkpt lat="44.24697" lon="6.16532">
        <ele>1662.26</ele>
        <time>2012-05-13T08:16:26Z</time>
      </trkpt>
      <trkpt lat="44.24704" lon="6.16554">
        <ele>1663.7</ele>
        <time>2012-05-13T08:16:43Z</time>
      </trkpt>
      <trkpt lat="44.24707" lon="6.16573">
        <ele>1665.14</ele>
        <time>2012-05-13T08:16:59Z</time>
      </trkpt>
      <trkpt lat="44.24711" lon="6.16587">
        <ele>1667.06</ele>
        <time>2012-05-13T08:17:11Z</time>
      </trkpt>
      <trkpt lat="44.24716" lon="6.16605">
        <ele>1669.95</ele>
        <time>2012-05-13T08:17:28Z</time>
      </trkpt>
      <trkpt lat="44.24719" lon="6.16619">
        <ele>1672.35</ele>
        <time>2012-05-13T08:17:44Z</time>
      </trkpt>
      <trkpt lat="44.2472" lon="6.16634">
        <ele>1674.75</ele>
        <time>2012-05-13T08:18:00Z</time>
      </trkpt>
      <trkpt lat="44.24722" lon="6.16652">
        <ele>1676.2</ele>
        <time>2012-05-13T08:18:16Z</time>
      </trkpt>
      <trkpt lat="44.24724" lon="6.16667">
        <ele>1678.12</ele>
        <time>2012-05-13T08:18:32Z</time>
      </trkpt>
      <trkpt lat="44.24727" lon="6.16678">
        <ele>1680.52</ele>
        <time>2012-05-13T08:18:46Z</time>
      </trkpt>
      <trkpt lat="44.2473" lon="6.16688">
        <ele>1683.41</ele>
        <time>2012-05-13T08:19:01Z</time>
      </trkpt>
      <trkpt lat="44.24733" lon="6.16698">
        <ele>1686.29</ele>
        <time>2012-05-13T08:19:17Z</time>
      </trkpt>
      <trkpt lat="44.24736" lon="6.16708">
        <ele>1688.69</ele>
        <time>2012-05-13T08:19:32Z</time>
      </trkpt>
      <trkpt lat="44.24739" lon="6.16714">
        <ele>1690.62</ele>
        <time>2012-05-13T08:19:49Z</time>
      </trkpt>
      <trkpt lat="44.24741" lon="6.16726">
        <ele>1693.02</ele>
        <time>2012-05-13T08:20:03Z</time>
      </trkpt>
      <trkpt lat="44.24743" lon="6.16739">
        <ele>1694.46</ele>
        <time>2012-05-13T08:20:19Z</time>
      </trkpt>
      <trkpt lat="44.24746" lon="6.16752">
        <ele>1696.86</ele>
        <time>2012-05-13T08:20:35Z</time>
      </trkpt>
      <trkpt lat="44.24748" lon="6.1676">
        <ele>1699.27</ele>
        <time>2012-05-13T08:20:49Z</time>
      </trkpt>
      <trkpt lat="44.24754" lon="6.16766">
        <ele>1701.19</ele>
        <time>2012-05-13T08:21:03Z</time>
      </trkpt>
      <trkpt lat="44.24753" lon="6.16768">
        <ele>1702.63</ele>
        <time>2012-05-13T08:21:06Z</time>
      </trkpt>
      <trkpt lat="44.24755" lon="6.1678">
        <ele>1704.55</ele>
        <time>2012-05-13T08:21:22Z</time>
      </trkpt>
      <trkpt lat="44.24758" lon="6.16788">
        <ele>1706.48</ele>
        <time>2012-05-13T08:21:35Z</time>
      </trkpt>
      <trkpt lat="44.2476" lon="6.16799">
        <ele>1709.84</ele>
        <time>2012-05-13T08:21:51Z</time>
      </trkpt>
      <trkpt lat="44.2476" lon="6.16808">
        <ele>1711.28</ele>
        <time>2012-05-13T08:22:05Z</time>
      </trkpt>
      <trkpt lat="44.24763" lon="6.16816">
        <ele>1713.21</ele>
        <time>2012-05-13T08:22:20Z</time>
      </trkpt>
      <trkpt lat="44.24766" lon="6.16825">
        <ele>1715.13</ele>
        <time>2012-05-13T08:22:33Z</time>
      </trkpt>
      <trkpt lat="44.24769" lon="6.16836">
        <ele>1717.05</ele>
        <time>2012-05-13T08:22:48Z</time>
      </trkpt>
      <trkpt lat="44.24772" lon="6.16844">
        <ele>1719.94</ele>
        <time>2012-05-13T08:23:04Z</time>
      </trkpt>
      <trkpt lat="44.24774" lon="6.16857">
        <ele>1721.86</ele>
        <time>2012-05-13T08:23:19Z</time>
      </trkpt>
      <trkpt lat="44.24778" lon="6.16871">
        <ele>1723.3</ele>
        <time>2012-05-13T08:23:36Z</time>
      </trkpt>
      <trkpt lat="44.24779" lon="6.16884">
        <ele>1725.7</ele>
        <time>2012-05-13T08:23:52Z</time>
      </trkpt>
      <trkpt lat="44.24781" lon="6.16901">
        <ele>1727.63</ele>
        <time>2012-05-13T08:24:08Z</time>
      </trkpt>
      <trkpt lat="44.24782" lon="6.16904">
        <ele>1728.59</ele>
        <time>2012-05-13T08:24:13Z</time>
      </trkpt>
      <trkpt lat="44.24785" lon="6.16919">
        <ele>1731.95</ele>
        <time>2012-05-13T08:24:29Z</time>
      </trkpt>
      <trkpt lat="44.24788" lon="6.16932">
        <ele>1733.39</ele>
        <time>2012-05-13T08:24:43Z</time>
      </trkpt>
      <trkpt lat="44.24789" lon="6.16946">
        <ele>1734.84</ele>
        <time>2012-05-13T08:24:58Z</time>
      </trkpt>
      <trkpt lat="44.24792" lon="6.16956">
        <ele>1737.24</ele>
        <time>2012-05-13T08:25:14Z</time>
      </trkpt>
      <trkpt lat="44.24791" lon="6.16964">
        <ele>1738.68</ele>
        <time>2012-05-13T08:25:30Z</time>
      </trkpt>
      <trkpt lat="44.24793" lon="6.16968">
        <ele>1738.68</ele>
        <time>2012-05-13T08:25:46Z</time>
      </trkpt>
      <trkpt lat="44.24794" lon="6.16971">
        <ele>1738.68</ele>
        <time>2012-05-13T08:25:50Z</time>
      </trkpt>
      <trkpt lat="44.24805" lon="6.16991">
        <ele>1739.16</ele>
        <time>2012-05-13T08:26:07Z</time>
      </trkpt>
      <trkpt lat="44.24815" lon="6.17003">
        <ele>1742.53</ele>
        <time>2012-05-13T08:26:19Z</time>
      </trkpt>
      <trkpt lat="44.24823" lon="6.17019">
        <ele>1745.89</ele>
        <time>2012-05-13T08:26:33Z</time>
      </trkpt>
      <trkpt lat="44.2483" lon="6.17039">
        <ele>1747.33</ele>
        <time>2012-05-13T08:26:49Z</time>
      </trkpt>
      <trkpt lat="44.24833" lon="6.17046">
        <ele>1749.74</ele>
        <time>2012-05-13T08:26:55Z</time>
      </trkpt>
      <trkpt lat="44.24834" lon="6.17065">
        <ele>1752.14</ele>
        <time>2012-05-13T08:27:10Z</time>
      </trkpt>
      <trkpt lat="44.24834" lon="6.17067">
        <ele>1752.14</ele>
        <time>2012-05-13T08:27:11Z</time>
      </trkpt>
      <trkpt lat="44.24837" lon="6.17088">
        <ele>1755.02</ele>
        <time>2012-05-13T08:27:27Z</time>
      </trkpt>
      <trkpt lat="44.24837" lon="6.17089">
        <ele>1755.02</ele>
        <time>2012-05-13T08:27:28Z</time>
      </trkpt>
      <trkpt lat="44.24838" lon="6.17109">
        <ele>1756.47</ele>
        <time>2012-05-13T08:27:43Z</time>
      </trkpt>
      <trkpt lat="44.24839" lon="6.17133">
        <ele>1756.47</ele>
        <time>2012-05-13T08:28:00Z</time>
      </trkpt>
      <trkpt lat="44.24841" lon="6.17145">
        <ele>1757.91</ele>
        <time>2012-05-13T08:28:13Z</time>
      </trkpt>
      <trkpt lat="44.24842" lon="6.17147">
        <ele>1755.02</ele>
        <time>2012-05-13T08:28:15Z</time>
      </trkpt>
      <trkpt lat="44.24842" lon="6.1715">
        <ele>1756.47</ele>
        <time>2012-05-13T08:28:17Z</time>
      </trkpt>
      <trkpt lat="44.24842" lon="6.17153">
        <ele>1755.5</ele>
        <time>2012-05-13T08:28:19Z</time>
      </trkpt>
      <trkpt lat="44.24843" lon="6.17178">
        <ele>1757.91</ele>
        <time>2012-05-13T08:28:36Z</time>
      </trkpt>
      <trkpt lat="44.24843" lon="6.1718">
        <ele>1758.39</ele>
        <time>2012-05-13T08:28:37Z</time>
      </trkpt>
      <trkpt lat="44.24844" lon="6.17184">
        <ele>1755.5</ele>
        <time>2012-05-13T08:28:40Z</time>
      </trkpt>
      <trkpt lat="44.24844" lon="6.17186">
        <ele>1755.5</ele>
        <time>2012-05-13T08:28:41Z</time>
      </trkpt>
      <trkpt lat="44.24845" lon="6.17192">
        <ele>1757.91</ele>
        <time>2012-05-13T08:28:45Z</time>
      </trkpt>
      <trkpt lat="44.24845" lon="6.17194">
        <ele>1759.35</ele>
        <time>2012-05-13T08:28:47Z</time>
      </trkpt>
      <trkpt lat="44.24846" lon="6.17198">
        <ele>1755.5</ele>
        <time>2012-05-13T08:28:50Z</time>
      </trkpt>
      <trkpt lat="44.24847" lon="6.17201">
        <ele>1758.87</ele>
        <time>2012-05-13T08:28:53Z</time>
      </trkpt>
      <trkpt lat="44.24847" lon="6.17203">
        <ele>1757.91</ele>
        <time>2012-05-13T08:28:54Z</time>
      </trkpt>
      <trkpt lat="44.24849" lon="6.17212">
        <ele>1758.39</ele>
        <time>2012-05-13T08:29:01Z</time>
      </trkpt>
      <trkpt lat="44.24849" lon="6.17214">
        <ele>1757.91</ele>
        <time>2012-05-13T08:29:02Z</time>
      </trkpt>
      <trkpt lat="44.2485" lon="6.17216">
        <ele>1756.95</ele>
        <time>2012-05-13T08:29:04Z</time>
      </trkpt>
      <trkpt lat="44.24851" lon="6.17219">
        <ele>1757.91</ele>
        <time>2012-05-13T08:29:06Z</time>
      </trkpt>
      <trkpt lat="44.24851" lon="6.17238">
        <ele>1756.95</ele>
        <time>2012-05-13T08:29:18Z</time>
      </trkpt>
      <trkpt lat="44.24853" lon="6.1725">
        <ele>1758.39</ele>
        <time>2012-05-13T08:29:27Z</time>
      </trkpt>
      <trkpt lat="44.24857" lon="6.17267">
        <ele>1759.83</ele>
        <time>2012-05-13T08:29:42Z</time>
      </trkpt>
      <trkpt lat="44.24857" lon="6.17276">
        <ele>1761.75</ele>
        <time>2012-05-13T08:29:51Z</time>
      </trkpt>
      <trkpt lat="44.24859" lon="6.17296">
        <ele>1761.75</ele>
        <time>2012-05-13T08:30:06Z</time>
      </trkpt>
      <trkpt lat="44.24863" lon="6.17308">
        <ele>1764.16</ele>
        <time>2012-05-13T08:30:21Z</time>
      </trkpt>
      <trkpt lat="44.24866" lon="6.17316">
        <ele>1766.08</ele>
        <time>2012-05-13T08:30:37Z</time>
      </trkpt>
      <trkpt lat="44.24867" lon="6.1732">
        <ele>1767.52</ele>
        <time>2012-05-13T08:30:42Z</time>
      </trkpt>
      <trkpt lat="44.24874" lon="6.1734">
        <ele>1768</ele>
        <time>2012-05-13T08:30:58Z</time>
      </trkpt>
      <trkpt lat="44.24874" lon="6.17347">
        <ele>1768.96</ele>
        <time>2012-05-13T08:31:08Z</time>
      </trkpt>
      <trkpt lat="44.24876" lon="6.1736">
        <ele>1770.41</ele>
        <time>2012-05-13T08:31:22Z</time>
      </trkpt>
      <trkpt lat="44.24878" lon="6.17365">
        <ele>1770.89</ele>
        <time>2012-05-13T08:31:26Z</time>
      </trkpt>
      <trkpt lat="44.24881" lon="6.17382">
        <ele>1772.33</ele>
        <time>2012-05-13T08:31:42Z</time>
      </trkpt>
      <trkpt lat="44.24883" lon="6.174">
        <ele>1773.29</ele>
        <time>2012-05-13T08:31:57Z</time>
      </trkpt>
      <trkpt lat="44.24886" lon="6.17411">
        <ele>1776.17</ele>
        <time>2012-05-13T08:32:10Z</time>
      </trkpt>
      <trkpt lat="44.2489" lon="6.17429">
        <ele>1777.61</ele>
        <time>2012-05-13T08:32:26Z</time>
      </trkpt>
      <trkpt lat="44.24892" lon="6.17444">
        <ele>1779.54</ele>
        <time>2012-05-13T08:32:40Z</time>
      </trkpt>
      <trkpt lat="44.24896" lon="6.1746">
        <ele>1780.02</ele>
        <time>2012-05-13T08:32:55Z</time>
      </trkpt>
      <trkpt lat="44.24899" lon="6.17475">
        <ele>1781.94</ele>
        <time>2012-05-13T08:33:08Z</time>
      </trkpt>
      <trkpt lat="44.24902" lon="6.17491">
        <ele>1782.42</ele>
        <time>2012-05-13T08:33:22Z</time>
      </trkpt>
      <trkpt lat="44.24906" lon="6.17512">
        <ele>1783.86</ele>
        <time>2012-05-13T08:33:39Z</time>
      </trkpt>
      <trkpt lat="44.24908" lon="6.1753">
        <ele>1785.79</ele>
        <time>2012-05-13T08:33:55Z</time>
      </trkpt>
      <trkpt lat="44.24911" lon="6.17549">
        <ele>1786.75</ele>
        <time>2012-05-13T08:34:11Z</time>
      </trkpt>
      <trkpt lat="44.24915" lon="6.17565">
        <ele>1788.67</ele>
        <time>2012-05-13T08:34:26Z</time>
      </trkpt>
      <trkpt lat="44.24915" lon="6.17584">
        <ele>1789.63</ele>
        <time>2012-05-13T08:34:41Z</time>
      </trkpt>
      <trkpt lat="44.24915" lon="6.17585">
        <ele>1790.11</ele>
        <time>2012-05-13T08:34:42Z</time>
      </trkpt>
      <trkpt lat="44.24917" lon="6.17595">
        <ele>1791.55</ele>
        <time>2012-05-13T08:34:54Z</time>
      </trkpt>
      <trkpt lat="44.24918" lon="6.1761">
        <ele>1793.48</ele>
        <time>2012-05-13T08:35:09Z</time>
      </trkpt>
      <trkpt lat="44.24922" lon="6.17626">
        <ele>1796.36</ele>
        <time>2012-05-13T08:35:27Z</time>
      </trkpt>
      <trkpt lat="44.24926" lon="6.17631">
        <ele>1799.73</ele>
        <time>2012-05-13T08:35:39Z</time>
      </trkpt>
      <trkpt lat="44.24933" lon="6.17632">
        <ele>1800.21</ele>
        <time>2012-05-13T08:35:47Z</time>
      </trkpt>
      <trkpt lat="44.2494" lon="6.17642">
        <ele>1801.65</ele>
        <time>2012-05-13T08:36:03Z</time>
      </trkpt>
      <trkpt lat="44.24943" lon="6.17655">
        <ele>1805.01</ele>
        <time>2012-05-13T08:36:19Z</time>
      </trkpt>
      <trkpt lat="44.24944" lon="6.17656">
        <ele>1806.45</ele>
        <time>2012-05-13T08:36:22Z</time>
      </trkpt>
      <trkpt lat="44.24957" lon="6.17661">
        <ele>1806.94</ele>
        <time>2012-05-13T08:36:38Z</time>
      </trkpt>
      <trkpt lat="44.24969" lon="6.17667">
        <ele>1808.38</ele>
        <time>2012-05-13T08:36:53Z</time>
      </trkpt>
      <trkpt lat="44.24973" lon="6.17682">
        <ele>1810.78</ele>
        <time>2012-05-13T08:37:09Z</time>
      </trkpt>
      <trkpt lat="44.24972" lon="6.17697">
        <ele>1812.7</ele>
        <time>2012-05-13T08:37:23Z</time>
      </trkpt>
      <trkpt lat="44.24972" lon="6.177">
        <ele>1813.66</ele>
        <time>2012-05-13T08:37:27Z</time>
      </trkpt>
      <trkpt lat="44.24973" lon="6.17716">
        <ele>1816.55</ele>
        <time>2012-05-13T08:37:45Z</time>
      </trkpt>
      <trkpt lat="44.24973" lon="6.1773">
        <ele>1818.95</ele>
        <time>2012-05-13T08:37:59Z</time>
      </trkpt>
      <trkpt lat="44.24972" lon="6.17746">
        <ele>1821.84</ele>
        <time>2012-05-13T08:38:17Z</time>
      </trkpt>
      <trkpt lat="44.2497" lon="6.17755">
        <ele>1823.76</ele>
        <time>2012-05-13T08:38:30Z</time>
      </trkpt>
      <trkpt lat="44.2497" lon="6.17769">
        <ele>1824.72</ele>
        <time>2012-05-13T08:38:44Z</time>
      </trkpt>
      <trkpt lat="44.24972" lon="6.17774">
        <ele>1826.64</ele>
        <time>2012-05-13T08:38:50Z</time>
      </trkpt>
      <trkpt lat="44.24974" lon="6.17789">
        <ele>1827.12</ele>
        <time>2012-05-13T08:39:04Z</time>
      </trkpt>
      <trkpt lat="44.24978" lon="6.17799">
        <ele>1828.08</ele>
        <time>2012-05-13T08:39:14Z</time>
      </trkpt>
      <trkpt lat="44.24981" lon="6.17815">
        <ele>1829.53</ele>
        <time>2012-05-13T08:39:29Z</time>
      </trkpt>
      <trkpt lat="44.24984" lon="6.17831">
        <ele>1831.93</ele>
        <time>2012-05-13T08:39:43Z</time>
      </trkpt>
      <trkpt lat="44.24989" lon="6.17852">
        <ele>1830.97</ele>
        <time>2012-05-13T08:39:59Z</time>
      </trkpt>
      <trkpt lat="44.24991" lon="6.17871">
        <ele>1831.93</ele>
        <time>2012-05-13T08:40:14Z</time>
      </trkpt>
      <trkpt lat="44.24992" lon="6.17885">
        <ele>1833.37</ele>
        <time>2012-05-13T08:40:26Z</time>
      </trkpt>
      <trkpt lat="44.24993" lon="6.17886">
        <ele>1834.33</ele>
        <time>2012-05-13T08:40:27Z</time>
      </trkpt>
      <trkpt lat="44.24995" lon="6.1789">
        <ele>1832.89</ele>
        <time>2012-05-13T08:40:31Z</time>
      </trkpt>
      <trkpt lat="44.24997" lon="6.17898">
        <ele>1835.77</ele>
        <time>2012-05-13T08:40:45Z</time>
      </trkpt>
      <trkpt lat="44.24997" lon="6.17899">
        <ele>1835.77</ele>
        <time>2012-05-13T08:41:04Z</time>
      </trkpt>
      <trkpt lat="44.24998" lon="6.17899">
        <ele>1836.74</ele>
        <time>2012-05-13T08:41:32Z</time>
      </trkpt>
      <trkpt lat="44.24998" lon="6.17899">
        <ele>1837.22</ele>
        <time>2012-05-13T08:42:04Z</time>
      </trkpt>
      <trkpt lat="44.25" lon="6.179">
        <ele>1836.26</ele>
        <time>2012-05-13T08:42:23Z</time>
      </trkpt>
      <trkpt lat="44.25002" lon="6.17906">
        <ele>1836.26</ele>
        <time>2012-05-13T08:42:38Z</time>
      </trkpt>
      <trkpt lat="44.25008" lon="6.1792">
        <ele>1837.22</ele>
        <time>2012-05-13T08:42:50Z</time>
      </trkpt>
      <trkpt lat="44.2501" lon="6.17931">
        <ele>1838.18</ele>
        <time>2012-05-13T08:42:59Z</time>
      </trkpt>
      <trkpt lat="44.25013" lon="6.17939">
        <ele>1838.66</ele>
        <time>2012-05-13T08:43:14Z</time>
      </trkpt>
      <trkpt lat="44.25013" lon="6.17939">
        <ele>1839.62</ele>
        <time>2012-05-13T08:43:34Z</time>
      </trkpt>
      <trkpt lat="44.25015" lon="6.17953">
        <ele>1840.1</ele>
        <time>2012-05-13T08:43:52Z</time>
      </trkpt>
      <trkpt lat="44.2502" lon="6.17971">
        <ele>1841.06</ele>
        <time>2012-05-13T08:44:07Z</time>
      </trkpt>
      <trkpt lat="44.2502" lon="6.17973">
        <ele>1842.02</ele>
        <time>2012-05-13T08:44:09Z</time>
      </trkpt>
      <trkpt lat="44.25022" lon="6.17992">
        <ele>1842.5</ele>
        <time>2012-05-13T08:44:24Z</time>
      </trkpt>
      <trkpt lat="44.25027" lon="6.18008">
        <ele>1843.95</ele>
        <time>2012-05-13T08:44:37Z</time>
      </trkpt>
      <trkpt lat="44.25029" lon="6.1803">
        <ele>1844.43</ele>
        <time>2012-05-13T08:44:53Z</time>
      </trkpt>
      <trkpt lat="44.25029" lon="6.18034">
        <ele>1845.39</ele>
        <time>2012-05-13T08:44:56Z</time>
      </trkpt>
      <trkpt lat="44.25029" lon="6.18055">
        <ele>1846.35</ele>
        <time>2012-05-13T08:45:11Z</time>
      </trkpt>
      <trkpt lat="44.25026" lon="6.18068">
        <ele>1847.31</ele>
        <time>2012-05-13T08:45:24Z</time>
      </trkpt>
      <trkpt lat="44.2503" lon="6.18081">
        <ele>1849.71</ele>
        <time>2012-05-13T08:45:38Z</time>
      </trkpt>
      <trkpt lat="44.2503" lon="6.18082">
        <ele>1849.71</ele>
        <time>2012-05-13T08:45:44Z</time>
      </trkpt>
      <trkpt lat="44.25033" lon="6.18087">
        <ele>1850.19</ele>
        <time>2012-05-13T08:45:49Z</time>
      </trkpt>
      <trkpt lat="44.25037" lon="6.18102">
        <ele>1852.6</ele>
        <time>2012-05-13T08:46:04Z</time>
      </trkpt>
      <trkpt lat="44.25044" lon="6.18116">
        <ele>1854.52</ele>
        <time>2012-05-13T08:46:20Z</time>
      </trkpt>
      <trkpt lat="44.25048" lon="6.18127">
        <ele>1857.4</ele>
        <time>2012-05-13T08:46:34Z</time>
      </trkpt>
      <trkpt lat="44.2505" lon="6.18141">
        <ele>1859.81</ele>
        <time>2012-05-13T08:46:50Z</time>
      </trkpt>
      <trkpt lat="44.25054" lon="6.18159">
        <ele>1860.77</ele>
        <time>2012-05-13T08:47:05Z</time>
      </trkpt>
      <trkpt lat="44.25054" lon="6.18174">
        <ele>1861.25</ele>
        <time>2012-05-13T08:47:19Z</time>
      </trkpt>
      <trkpt lat="44.25053" lon="6.18179">
        <ele>1862.21</ele>
        <time>2012-05-13T08:47:34Z</time>
      </trkpt>
      <trkpt lat="44.25061" lon="6.18199">
        <ele>1861.25</ele>
        <time>2012-05-13T08:47:50Z</time>
      </trkpt>
      <trkpt lat="44.25069" lon="6.18216">
        <ele>1859.81</ele>
        <time>2012-05-13T08:48:04Z</time>
      </trkpt>
      <trkpt lat="44.25074" lon="6.18233">
        <ele>1858.37</ele>
        <time>2012-05-13T08:48:17Z</time>
      </trkpt>
      <trkpt lat="44.25077" lon="6.18256">
        <ele>1859.33</ele>
        <time>2012-05-13T08:48:35Z</time>
      </trkpt>
      <trkpt lat="44.25079" lon="6.18273">
        <ele>1861.25</ele>
        <time>2012-05-13T08:48:49Z</time>
      </trkpt>
      <trkpt lat="44.25083" lon="6.18288">
        <ele>1863.65</ele>
        <time>2012-05-13T08:49:03Z</time>
      </trkpt>
      <trkpt lat="44.25084" lon="6.18292">
        <ele>1863.65</ele>
        <time>2012-05-13T08:49:07Z</time>
      </trkpt>
      <trkpt lat="44.25087" lon="6.18307">
        <ele>1865.09</ele>
        <time>2012-05-13T08:49:20Z</time>
      </trkpt>
      <trkpt lat="44.2509" lon="6.18322">
        <ele>1866.06</ele>
        <time>2012-05-13T08:49:32Z</time>
      </trkpt>
      <trkpt lat="44.25095" lon="6.18335">
        <ele>1867.02</ele>
        <time>2012-05-13T08:49:45Z</time>
      </trkpt>
      <trkpt lat="44.25105" lon="6.18335">
        <ele>1868.94</ele>
        <time>2012-05-13T08:50:00Z</time>
      </trkpt>
      <trkpt lat="44.25108" lon="6.18341">
        <ele>1870.38</ele>
        <time>2012-05-13T08:50:13Z</time>
      </trkpt>
      <trkpt lat="44.25113" lon="6.18353">
        <ele>1873.75</ele>
        <time>2012-05-13T08:50:30Z</time>
      </trkpt>
      <trkpt lat="44.25118" lon="6.18362">
        <ele>1876.15</ele>
        <time>2012-05-13T08:50:44Z</time>
      </trkpt>
      <trkpt lat="44.25122" lon="6.18378">
        <ele>1877.11</ele>
        <time>2012-05-13T08:50:59Z</time>
      </trkpt>
      <trkpt lat="44.25124" lon="6.18383">
        <ele>1879.03</ele>
        <time>2012-05-13T08:51:04Z</time>
      </trkpt>
      <trkpt lat="44.25131" lon="6.184">
        <ele>1878.55</ele>
        <time>2012-05-13T08:51:19Z</time>
      </trkpt>
      <trkpt lat="44.2514" lon="6.18417">
        <ele>1880</ele>
        <time>2012-05-13T08:51:36Z</time>
      </trkpt>
      <trkpt lat="44.25148" lon="6.18422">
        <ele>1881.92</ele>
        <time>2012-05-13T08:51:49Z</time>
      </trkpt>
      <trkpt lat="44.25158" lon="6.1843">
        <ele>1884.32</ele>
        <time>2012-05-13T08:52:03Z</time>
      </trkpt>
      <trkpt lat="44.25166" lon="6.18438">
        <ele>1885.28</ele>
        <time>2012-05-13T08:52:16Z</time>
      </trkpt>
      <trkpt lat="44.25172" lon="6.18452">
        <ele>1887.69</ele>
        <time>2012-05-13T08:52:33Z</time>
      </trkpt>
      <trkpt lat="44.25181" lon="6.1846">
        <ele>1889.61</ele>
        <time>2012-05-13T08:52:48Z</time>
      </trkpt>
      <trkpt lat="44.25192" lon="6.18467">
        <ele>1891.05</ele>
        <time>2012-05-13T08:53:02Z</time>
      </trkpt>
      <trkpt lat="44.25198" lon="6.18467">
        <ele>1891.53</ele>
        <time>2012-05-13T08:53:10Z</time>
      </trkpt>
      <trkpt lat="44.25205" lon="6.18466">
        <ele>1892.49</ele>
        <time>2012-05-13T08:53:18Z</time>
      </trkpt>
      <trkpt lat="44.25217" lon="6.1847">
        <ele>1893.45</ele>
        <time>2012-05-13T08:53:31Z</time>
      </trkpt>
      <trkpt lat="44.25226" lon="6.18471">
        <ele>1895.86</ele>
        <time>2012-05-13T08:53:46Z</time>
      </trkpt>
      <trkpt lat="44.25233" lon="6.18473">
        <ele>1898.26</ele>
        <time>2012-05-13T08:54:00Z</time>
      </trkpt>
      <trkpt lat="44.25241" lon="6.18468">
        <ele>1900.18</ele>
        <time>2012-05-13T08:54:15Z</time>
      </trkpt>
      <trkpt lat="44.25248" lon="6.1847">
        <ele>1902.59</ele>
        <time>2012-05-13T08:54:29Z</time>
      </trkpt>
      <trkpt lat="44.25258" lon="6.18467">
        <ele>1904.51</ele>
        <time>2012-05-13T08:54:44Z</time>
      </trkpt>
      <trkpt lat="44.25267" lon="6.18473">
        <ele>1906.91</ele>
        <time>2012-05-13T08:54:59Z</time>
      </trkpt>
      <trkpt lat="44.25276" lon="6.18473">
        <ele>1908.35</ele>
        <time>2012-05-13T08:55:14Z</time>
      </trkpt>
      <trkpt lat="44.25287" lon="6.18477">
        <ele>1910.76</ele>
        <time>2012-05-13T08:55:29Z</time>
      </trkpt>
      <trkpt lat="44.25298" lon="6.18478">
        <ele>1912.68</ele>
        <time>2012-05-13T08:55:43Z</time>
      </trkpt>
      <trkpt lat="44.25307" lon="6.18473">
        <ele>1911.72</ele>
        <time>2012-05-13T08:55:53Z</time>
      </trkpt>
      <trkpt lat="44.25325" lon="6.18463">
        <ele>1910.76</ele>
        <time>2012-05-13T08:56:09Z</time>
      </trkpt>
      <trkpt lat="44.25328" lon="6.18464">
        <ele>1909.8</ele>
        <time>2012-05-13T08:56:11Z</time>
      </trkpt>
      <trkpt lat="44.25346" lon="6.18466">
        <ele>1908.83</ele>
        <time>2012-05-13T08:56:27Z</time>
      </trkpt>
      <trkpt lat="44.25363" lon="6.18468">
        <ele>1909.32</ele>
        <time>2012-05-13T08:56:42Z</time>
      </trkpt>
      <trkpt lat="44.25381" lon="6.18475">
        <ele>1908.83</ele>
        <time>2012-05-13T08:56:58Z</time>
      </trkpt>
      <trkpt lat="44.25389" lon="6.18478">
        <ele>1909.8</ele>
        <time>2012-05-13T08:57:06Z</time>
      </trkpt>
      <trkpt lat="44.25404" lon="6.18482">
        <ele>1910.76</ele>
        <time>2012-05-13T08:57:20Z</time>
      </trkpt>
      <trkpt lat="44.25418" lon="6.18483">
        <ele>1912.2</ele>
        <time>2012-05-13T08:57:34Z</time>
      </trkpt>
      <trkpt lat="44.25421" lon="6.18484">
        <ele>1912.68</ele>
        <time>2012-05-13T08:57:37Z</time>
      </trkpt>
      <trkpt lat="44.25433" lon="6.18484">
        <ele>1914.6</ele>
        <time>2012-05-13T08:57:50Z</time>
      </trkpt>
      <trkpt lat="44.25444" lon="6.18486">
        <ele>1917.01</ele>
        <time>2012-05-13T08:58:04Z</time>
      </trkpt>
      <trkpt lat="44.25453" lon="6.18482">
        <ele>1918.93</ele>
        <time>2012-05-13T08:58:17Z</time>
      </trkpt>
      <trkpt lat="44.25466" lon="6.18485">
        <ele>1920.37</ele>
        <time>2012-05-13T08:58:32Z</time>
      </trkpt>
      <trkpt lat="44.25478" lon="6.18494">
        <ele>1921.33</ele>
        <time>2012-05-13T08:58:48Z</time>
      </trkpt>
      <trkpt lat="44.25482" lon="6.18498">
        <ele>1922.77</ele>
        <time>2012-05-13T08:58:55Z</time>
      </trkpt>
      <trkpt lat="44.25491" lon="6.18504">
        <ele>1924.7</ele>
        <time>2012-05-13T08:59:09Z</time>
      </trkpt>
      <trkpt lat="44.25499" lon="6.18512">
        <ele>1927.1</ele>
        <time>2012-05-13T08:59:24Z</time>
      </trkpt>
      <trkpt lat="44.255" lon="6.18512">
        <ele>1928.06</ele>
        <time>2012-05-13T08:59:26Z</time>
      </trkpt>
      <trkpt lat="44.25508" lon="6.18517">
        <ele>1931.43</ele>
        <time>2012-05-13T08:59:40Z</time>
      </trkpt>
      <trkpt lat="44.25515" lon="6.18524">
        <ele>1932.39</ele>
        <time>2012-05-13T08:59:53Z</time>
      </trkpt>
      <trkpt lat="44.25517" lon="6.18528">
        <ele>1932.87</ele>
        <time>2012-05-13T08:59:57Z</time>
      </trkpt>
      <trkpt lat="44.25521" lon="6.18541">
        <ele>1934.31</ele>
        <time>2012-05-13T09:00:11Z</time>
      </trkpt>
      <trkpt lat="44.25524" lon="6.18555">
        <ele>1936.71</ele>
        <time>2012-05-13T09:00:25Z</time>
      </trkpt>
      <trkpt lat="44.25526" lon="6.18566">
        <ele>1939.6</ele>
        <time>2012-05-13T09:00:38Z</time>
      </trkpt>
      <trkpt lat="44.25533" lon="6.18576">
        <ele>1940.56</ele>
        <time>2012-05-13T09:00:54Z</time>
      </trkpt>
      <trkpt lat="44.25536" lon="6.18587">
        <ele>1943.44</ele>
        <time>2012-05-13T09:01:07Z</time>
      </trkpt>
      <trkpt lat="44.25541" lon="6.18597">
        <ele>1944.88</ele>
        <time>2012-05-13T09:01:22Z</time>
      </trkpt>
      <trkpt lat="44.25543" lon="6.18604">
        <ele>1947.77</ele>
        <time>2012-05-13T09:01:32Z</time>
      </trkpt>
      <trkpt lat="44.25547" lon="6.18614">
        <ele>1948.73</ele>
        <time>2012-05-13T09:01:47Z</time>
      </trkpt>
      <trkpt lat="44.25552" lon="6.18623">
        <ele>1950.17</ele>
        <time>2012-05-13T09:02:03Z</time>
      </trkpt>
      <trkpt lat="44.25552" lon="6.18623">
        <ele>1951.13</ele>
        <time>2012-05-13T09:02:05Z</time>
      </trkpt>
      <trkpt lat="44.25552" lon="6.18623">
        <ele>1954.02</ele>
        <time>2012-05-13T09:02:19Z</time>
      </trkpt>
      <trkpt lat="44.25555" lon="6.18631">
        <ele>1955.94</ele>
        <time>2012-05-13T09:02:35Z</time>
      </trkpt>
      <trkpt lat="44.25555" lon="6.18631">
        <ele>1955.94</ele>
        <time>2012-05-13T09:03:03Z</time>
      </trkpt>
      <trkpt lat="44.2556" lon="6.18635">
        <ele>1957.38</ele>
        <time>2012-05-13T09:03:27Z</time>
      </trkpt>
      <trkpt lat="44.25569" lon="6.18641">
        <ele>1959.3</ele>
        <time>2012-05-13T09:03:37Z</time>
      </trkpt>
      <trkpt lat="44.25576" lon="6.18651">
        <ele>1960.27</ele>
        <time>2012-05-13T09:03:51Z</time>
      </trkpt>
      <trkpt lat="44.25581" lon="6.18653">
        <ele>1964.11</ele>
        <time>2012-05-13T09:03:59Z</time>
      </trkpt>
      <trkpt lat="44.25585" lon="6.18653">
        <ele>1962.67</ele>
        <time>2012-05-13T09:04:05Z</time>
      </trkpt>
      <trkpt lat="44.25586" lon="6.18655">
        <ele>1964.59</ele>
        <time>2012-05-13T09:04:07Z</time>
      </trkpt>
      <trkpt lat="44.25589" lon="6.18659">
        <ele>1966.51</ele>
        <time>2012-05-13T09:04:26Z</time>
      </trkpt>
      <trkpt lat="44.25599" lon="6.18669">
        <ele>1966.03</ele>
        <time>2012-05-13T09:04:39Z</time>
      </trkpt>
      <trkpt lat="44.25601" lon="6.18671">
        <ele>1966.03</ele>
        <time>2012-05-13T09:04:42Z</time>
      </trkpt>
      <trkpt lat="44.25611" lon="6.18679">
        <ele>1968.92</ele>
        <time>2012-05-13T09:04:56Z</time>
      </trkpt>
      <trkpt lat="44.25613" lon="6.18681">
        <ele>1966.03</ele>
        <time>2012-05-13T09:04:59Z</time>
      </trkpt>
      <trkpt lat="44.25622" lon="6.18694">
        <ele>1965.55</ele>
        <time>2012-05-13T09:05:13Z</time>
      </trkpt>
      <trkpt lat="44.25626" lon="6.18696">
        <ele>1967.96</ele>
        <time>2012-05-13T09:05:17Z</time>
      </trkpt>
      <trkpt lat="44.25632" lon="6.18701">
        <ele>1967.48</ele>
        <time>2012-05-13T09:05:23Z</time>
      </trkpt>
      <trkpt lat="44.25637" lon="6.18709">
        <ele>1967.96</ele>
        <time>2012-05-13T09:05:30Z</time>
      </trkpt>
      <trkpt lat="44.25639" lon="6.18712">
        <ele>1967.48</ele>
        <time>2012-05-13T09:05:34Z</time>
      </trkpt>
      <trkpt lat="44.25645" lon="6.18717">
        <ele>1970.84</ele>
        <time>2012-05-13T09:05:42Z</time>
      </trkpt>
      <trkpt lat="44.2565" lon="6.1873">
        <ele>1972.76</ele>
        <time>2012-05-13T09:05:57Z</time>
      </trkpt>
      <trkpt lat="44.2565" lon="6.18731">
        <ele>1972.28</ele>
        <time>2012-05-13T09:05:58Z</time>
      </trkpt>
      <trkpt lat="44.25654" lon="6.1874">
        <ele>1976.13</ele>
        <time>2012-05-13T09:06:08Z</time>
      </trkpt>
      <trkpt lat="44.25658" lon="6.18747">
        <ele>1976.13</ele>
        <time>2012-05-13T09:06:15Z</time>
      </trkpt>
      <trkpt lat="44.25663" lon="6.1876">
        <ele>1975.17</ele>
        <time>2012-05-13T09:06:30Z</time>
      </trkpt>
      <trkpt lat="44.25671" lon="6.18766">
        <ele>1977.57</ele>
        <time>2012-05-13T09:06:42Z</time>
      </trkpt>
      <trkpt lat="44.25671" lon="6.18769">
        <ele>1979.97</ele>
        <time>2012-05-13T09:06:45Z</time>
      </trkpt>
      <trkpt lat="44.25676" lon="6.18781">
        <ele>1978.05</ele>
        <time>2012-05-13T09:07:00Z</time>
      </trkpt>
      <trkpt lat="44.25678" lon="6.18781">
        <ele>1979.49</ele>
        <time>2012-05-13T09:07:02Z</time>
      </trkpt>
      <trkpt lat="44.25679" lon="6.18786">
        <ele>1982.38</ele>
        <time>2012-05-13T09:07:07Z</time>
      </trkpt>
      <trkpt lat="44.25679" lon="6.18786">
        <ele>1982.38</ele>
        <time>2012-05-13T09:07:08Z</time>
      </trkpt>
      <trkpt lat="44.25681" lon="6.1879">
        <ele>1980.45</ele>
        <time>2012-05-13T09:07:12Z</time>
      </trkpt>
      <trkpt lat="44.25688" lon="6.18801">
        <ele>1983.34</ele>
        <time>2012-05-13T09:07:26Z</time>
      </trkpt>
      <trkpt lat="44.25694" lon="6.18815">
        <ele>1984.3</ele>
        <time>2012-05-13T09:07:40Z</time>
      </trkpt>
      <trkpt lat="44.25697" lon="6.1882">
        <ele>1982.86</ele>
        <time>2012-05-13T09:07:45Z</time>
      </trkpt>
      <trkpt lat="44.25702" lon="6.18832">
        <ele>1985.26</ele>
        <time>2012-05-13T09:07:59Z</time>
      </trkpt>
      <trkpt lat="44.2571" lon="6.18848">
        <ele>1986.22</ele>
        <time>2012-05-13T09:08:15Z</time>
      </trkpt>
      <trkpt lat="44.25718" lon="6.18859">
        <ele>1988.62</ele>
        <time>2012-05-13T09:08:29Z</time>
      </trkpt>
      <trkpt lat="44.25728" lon="6.1887">
        <ele>1989.59</ele>
        <time>2012-05-13T09:08:44Z</time>
      </trkpt>
      <trkpt lat="44.25734" lon="6.18877">
        <ele>1991.51</ele>
        <time>2012-05-13T09:08:54Z</time>
      </trkpt>
      <trkpt lat="44.25736" lon="6.18877">
        <ele>1993.91</ele>
        <time>2012-05-13T09:08:58Z</time>
      </trkpt>
      <trkpt lat="44.25744" lon="6.18884">
        <ele>1992.95</ele>
        <time>2012-05-13T09:09:12Z</time>
      </trkpt>
      <trkpt lat="44.25751" lon="6.18886">
        <ele>1993.91</ele>
        <time>2012-05-13T09:09:22Z</time>
      </trkpt>
      <trkpt lat="44.25761" lon="6.18894">
        <ele>1995.35</ele>
        <time>2012-05-13T09:09:35Z</time>
      </trkpt>
      <trkpt lat="44.2577" lon="6.18901">
        <ele>1996.32</ele>
        <time>2012-05-13T09:09:46Z</time>
      </trkpt>
      <trkpt lat="44.25783" lon="6.18911">
        <ele>1995.83</ele>
        <time>2012-05-13T09:10:02Z</time>
      </trkpt>
      <trkpt lat="44.25796" lon="6.18919">
        <ele>1996.8</ele>
        <time>2012-05-13T09:10:17Z</time>
      </trkpt>
      <trkpt lat="44.25807" lon="6.18929">
        <ele>1997.76</ele>
        <time>2012-05-13T09:10:31Z</time>
      </trkpt>
      <trkpt lat="44.25819" lon="6.18938">
        <ele>1997.28</ele>
        <time>2012-05-13T09:10:45Z</time>
      </trkpt>
      <trkpt lat="44.25832" lon="6.18948">
        <ele>1997.76</ele>
        <time>2012-05-13T09:11:00Z</time>
      </trkpt>
      <trkpt lat="44.25848" lon="6.1896">
        <ele>1996.32</ele>
        <time>2012-05-13T09:11:16Z</time>
      </trkpt>
      <trkpt lat="44.25861" lon="6.18972">
        <ele>1995.35</ele>
        <time>2012-05-13T09:11:32Z</time>
      </trkpt>
      <trkpt lat="44.25872" lon="6.18986">
        <ele>1996.32</ele>
        <time>2012-05-13T09:11:47Z</time>
      </trkpt>
      <trkpt lat="44.25879" lon="6.18991">
        <ele>1997.28</ele>
        <time>2012-05-13T09:11:56Z</time>
      </trkpt>
      <trkpt lat="44.25891" lon="6.18998">
        <ele>1998.24</ele>
        <time>2012-05-13T09:12:09Z</time>
      </trkpt>
      <trkpt lat="44.259" lon="6.19003">
        <ele>1999.2</ele>
        <time>2012-05-13T09:12:21Z</time>
      </trkpt>
      <trkpt lat="44.25904" lon="6.19009">
        <ele>2000.16</ele>
        <time>2012-05-13T09:12:36Z</time>
      </trkpt>
      <trkpt lat="44.25909" lon="6.19012">
        <ele>2001.6</ele>
        <time>2012-05-13T09:12:43Z</time>
      </trkpt>
      <trkpt lat="44.25911" lon="6.19012">
        <ele>2003.04</ele>
        <time>2012-05-13T09:12:58Z</time>
      </trkpt>
      <trkpt lat="44.25912" lon="6.19013">
        <ele>2001.6</ele>
        <time>2012-05-13T09:13:03Z</time>
      </trkpt>
      <trkpt lat="44.25914" lon="6.19017">
        <ele>2003.52</ele>
        <time>2012-05-13T09:13:10Z</time>
      </trkpt>
      <trkpt lat="44.25917" lon="6.19026">
        <ele>2005.45</ele>
        <time>2012-05-13T09:13:24Z</time>
      </trkpt>
      <trkpt lat="44.25924" lon="6.19034">
        <ele>2006.41</ele>
        <time>2012-05-13T09:13:40Z</time>
      </trkpt>
      <trkpt lat="44.25925" lon="6.19036">
        <ele>2008.33</ele>
        <time>2012-05-13T09:13:43Z</time>
      </trkpt>
      <trkpt lat="44.25929" lon="6.19044">
        <ele>2010.73</ele>
        <time>2012-05-13T09:13:57Z</time>
      </trkpt>
      <trkpt lat="44.25935" lon="6.19052">
        <ele>2011.7</ele>
        <time>2012-05-13T09:14:12Z</time>
      </trkpt>
      <trkpt lat="44.25939" lon="6.19061">
        <ele>2014.58</ele>
        <time>2012-05-13T09:14:24Z</time>
      </trkpt>
      <trkpt lat="44.25947" lon="6.1907">
        <ele>2015.54</ele>
        <time>2012-05-13T09:14:39Z</time>
      </trkpt>
      <trkpt lat="44.25953" lon="6.19077">
        <ele>2016.98</ele>
        <time>2012-05-13T09:14:49Z</time>
      </trkpt>
      <trkpt lat="44.25954" lon="6.19078">
        <ele>2016.98</ele>
        <time>2012-05-13T09:14:50Z</time>
      </trkpt>
      <trkpt lat="44.25961" lon="6.19099">
        <ele>2018.43</ele>
        <time>2012-05-13T09:15:07Z</time>
      </trkpt>
      <trkpt lat="44.25969" lon="6.19113">
        <ele>2019.87</ele>
        <time>2012-05-13T09:15:22Z</time>
      </trkpt>
      <trkpt lat="44.25972" lon="6.19115">
        <ele>2020.35</ele>
        <time>2012-05-13T09:15:26Z</time>
      </trkpt>
      <trkpt lat="44.25981" lon="6.19121">
        <ele>2021.31</ele>
        <time>2012-05-13T09:15:40Z</time>
      </trkpt>
      <trkpt lat="44.2599" lon="6.1913">
        <ele>2024.19</ele>
        <time>2012-05-13T09:15:56Z</time>
      </trkpt>
      <trkpt lat="44.25994" lon="6.19144">
        <ele>2026.12</ele>
        <time>2012-05-13T09:16:11Z</time>
      </trkpt>
      <trkpt lat="44.26001" lon="6.19155">
        <ele>2027.08</ele>
        <time>2012-05-13T09:16:24Z</time>
      </trkpt>
      <trkpt lat="44.26008" lon="6.1917">
        <ele>2029.48</ele>
        <time>2012-05-13T09:16:41Z</time>
      </trkpt>
      <trkpt lat="44.26015" lon="6.19183">
        <ele>2030.92</ele>
        <time>2012-05-13T09:16:57Z</time>
      </trkpt>
      <trkpt lat="44.26025" lon="6.19188">
        <ele>2033.33</ele>
        <time>2012-05-13T09:17:13Z</time>
      </trkpt>
      <trkpt lat="44.26027" lon="6.19189">
        <ele>2033.81</ele>
        <time>2012-05-13T09:17:31Z</time>
      </trkpt>
      <trkpt lat="44.26032" lon="6.19192">
        <ele>2032.36</ele>
        <time>2012-05-13T09:17:36Z</time>
      </trkpt>
      <trkpt lat="44.26045" lon="6.19207">
        <ele>2032.84</ele>
        <time>2012-05-13T09:17:51Z</time>
      </trkpt>
      <trkpt lat="44.26047" lon="6.19209">
        <ele>2033.81</ele>
        <time>2012-05-13T09:17:53Z</time>
      </trkpt>
      <trkpt lat="44.26055" lon="6.19225">
        <ele>2034.29</ele>
        <time>2012-05-13T09:18:06Z</time>
      </trkpt>
      <trkpt lat="44.26056" lon="6.19226">
        <ele>2034.29</ele>
        <time>2012-05-13T09:18:07Z</time>
      </trkpt>
      <trkpt lat="44.26056" lon="6.19227">
        <ele>2034.29</ele>
        <time>2012-05-13T09:18:08Z</time>
      </trkpt>
      <trkpt lat="44.26059" lon="6.19239">
        <ele>2035.73</ele>
        <time>2012-05-13T09:18:19Z</time>
      </trkpt>
      <trkpt lat="44.26062" lon="6.19249">
        <ele>2036.21</ele>
        <time>2012-05-13T09:18:28Z</time>
      </trkpt>
      <trkpt lat="44.26073" lon="6.19266">
        <ele>2035.25</ele>
        <time>2012-05-13T09:18:44Z</time>
      </trkpt>
      <trkpt lat="44.26078" lon="6.19278">
        <ele>2035.25</ele>
        <time>2012-05-13T09:18:53Z</time>
      </trkpt>
      <trkpt lat="44.2609" lon="6.19289">
        <ele>2038.13</ele>
        <time>2012-05-13T09:19:09Z</time>
      </trkpt>
      <trkpt lat="44.26101" lon="6.19297">
        <ele>2039.09</ele>
        <time>2012-05-13T09:19:22Z</time>
      </trkpt>
      <trkpt lat="44.26103" lon="6.19299">
        <ele>2040.05</ele>
        <time>2012-05-13T09:19:25Z</time>
      </trkpt>
      <trkpt lat="44.26106" lon="6.193">
        <ele>2040.54</ele>
        <time>2012-05-13T09:19:42Z</time>
      </trkpt>
      <trkpt lat="44.26117" lon="6.19311">
        <ele>2041.5</ele>
        <time>2012-05-13T09:19:57Z</time>
      </trkpt>
      <trkpt lat="44.26127" lon="6.19321">
        <ele>2044.38</ele>
        <time>2012-05-13T09:20:12Z</time>
      </trkpt>
      <trkpt lat="44.26135" lon="6.19331">
        <ele>2046.78</ele>
        <time>2012-05-13T09:20:27Z</time>
      </trkpt>
      <trkpt lat="44.26137" lon="6.19344">
        <ele>2048.71</ele>
        <time>2012-05-13T09:20:40Z</time>
      </trkpt>
      <trkpt lat="44.26144" lon="6.19349">
        <ele>2049.67</ele>
        <time>2012-05-13T09:20:54Z</time>
      </trkpt>
      <trkpt lat="44.26153" lon="6.19349">
        <ele>2052.07</ele>
        <time>2012-05-13T09:21:07Z</time>
      </trkpt>
      <trkpt lat="44.26159" lon="6.19358">
        <ele>2055.44</ele>
        <time>2012-05-13T09:21:22Z</time>
      </trkpt>
      <trkpt lat="44.26162" lon="6.19364">
        <ele>2056.4</ele>
        <time>2012-05-13T09:21:30Z</time>
      </trkpt>
      <trkpt lat="44.26163" lon="6.1937">
        <ele>2058.32</ele>
        <time>2012-05-13T09:21:40Z</time>
      </trkpt>
      <trkpt lat="44.26167" lon="6.19382">
        <ele>2060.24</ele>
        <time>2012-05-13T09:21:56Z</time>
      </trkpt>
      <trkpt lat="44.26168" lon="6.19391">
        <ele>2061.68</ele>
        <time>2012-05-13T09:22:10Z</time>
      </trkpt>
      <trkpt lat="44.26169" lon="6.19401">
        <ele>2063.61</ele>
        <time>2012-05-13T09:22:25Z</time>
      </trkpt>
      <trkpt lat="44.2617" lon="6.1941">
        <ele>2066.01</ele>
        <time>2012-05-13T09:22:40Z</time>
      </trkpt>
      <trkpt lat="44.26172" lon="6.19419">
        <ele>2067.45</ele>
        <time>2012-05-13T09:22:56Z</time>
      </trkpt>
      <trkpt lat="44.26173" lon="6.19421">
        <ele>2069.38</ele>
        <time>2012-05-13T09:23:01Z</time>
      </trkpt>
      <trkpt lat="44.26175" lon="6.19423">
        <ele>2070.34</ele>
        <time>2012-05-13T09:23:14Z</time>
      </trkpt>
      <trkpt lat="44.26178" lon="6.19429">
        <ele>2072.26</ele>
        <time>2012-05-13T09:23:23Z</time>
      </trkpt>
      <trkpt lat="44.2618" lon="6.19434">
        <ele>2073.22</ele>
        <time>2012-05-13T09:23:35Z</time>
      </trkpt>
      <trkpt lat="44.26183" lon="6.19437">
        <ele>2076.1</ele>
        <time>2012-05-13T09:23:50Z</time>
      </trkpt>
      <trkpt lat="44.26188" lon="6.19443">
        <ele>2078.03</ele>
        <time>2012-05-13T09:24:04Z</time>
      </trkpt>
      <trkpt lat="44.26192" lon="6.1945">
        <ele>2080.91</ele>
        <time>2012-05-13T09:24:20Z</time>
      </trkpt>
      <trkpt lat="44.26196" lon="6.19455">
        <ele>2082.35</ele>
        <time>2012-05-13T09:24:36Z</time>
      </trkpt>
      <trkpt lat="44.26196" lon="6.19455">
        <ele>2084.28</ele>
        <time>2012-05-13T09:24:40Z</time>
      </trkpt>
      <trkpt lat="44.262" lon="6.19458">
        <ele>2085.24</ele>
        <time>2012-05-13T09:24:54Z</time>
      </trkpt>
      <trkpt lat="44.26204" lon="6.1946">
        <ele>2088.6</ele>
        <time>2012-05-13T09:25:07Z</time>
      </trkpt>
      <trkpt lat="44.26206" lon="6.19457">
        <ele>2090.52</ele>
        <time>2012-05-13T09:25:24Z</time>
      </trkpt>
      <trkpt lat="44.2621" lon="6.19457">
        <ele>2091.97</ele>
        <time>2012-05-13T09:25:36Z</time>
      </trkpt>
      <trkpt lat="44.26217" lon="6.19455">
        <ele>2094.37</ele>
        <time>2012-05-13T09:25:49Z</time>
      </trkpt>
      <trkpt lat="44.26223" lon="6.19447">
        <ele>2095.81</ele>
        <time>2012-05-13T09:26:04Z</time>
      </trkpt>
      <trkpt lat="44.2623" lon="6.19445">
        <ele>2098.7</ele>
        <time>2012-05-13T09:26:21Z</time>
      </trkpt>
      <trkpt lat="44.26238" lon="6.19441">
        <ele>2100.14</ele>
        <time>2012-05-13T09:26:38Z</time>
      </trkpt>
      <trkpt lat="44.2624" lon="6.19441">
        <ele>2101.58</ele>
        <time>2012-05-13T09:26:42Z</time>
      </trkpt>
      <trkpt lat="44.26248" lon="6.19438">
        <ele>2103.02</ele>
        <time>2012-05-13T09:26:58Z</time>
      </trkpt>
      <trkpt lat="44.26259" lon="6.19436">
        <ele>2105.91</ele>
        <time>2012-05-13T09:27:15Z</time>
      </trkpt>
      <trkpt lat="44.26268" lon="6.19434">
        <ele>2107.35</ele>
        <time>2012-05-13T09:27:30Z</time>
      </trkpt>
      <trkpt lat="44.26278" lon="6.19431">
        <ele>2108.31</ele>
        <time>2012-05-13T09:27:45Z</time>
      </trkpt>
      <trkpt lat="44.26281" lon="6.19425">
        <ele>2108.79</ele>
        <time>2012-05-13T09:28:01Z</time>
      </trkpt>
      <trkpt lat="44.26282" lon="6.19425">
        <ele>2108.79</ele>
        <time>2012-05-13T09:28:14Z</time>
      </trkpt>
      <trkpt lat="44.26281" lon="6.19423">
        <ele>2108.79</ele>
        <time>2012-05-13T09:28:31Z</time>
      </trkpt>
      <trkpt lat="44.26281" lon="6.19424">
        <ele>2109.27</ele>
        <time>2012-05-13T09:28:52Z</time>
      </trkpt>
      <trkpt lat="44.26281" lon="6.19425">
        <ele>2107.83</ele>
        <time>2012-05-13T09:29:01Z</time>
      </trkpt>
      <trkpt lat="44.26286" lon="6.19431">
        <ele>2107.35</ele>
        <time>2012-05-13T09:29:10Z</time>
      </trkpt>
      <trkpt lat="44.26298" lon="6.19435">
        <ele>2108.79</ele>
        <time>2012-05-13T09:29:25Z</time>
      </trkpt>
      <trkpt lat="44.26299" lon="6.19436">
        <ele>2108.31</ele>
        <time>2012-05-13T09:29:27Z</time>
      </trkpt>
      <trkpt lat="44.26312" lon="6.19435">
        <ele>2107.35</ele>
        <time>2012-05-13T09:29:43Z</time>
      </trkpt>
      <trkpt lat="44.2632" lon="6.19436">
        <ele>2107.35</ele>
        <time>2012-05-13T09:29:56Z</time>
      </trkpt>
      <trkpt lat="44.26329" lon="6.19438">
        <ele>2108.31</ele>
        <time>2012-05-13T09:30:10Z</time>
      </trkpt>
      <trkpt lat="44.26329" lon="6.19438">
        <ele>2106.87</ele>
        <time>2012-05-13T09:30:40Z</time>
      </trkpt>
      <trkpt lat="44.26329" lon="6.19439">
        <ele>2107.35</ele>
        <time>2012-05-13T09:30:57Z</time>
      </trkpt>
      <trkpt lat="44.2633" lon="6.19439">
        <ele>2107.83</ele>
        <time>2012-05-13T09:31:20Z</time>
      </trkpt>
      <trkpt lat="44.26331" lon="6.19439">
        <ele>2107.83</ele>
        <time>2012-05-13T09:31:40Z</time>
      </trkpt>
      <trkpt lat="44.2633" lon="6.19439">
        <ele>2107.83</ele>
        <time>2012-05-13T09:32:09Z</time>
      </trkpt>
      <trkpt lat="44.2633" lon="6.19438">
        <ele>2108.31</ele>
        <time>2012-05-13T09:32:25Z</time>
      </trkpt>
      <trkpt lat="44.2633" lon="6.19438">
        <ele>2108.31</ele>
        <time>2012-05-13T09:32:49Z</time>
      </trkpt>
      <trkpt lat="44.2633" lon="6.19438">
        <ele>2106.87</ele>
        <time>2012-05-13T09:33:07Z</time>
      </trkpt>
      <trkpt lat="44.2633" lon="6.19438">
        <ele>2105.91</ele>
        <time>2012-05-13T09:33:17Z</time>
      </trkpt>
      <trkpt lat="44.2633" lon="6.19437">
        <ele>2105.91</ele>
        <time>2012-05-13T09:33:40Z</time>
      </trkpt>
      <trkpt lat="44.2633" lon="6.19437">
        <ele>2105.91</ele>
        <time>2012-05-13T09:34:07Z</time>
      </trkpt>
      <trkpt lat="44.2633" lon="6.19437">
        <ele>2106.39</ele>
        <time>2012-05-13T09:34:28Z</time>
      </trkpt>
      <trkpt lat="44.2633" lon="6.19437">
        <ele>2106.39</ele>
        <time>2012-05-13T09:34:58Z</time>
      </trkpt>
      <trkpt lat="44.2633" lon="6.19437">
        <ele>2106.39</ele>
        <time>2012-05-13T09:35:25Z</time>
      </trkpt>
      <trkpt lat="44.2633" lon="6.19437">
        <ele>2106.87</ele>
        <time>2012-05-13T09:35:53Z</time>
      </trkpt>
      <trkpt lat="44.26329" lon="6.19437">
        <ele>2107.83</ele>
        <time>2012-05-13T09:36:23Z</time>
      </trkpt>
      <trkpt lat="44.26329" lon="6.19438">
        <ele>2106.87</ele>
        <time>2012-05-13T09:36:46Z</time>
      </trkpt>
      <trkpt lat="44.2633" lon="6.19438">
        <ele>2106.87</ele>
        <time>2012-05-13T09:37:16Z</time>
      </trkpt>
      <trkpt lat="44.2633" lon="6.19438">
        <ele>2106.87</ele>
        <time>2012-05-13T09:37:49Z</time>
      </trkpt>
      <trkpt lat="44.2633" lon="6.19438">
        <ele>2106.87</ele>
        <time>2012-05-13T09:38:14Z</time>
      </trkpt>
      <trkpt lat="44.2633" lon="6.19438">
        <ele>2108.31</ele>
        <time>2012-05-13T09:38:43Z</time>
      </trkpt>
      <trkpt lat="44.26331" lon="6.19438">
        <ele>2106.39</ele>
        <time>2012-05-13T09:39:12Z</time>
      </trkpt>
      <trkpt lat="44.26331" lon="6.19438">
        <ele>2106.39</ele>
        <time>2012-05-13T09:39:48Z</time>
      </trkpt>
      <trkpt lat="44.26331" lon="6.19438">
        <ele>2106.87</ele>
        <time>2012-05-13T09:40:18Z</time>
      </trkpt>
      <trkpt lat="44.2633" lon="6.19438">
        <ele>2107.35</ele>
        <time>2012-05-13T09:40:43Z</time>
      </trkpt>
      <trkpt lat="44.2633" lon="6.19438">
        <ele>2107.83</ele>
        <time>2012-05-13T09:41:00Z</time>
      </trkpt>
      <trkpt lat="44.2633" lon="6.19439">
        <ele>2107.83</ele>
        <time>2012-05-13T09:41:11Z</time>
      </trkpt>
      <trkpt lat="44.2633" lon="6.19438">
        <ele>2106.87</ele>
        <time>2012-05-13T09:41:32Z</time>
      </trkpt>
      <trkpt lat="44.26329" lon="6.19439">
        <ele>2107.83</ele>
        <time>2012-05-13T09:41:46Z</time>
      </trkpt>
      <trkpt lat="44.26321" lon="6.19438">
        <ele>2107.35</ele>
        <time>2012-05-13T09:41:52Z</time>
      </trkpt>
      <trkpt lat="44.26301" lon="6.19438">
        <ele>2107.83</ele>
        <time>2012-05-13T09:42:07Z</time>
      </trkpt>
      <trkpt lat="44.26285" lon="6.19429">
        <ele>2109.75</ele>
        <time>2012-05-13T09:42:22Z</time>
      </trkpt>
      <trkpt lat="44.26279" lon="6.19423">
        <ele>2112.15</ele>
        <time>2012-05-13T09:42:36Z</time>
      </trkpt>
      <trkpt lat="44.26279" lon="6.19423">
        <ele>2110.71</ele>
        <time>2012-05-13T09:42:39Z</time>
      </trkpt>
      <trkpt lat="44.2628" lon="6.19424">
        <ele>2109.75</ele>
        <time>2012-05-13T09:43:01Z</time>
      </trkpt>
      <trkpt lat="44.26285" lon="6.19428">
        <ele>2108.79</ele>
        <time>2012-05-13T09:43:06Z</time>
      </trkpt>
      <trkpt lat="44.26294" lon="6.19434">
        <ele>2109.75</ele>
        <time>2012-05-13T09:43:15Z</time>
      </trkpt>
      <trkpt lat="44.26312" lon="6.19437">
        <ele>2108.31</ele>
        <time>2012-05-13T09:43:30Z</time>
      </trkpt>
      <trkpt lat="44.26323" lon="6.19439">
        <ele>2107.83</ele>
        <time>2012-05-13T09:43:40Z</time>
      </trkpt>
      <trkpt lat="44.26343" lon="6.19439">
        <ele>2108.31</ele>
        <time>2012-05-13T09:43:58Z</time>
      </trkpt>
      <trkpt lat="44.26357" lon="6.19441">
        <ele>2106.39</ele>
        <time>2012-05-13T09:44:11Z</time>
      </trkpt>
      <trkpt lat="44.26374" lon="6.1944">
        <ele>2103.5</ele>
        <time>2012-05-13T09:44:27Z</time>
      </trkpt>
      <trkpt lat="44.26376" lon="6.19441">
        <ele>2102.54</ele>
        <time>2012-05-13T09:44:29Z</time>
      </trkpt>
      <trkpt lat="44.26384" lon="6.19441">
        <ele>2100.62</ele>
        <time>2012-05-13T09:44:43Z</time>
      </trkpt>
      <trkpt lat="44.26394" lon="6.19442">
        <ele>2098.21</ele>
        <time>2012-05-13T09:44:57Z</time>
      </trkpt>
      <trkpt lat="44.26399" lon="6.19441">
        <ele>2097.25</ele>
        <time>2012-05-13T09:45:04Z</time>
      </trkpt>
      <trkpt lat="44.264" lon="6.19439">
        <ele>2096.77</ele>
        <time>2012-05-13T09:45:07Z</time>
      </trkpt>
      <trkpt lat="44.26406" lon="6.19441">
        <ele>2093.89</ele>
        <time>2012-05-13T09:45:15Z</time>
      </trkpt>
      <trkpt lat="44.2641" lon="6.19442">
        <ele>2092.93</ele>
        <time>2012-05-13T09:45:19Z</time>
      </trkpt>
      <trkpt lat="44.26415" lon="6.19441">
        <ele>2089.56</ele>
        <time>2012-05-13T09:45:27Z</time>
      </trkpt>
      <trkpt lat="44.26419" lon="6.1944">
        <ele>2088.6</ele>
        <time>2012-05-13T09:45:36Z</time>
      </trkpt>
      <trkpt lat="44.26421" lon="6.19439">
        <ele>2088.12</ele>
        <time>2012-05-13T09:45:38Z</time>
      </trkpt>
      <trkpt lat="44.26427" lon="6.19436">
        <ele>2088.6</ele>
        <time>2012-05-13T09:45:43Z</time>
      </trkpt>
      <trkpt lat="44.2643" lon="6.19436">
        <ele>2088.6</ele>
        <time>2012-05-13T09:45:46Z</time>
      </trkpt>
      <trkpt lat="44.26438" lon="6.19432">
        <ele>2089.08</ele>
        <time>2012-05-13T09:46:01Z</time>
      </trkpt>
      <trkpt lat="44.26438" lon="6.19432">
        <ele>2089.08</ele>
        <time>2012-05-13T09:46:19Z</time>
      </trkpt>
      <trkpt lat="44.26446" lon="6.19433">
        <ele>2089.08</ele>
        <time>2012-05-13T09:46:37Z</time>
      </trkpt>
      <trkpt lat="44.26455" lon="6.19433">
        <ele>2090.52</ele>
        <time>2012-05-13T09:46:46Z</time>
      </trkpt>
      <trkpt lat="44.26461" lon="6.19435">
        <ele>2091.49</ele>
        <time>2012-05-13T09:46:52Z</time>
      </trkpt>
      <trkpt lat="44.26468" lon="6.19439">
        <ele>2090.52</ele>
        <time>2012-05-13T09:46:59Z</time>
      </trkpt>
      <trkpt lat="44.26484" lon="6.19445">
        <ele>2091.97</ele>
        <time>2012-05-13T09:47:13Z</time>
      </trkpt>
      <trkpt lat="44.26492" lon="6.19446">
        <ele>2092.45</ele>
        <time>2012-05-13T09:47:27Z</time>
      </trkpt>
      <trkpt lat="44.265" lon="6.19449">
        <ele>2093.89</ele>
        <time>2012-05-13T09:47:40Z</time>
      </trkpt>
      <trkpt lat="44.26516" lon="6.19449">
        <ele>2094.85</ele>
        <time>2012-05-13T09:47:56Z</time>
      </trkpt>
      <trkpt lat="44.26521" lon="6.19446">
        <ele>2095.33</ele>
        <time>2012-05-13T09:48:01Z</time>
      </trkpt>
      <trkpt lat="44.26526" lon="6.1944">
        <ele>2095.81</ele>
        <time>2012-05-13T09:48:07Z</time>
      </trkpt>
      <trkpt lat="44.26532" lon="6.19426">
        <ele>2097.73</ele>
        <time>2012-05-13T09:48:22Z</time>
      </trkpt>
      <trkpt lat="44.26533" lon="6.19423">
        <ele>2099.18</ele>
        <time>2012-05-13T09:48:27Z</time>
      </trkpt>
      <trkpt lat="44.26539" lon="6.19419">
        <ele>2102.06</ele>
        <time>2012-05-13T09:48:40Z</time>
      </trkpt>
      <trkpt lat="44.26542" lon="6.19418">
        <ele>2103.5</ele>
        <time>2012-05-13T09:48:52Z</time>
      </trkpt>
      <trkpt lat="44.26542" lon="6.19417">
        <ele>2103.98</ele>
        <time>2012-05-13T09:49:14Z</time>
      </trkpt>
      <trkpt lat="44.26544" lon="6.19417">
        <ele>2103.5</ele>
        <time>2012-05-13T09:49:28Z</time>
      </trkpt>
      <trkpt lat="44.26544" lon="6.19417">
        <ele>2103.02</ele>
        <time>2012-05-13T09:49:50Z</time>
      </trkpt>
      <trkpt lat="44.26544" lon="6.19417">
        <ele>2103.02</ele>
        <time>2012-05-13T09:50:13Z</time>
      </trkpt>
      <trkpt lat="44.26543" lon="6.19417">
        <ele>2103.02</ele>
        <time>2012-05-13T09:50:45Z</time>
      </trkpt>
      <trkpt lat="44.26543" lon="6.19417">
        <ele>2103.02</ele>
        <time>2012-05-13T09:51:15Z</time>
      </trkpt>
      <trkpt lat="44.26543" lon="6.19417">
        <ele>2103.02</ele>
        <time>2012-05-13T09:51:48Z</time>
      </trkpt>
      <trkpt lat="44.26543" lon="6.19417">
        <ele>2103.02</ele>
        <time>2012-05-13T09:52:24Z</time>
      </trkpt>
      <trkpt lat="44.26544" lon="6.19418">
        <ele>2103.02</ele>
        <time>2012-05-13T09:52:57Z</time>
      </trkpt>
      <trkpt lat="44.26544" lon="6.19418">
        <ele>2103.5</ele>
        <time>2012-05-13T09:53:16Z</time>
      </trkpt>
      <trkpt lat="44.26544" lon="6.19418">
        <ele>2103.02</ele>
        <time>2012-05-13T09:53:40Z</time>
      </trkpt>
      <trkpt lat="44.26543" lon="6.19418">
        <ele>2103.98</ele>
        <time>2012-05-13T09:54:18Z</time>
      </trkpt>
      <trkpt lat="44.26543" lon="6.19418">
        <ele>2103.98</ele>
        <time>2012-05-13T09:54:51Z</time>
      </trkpt>
      <trkpt lat="44.26543" lon="6.19418">
        <ele>2103.98</ele>
        <time>2012-05-13T09:55:22Z</time>
      </trkpt>
      <trkpt lat="44.26543" lon="6.19418">
        <ele>2103.98</ele>
        <time>2012-05-13T09:55:55Z</time>
      </trkpt>
      <trkpt lat="44.26543" lon="6.19418">
        <ele>2103.5</ele>
        <time>2012-05-13T09:56:29Z</time>
      </trkpt>
      <trkpt lat="44.26543" lon="6.19418">
        <ele>2103.98</ele>
        <time>2012-05-13T09:57:02Z</time>
      </trkpt>
      <trkpt lat="44.26543" lon="6.19418">
        <ele>2103.98</ele>
        <time>2012-05-13T09:57:35Z</time>
      </trkpt>
      <trkpt lat="44.26543" lon="6.19418">
        <ele>2104.46</ele>
        <time>2012-05-13T09:57:59Z</time>
      </trkpt>
      <trkpt lat="44.26543" lon="6.19418">
        <ele>2104.94</ele>
        <time>2012-05-13T09:58:22Z</time>
      </trkpt>
      <trkpt lat="44.26543" lon="6.19418">
        <ele>2104.46</ele>
        <time>2012-05-13T09:58:52Z</time>
      </trkpt>
      <trkpt lat="44.26542" lon="6.19418">
        <ele>2105.42</ele>
        <time>2012-05-13T09:59:23Z</time>
      </trkpt>
      <trkpt lat="44.26543" lon="6.19418">
        <ele>2104.46</ele>
        <time>2012-05-13T10:00:02Z</time>
      </trkpt>
      <trkpt lat="44.26543" lon="6.19419">
        <ele>2105.42</ele>
        <time>2012-05-13T10:00:41Z</time>
      </trkpt>
      <trkpt lat="44.26544" lon="6.19419">
        <ele>2106.39</ele>
        <time>2012-05-13T10:01:18Z</time>
      </trkpt>
      <trkpt lat="44.26544" lon="6.19419">
        <ele>2105.91</ele>
        <time>2012-05-13T10:01:53Z</time>
      </trkpt>
      <trkpt lat="44.26543" lon="6.19419">
        <ele>2105.91</ele>
        <time>2012-05-13T10:02:27Z</time>
      </trkpt>
      <trkpt lat="44.26543" lon="6.19418">
        <ele>2106.87</ele>
        <time>2012-05-13T10:03:03Z</time>
      </trkpt>
      <trkpt lat="44.26543" lon="6.19418">
        <ele>2106.87</ele>
        <time>2012-05-13T10:03:35Z</time>
      </trkpt>
      <trkpt lat="44.26543" lon="6.19418">
        <ele>2105.91</ele>
        <time>2012-05-13T10:04:14Z</time>
      </trkpt>
      <trkpt lat="44.26543" lon="6.19418">
        <ele>2105.91</ele>
        <time>2012-05-13T10:04:52Z</time>
      </trkpt>
      <trkpt lat="44.26543" lon="6.19418">
        <ele>2106.87</ele>
        <time>2012-05-13T10:05:28Z</time>
      </trkpt>
      <trkpt lat="44.26543" lon="6.19418">
        <ele>2105.91</ele>
        <time>2012-05-13T10:06:05Z</time>
      </trkpt>
      <trkpt lat="44.26543" lon="6.19417">
        <ele>2105.91</ele>
        <time>2012-05-13T10:06:40Z</time>
      </trkpt>
      <trkpt lat="44.26543" lon="6.19417">
        <ele>2106.39</ele>
        <time>2012-05-13T10:07:15Z</time>
      </trkpt>
      <trkpt lat="44.26543" lon="6.19417">
        <ele>2106.87</ele>
        <time>2012-05-13T10:07:53Z</time>
      </trkpt>
      <trkpt lat="44.26543" lon="6.19417">
        <ele>2105.91</ele>
        <time>2012-05-13T10:08:35Z</time>
      </trkpt>
      <trkpt lat="44.26543" lon="6.19416">
        <ele>2105.91</ele>
        <time>2012-05-13T10:09:07Z</time>
      </trkpt>
      <trkpt lat="44.26543" lon="6.19416">
        <ele>2106.39</ele>
        <time>2012-05-13T10:09:45Z</time>
      </trkpt>
      <trkpt lat="44.26543" lon="6.19417">
        <ele>2106.87</ele>
        <time>2012-05-13T10:10:25Z</time>
      </trkpt>
      <trkpt lat="44.26543" lon="6.19417">
        <ele>2105.91</ele>
        <time>2012-05-13T10:11:05Z</time>
      </trkpt>
      <trkpt lat="44.26543" lon="6.19417">
        <ele>2105.91</ele>
        <time>2012-05-13T10:11:45Z</time>
      </trkpt>
      <trkpt lat="44.26543" lon="6.19418">
        <ele>2105.91</ele>
        <time>2012-05-13T10:12:23Z</time>
      </trkpt>
      <trkpt lat="44.26543" lon="6.19417">
        <ele>2106.87</ele>
        <time>2012-05-13T10:13:00Z</time>
      </trkpt>
      <trkpt lat="44.26543" lon="6.19417">
        <ele>2107.35</ele>
        <time>2012-05-13T10:13:39Z</time>
      </trkpt>
      <trkpt lat="44.26543" lon="6.19417">
        <ele>2106.87</ele>
        <time>2012-05-13T10:14:09Z</time>
      </trkpt>
      <trkpt lat="44.26543" lon="6.19417">
        <ele>2106.39</ele>
        <time>2012-05-13T10:14:44Z</time>
      </trkpt>
      <trkpt lat="44.26543" lon="6.19417">
        <ele>2107.35</ele>
        <time>2012-05-13T10:15:20Z</time>
      </trkpt>
      <trkpt lat="44.26543" lon="6.19417">
        <ele>2107.35</ele>
        <time>2012-05-13T10:15:50Z</time>
      </trkpt>
      <trkpt lat="44.26542" lon="6.19417">
        <ele>2107.35</ele>
        <time>2012-05-13T10:16:23Z</time>
      </trkpt>
      <trkpt lat="44.26542" lon="6.19417">
        <ele>2107.35</ele>
        <time>2012-05-13T10:17:02Z</time>
      </trkpt>
      <trkpt lat="44.26542" lon="6.19417">
        <ele>2107.35</ele>
        <time>2012-05-13T10:17:37Z</time>
      </trkpt>
      <trkpt lat="44.26543" lon="6.19417">
        <ele>2107.83</ele>
        <time>2012-05-13T10:18:10Z</time>
      </trkpt>
      <trkpt lat="44.26542" lon="6.19417">
        <ele>2107.83</ele>
        <time>2012-05-13T10:18:47Z</time>
      </trkpt>
      <trkpt lat="44.26542" lon="6.19417">
        <ele>2107.35</ele>
        <time>2012-05-13T10:19:22Z</time>
      </trkpt>
      <trkpt lat="44.26542" lon="6.19417">
        <ele>2107.35</ele>
        <time>2012-05-13T10:20:00Z</time>
      </trkpt>
      <trkpt lat="44.26542" lon="6.19416">
        <ele>2107.35</ele>
        <time>2012-05-13T10:20:39Z</time>
      </trkpt>
      <trkpt lat="44.26543" lon="6.19416">
        <ele>2107.35</ele>
        <time>2012-05-13T10:21:18Z</time>
      </trkpt>
      <trkpt lat="44.26543" lon="6.19416">
        <ele>2107.83</ele>
        <time>2012-05-13T10:21:54Z</time>
      </trkpt>
      <trkpt lat="44.26542" lon="6.19416">
        <ele>2108.31</ele>
        <time>2012-05-13T10:22:33Z</time>
      </trkpt>
      <trkpt lat="44.26542" lon="6.19417">
        <ele>2107.83</ele>
        <time>2012-05-13T10:23:13Z</time>
      </trkpt>
      <trkpt lat="44.26543" lon="6.19416">
        <ele>2108.31</ele>
        <time>2012-05-13T10:23:50Z</time>
      </trkpt>
      <trkpt lat="44.26543" lon="6.19416">
        <ele>2108.31</ele>
        <time>2012-05-13T10:24:30Z</time>
      </trkpt>
      <trkpt lat="44.26542" lon="6.19416">
        <ele>2107.83</ele>
        <time>2012-05-13T10:25:08Z</time>
      </trkpt>
      <trkpt lat="44.26542" lon="6.19416">
        <ele>2108.31</ele>
        <time>2012-05-13T10:25:46Z</time>
      </trkpt>
      <trkpt lat="44.26542" lon="6.19416">
        <ele>2109.27</ele>
        <time>2012-05-13T10:26:24Z</time>
      </trkpt>
      <trkpt lat="44.26542" lon="6.19416">
        <ele>2108.31</ele>
        <time>2012-05-13T10:26:58Z</time>
      </trkpt>
      <trkpt lat="44.26542" lon="6.19416">
        <ele>2108.79</ele>
        <time>2012-05-13T10:27:31Z</time>
      </trkpt>
      <trkpt lat="44.26542" lon="6.19416">
        <ele>2109.27</ele>
        <time>2012-05-13T10:28:04Z</time>
      </trkpt>
      <trkpt lat="44.26541" lon="6.19416">
        <ele>2108.79</ele>
        <time>2012-05-13T10:28:40Z</time>
      </trkpt>
      <trkpt lat="44.26541" lon="6.19416">
        <ele>2109.75</ele>
        <time>2012-05-13T10:29:14Z</time>
      </trkpt>
      <trkpt lat="44.2654" lon="6.19416">
        <ele>2109.27</ele>
        <time>2012-05-13T10:29:51Z</time>
      </trkpt>
      <trkpt lat="44.2654" lon="6.19417">
        <ele>2108.31</ele>
        <time>2012-05-13T10:30:26Z</time>
      </trkpt>
      <trkpt lat="44.2654" lon="6.19417">
        <ele>2109.27</ele>
        <time>2012-05-13T10:30:58Z</time>
      </trkpt>
      <trkpt lat="44.2654" lon="6.19417">
        <ele>2108.79</ele>
        <time>2012-05-13T10:31:31Z</time>
      </trkpt>
      <trkpt lat="44.2654" lon="6.19417">
        <ele>2109.27</ele>
        <time>2012-05-13T10:31:58Z</time>
      </trkpt>
      <trkpt lat="44.2654" lon="6.19417">
        <ele>2110.23</ele>
        <time>2012-05-13T10:32:28Z</time>
      </trkpt>
      <trkpt lat="44.26541" lon="6.19416">
        <ele>2110.23</ele>
        <time>2012-05-13T10:33:03Z</time>
      </trkpt>
      <trkpt lat="44.26541" lon="6.19416">
        <ele>2110.71</ele>
        <time>2012-05-13T10:33:36Z</time>
      </trkpt>
      <trkpt lat="44.26541" lon="6.19415">
        <ele>2110.23</ele>
        <time>2012-05-13T10:34:10Z</time>
      </trkpt>
      <trkpt lat="44.26542" lon="6.19415">
        <ele>2111.19</ele>
        <time>2012-05-13T10:34:41Z</time>
      </trkpt>
      <trkpt lat="44.26542" lon="6.19415">
        <ele>2110.23</ele>
        <time>2012-05-13T10:35:15Z</time>
      </trkpt>
      <trkpt lat="44.26542" lon="6.19415">
        <ele>2110.71</ele>
        <time>2012-05-13T10:35:46Z</time>
      </trkpt>
      <trkpt lat="44.26541" lon="6.19415">
        <ele>2110.71</ele>
        <time>2012-05-13T10:36:20Z</time>
      </trkpt>
      <trkpt lat="44.26541" lon="6.19415">
        <ele>2111.19</ele>
        <time>2012-05-13T10:36:53Z</time>
      </trkpt>
      <trkpt lat="44.26541" lon="6.19415">
        <ele>2110.71</ele>
        <time>2012-05-13T10:37:24Z</time>
      </trkpt>
      <trkpt lat="44.2654" lon="6.19415">
        <ele>2110.71</ele>
        <time>2012-05-13T10:37:57Z</time>
      </trkpt>
      <trkpt lat="44.2654" lon="6.19415">
        <ele>2110.71</ele>
        <time>2012-05-13T10:38:35Z</time>
      </trkpt>
      <trkpt lat="44.26541" lon="6.19415">
        <ele>2110.71</ele>
        <time>2012-05-13T10:39:11Z</time>
      </trkpt>
      <trkpt lat="44.26541" lon="6.19415">
        <ele>2110.71</ele>
        <time>2012-05-13T10:39:16Z</time>
      </trkpt>
      <trkpt lat="44.2654" lon="6.19415">
        <ele>2110.23</ele>
        <time>2012-05-13T10:39:50Z</time>
      </trkpt>
      <trkpt lat="44.2654" lon="6.19416">
        <ele>2110.71</ele>
        <time>2012-05-13T10:40:21Z</time>
      </trkpt>
      <trkpt lat="44.2654" lon="6.19416">
        <ele>2110.71</ele>
        <time>2012-05-13T10:40:54Z</time>
      </trkpt>
      <trkpt lat="44.26539" lon="6.19416">
        <ele>2110.71</ele>
        <time>2012-05-13T10:41:29Z</time>
      </trkpt>
      <trkpt lat="44.26538" lon="6.19416">
        <ele>2110.71</ele>
        <time>2012-05-13T10:42:04Z</time>
      </trkpt>
      <trkpt lat="44.26538" lon="6.19416">
        <ele>2111.19</ele>
        <time>2012-05-13T10:42:32Z</time>
      </trkpt>
      <trkpt lat="44.26538" lon="6.19417">
        <ele>2111.67</ele>
        <time>2012-05-13T10:43:06Z</time>
      </trkpt>
      <trkpt lat="44.26539" lon="6.19416">
        <ele>2111.19</ele>
        <time>2012-05-13T10:43:42Z</time>
      </trkpt>
      <trkpt lat="44.26539" lon="6.19416">
        <ele>2110.71</ele>
        <time>2012-05-13T10:44:16Z</time>
      </trkpt>
      <trkpt lat="44.26539" lon="6.19416">
        <ele>2111.67</ele>
        <time>2012-05-13T10:44:51Z</time>
      </trkpt>
      <trkpt lat="44.26539" lon="6.19416">
        <ele>2111.19</ele>
        <time>2012-05-13T10:45:26Z</time>
      </trkpt>
      <trkpt lat="44.26539" lon="6.19415">
        <ele>2112.15</ele>
        <time>2012-05-13T10:46:01Z</time>
      </trkpt>
      <trkpt lat="44.26538" lon="6.19416">
        <ele>2111.67</ele>
        <time>2012-05-13T10:46:40Z</time>
      </trkpt>
      <trkpt lat="44.26538" lon="6.19416">
        <ele>2111.19</ele>
        <time>2012-05-13T10:47:13Z</time>
      </trkpt>
      <trkpt lat="44.26538" lon="6.19416">
        <ele>2111.67</ele>
        <time>2012-05-13T10:47:55Z</time>
      </trkpt>
      <trkpt lat="44.26539" lon="6.19416">
        <ele>2111.19</ele>
        <time>2012-05-13T10:48:31Z</time>
      </trkpt>
      <trkpt lat="44.2654" lon="6.19417">
        <ele>2111.19</ele>
        <time>2012-05-13T10:48:51Z</time>
      </trkpt>
      <trkpt lat="44.26539" lon="6.19417">
        <ele>2110.23</ele>
        <time>2012-05-13T10:49:26Z</time>
      </trkpt>
      <trkpt lat="44.26539" lon="6.19417">
        <ele>2109.75</ele>
        <time>2012-05-13T10:49:48Z</time>
      </trkpt>
      <trkpt lat="44.26539" lon="6.19417">
        <ele>2105.42</ele>
        <time>2012-05-13T10:50:10Z</time>
      </trkpt>
      <trkpt lat="44.26539" lon="6.19417">
        <ele>2111.67</ele>
        <time>2012-05-13T10:50:11Z</time>
      </trkpt>
      <trkpt lat="44.2654" lon="6.19416">
        <ele>2109.75</ele>
        <time>2012-05-13T10:50:51Z</time>
      </trkpt>
      <trkpt lat="44.2654" lon="6.19416">
        <ele>2110.71</ele>
        <time>2012-05-13T10:51:24Z</time>
      </trkpt>
      <trkpt lat="44.2654" lon="6.19416">
        <ele>2110.71</ele>
        <time>2012-05-13T10:51:59Z</time>
      </trkpt>
      <trkpt lat="44.2654" lon="6.19417">
        <ele>2109.75</ele>
        <time>2012-05-13T10:52:34Z</time>
      </trkpt>
      <trkpt lat="44.2654" lon="6.19416">
        <ele>2111.19</ele>
        <time>2012-05-13T10:52:57Z</time>
      </trkpt>
      <trkpt lat="44.2654" lon="6.19416">
        <ele>2109.75</ele>
        <time>2012-05-13T10:53:32Z</time>
      </trkpt>
      <trkpt lat="44.2654" lon="6.19416">
        <ele>2109.75</ele>
        <time>2012-05-13T10:53:58Z</time>
      </trkpt>
      <trkpt lat="44.2654" lon="6.19416">
        <ele>2109.75</ele>
        <time>2012-05-13T10:54:18Z</time>
      </trkpt>
      <trkpt lat="44.2654" lon="6.19416">
        <ele>2104.46</ele>
        <time>2012-05-13T10:54:27Z</time>
      </trkpt>
      <trkpt lat="44.2654" lon="6.19416">
        <ele>2104.94</ele>
        <time>2012-05-13T10:54:28Z</time>
      </trkpt>
      <trkpt lat="44.2654" lon="6.19416">
        <ele>2116.96</ele>
        <time>2012-05-13T10:54:29Z</time>
      </trkpt>
      <trkpt lat="44.2654" lon="6.19416">
        <ele>2110.71</ele>
        <time>2012-05-13T10:54:30Z</time>
      </trkpt>
      <trkpt lat="44.2654" lon="6.19416">
        <ele>2109.27</ele>
        <time>2012-05-13T10:54:37Z</time>
      </trkpt>
      <trkpt lat="44.2654" lon="6.19416">
        <ele>2109.27</ele>
        <time>2012-05-13T10:55:08Z</time>
      </trkpt>
      <trkpt lat="44.2654" lon="6.19415">
        <ele>2109.75</ele>
        <time>2012-05-13T10:56:03Z</time>
      </trkpt>
      <trkpt lat="44.2654" lon="6.19415">
        <ele>2109.75</ele>
        <time>2012-05-13T10:56:49Z</time>
      </trkpt>
      <trkpt lat="44.2654" lon="6.19415">
        <ele>2108.79</ele>
        <time>2012-05-13T10:57:36Z</time>
      </trkpt>
      <trkpt lat="44.2654" lon="6.19415">
        <ele>2109.27</ele>
        <time>2012-05-13T10:58:16Z</time>
      </trkpt>
      <trkpt lat="44.2654" lon="6.19415">
        <ele>2108.79</ele>
        <time>2012-05-13T10:58:57Z</time>
      </trkpt>
      <trkpt lat="44.2654" lon="6.19415">
        <ele>2108.79</ele>
        <time>2012-05-13T10:59:42Z</time>
      </trkpt>
      <trkpt lat="44.2654" lon="6.19415">
        <ele>2109.27</ele>
        <time>2012-05-13T11:00:27Z</time>
      </trkpt>
      <trkpt lat="44.2654" lon="6.19415">
        <ele>2108.79</ele>
        <time>2012-05-13T11:01:13Z</time>
      </trkpt>
      <trkpt lat="44.2654" lon="6.19415">
        <ele>2109.27</ele>
        <time>2012-05-13T11:02:01Z</time>
      </trkpt>
      <trkpt lat="44.2654" lon="6.19416">
        <ele>2109.27</ele>
        <time>2012-05-13T11:02:46Z</time>
      </trkpt>
      <trkpt lat="44.2654" lon="6.19416">
        <ele>2109.27</ele>
        <time>2012-05-13T11:03:32Z</time>
      </trkpt>
      <trkpt lat="44.2654" lon="6.19416">
        <ele>2108.79</ele>
        <time>2012-05-13T11:04:16Z</time>
      </trkpt>
      <trkpt lat="44.2654" lon="6.19416">
        <ele>2107.83</ele>
        <time>2012-05-13T11:04:59Z</time>
      </trkpt>
      <trkpt lat="44.2654" lon="6.19416">
        <ele>2108.31</ele>
        <time>2012-05-13T11:05:41Z</time>
      </trkpt>
      <trkpt lat="44.2654" lon="6.19416">
        <ele>2108.79</ele>
        <time>2012-05-13T11:06:22Z</time>
      </trkpt>
      <trkpt lat="44.2654" lon="6.19416">
        <ele>2108.31</ele>
        <time>2012-05-13T11:07:07Z</time>
      </trkpt>
      <trkpt lat="44.2654" lon="6.19416">
        <ele>2108.79</ele>
        <time>2012-05-13T11:07:58Z</time>
      </trkpt>
      <trkpt lat="44.2654" lon="6.19416">
        <ele>2107.83</ele>
        <time>2012-05-13T11:08:42Z</time>
      </trkpt>
      <trkpt lat="44.2654" lon="6.19416">
        <ele>2107.83</ele>
        <time>2012-05-13T11:09:29Z</time>
      </trkpt>
      <trkpt lat="44.2654" lon="6.19416">
        <ele>2107.83</ele>
        <time>2012-05-13T11:10:14Z</time>
      </trkpt>
      <trkpt lat="44.2654" lon="6.19415">
        <ele>2107.83</ele>
        <time>2012-05-13T11:10:58Z</time>
      </trkpt>
      <trkpt lat="44.26539" lon="6.19415">
        <ele>2108.79</ele>
        <time>2012-05-13T11:11:43Z</time>
      </trkpt>
      <trkpt lat="44.26539" lon="6.19415">
        <ele>2107.83</ele>
        <time>2012-05-13T11:12:32Z</time>
      </trkpt>
      <trkpt lat="44.26539" lon="6.19415">
        <ele>2107.35</ele>
        <time>2012-05-13T11:13:11Z</time>
      </trkpt>
      <trkpt lat="44.26539" lon="6.19415">
        <ele>2107.35</ele>
        <time>2012-05-13T11:13:57Z</time>
      </trkpt>
      <trkpt lat="44.26539" lon="6.19415">
        <ele>2108.31</ele>
        <time>2012-05-13T11:14:41Z</time>
      </trkpt>
      <trkpt lat="44.26539" lon="6.19415">
        <ele>2108.79</ele>
        <time>2012-05-13T11:15:21Z</time>
      </trkpt>
      <trkpt lat="44.26539" lon="6.19415">
        <ele>2107.83</ele>
        <time>2012-05-13T11:15:51Z</time>
      </trkpt>
      <trkpt lat="44.2654" lon="6.19415">
        <ele>2108.31</ele>
        <time>2012-05-13T11:16:23Z</time>
      </trkpt>
      <trkpt lat="44.2654" lon="6.19415">
        <ele>2108.79</ele>
        <time>2012-05-13T11:16:52Z</time>
      </trkpt>
      <trkpt lat="44.2654" lon="6.19415">
        <ele>2108.31</ele>
        <time>2012-05-13T11:17:14Z</time>
      </trkpt>
      <trkpt lat="44.2654" lon="6.19416">
        <ele>2102.54</ele>
        <time>2012-05-13T11:17:28Z</time>
      </trkpt>
      <trkpt lat="44.2654" lon="6.19416">
        <ele>2116</ele>
        <time>2012-05-13T11:17:29Z</time>
      </trkpt>
      <trkpt lat="44.2654" lon="6.19416">
        <ele>2108.79</ele>
        <time>2012-05-13T11:17:30Z</time>
      </trkpt>
      <trkpt lat="44.2654" lon="6.19416">
        <ele>2109.27</ele>
        <time>2012-05-13T11:17:37Z</time>
      </trkpt>
      <trkpt lat="44.2654" lon="6.19416">
        <ele>2108.31</ele>
        <time>2012-05-13T11:18:01Z</time>
      </trkpt>
      <trkpt lat="44.26539" lon="6.19416">
        <ele>2108.31</ele>
        <time>2012-05-13T11:18:40Z</time>
      </trkpt>
      <trkpt lat="44.26539" lon="6.19415">
        <ele>2109.27</ele>
        <time>2012-05-13T11:19:04Z</time>
      </trkpt>
      <trkpt lat="44.26539" lon="6.19415">
        <ele>2109.27</ele>
        <time>2012-05-13T11:19:18Z</time>
      </trkpt>
      <trkpt lat="44.26539" lon="6.19416">
        <ele>2109.27</ele>
        <time>2012-05-13T11:19:37Z</time>
      </trkpt>
      <trkpt lat="44.26539" lon="6.19417">
        <ele>2109.75</ele>
        <time>2012-05-13T11:19:53Z</time>
      </trkpt>
      <trkpt lat="44.2654" lon="6.19417">
        <ele>2108.31</ele>
        <time>2012-05-13T11:20:10Z</time>
      </trkpt>
      <trkpt lat="44.26539" lon="6.19416">
        <ele>2109.75</ele>
        <time>2012-05-13T11:20:22Z</time>
      </trkpt>
      <trkpt lat="44.2654" lon="6.19415">
        <ele>2109.75</ele>
        <time>2012-05-13T11:20:41Z</time>
      </trkpt>
      <trkpt lat="44.26542" lon="6.19416">
        <ele>2109.75</ele>
        <time>2012-05-13T11:20:58Z</time>
      </trkpt>
      <trkpt lat="44.26541" lon="6.19416">
        <ele>2108.79</ele>
        <time>2012-05-13T11:21:13Z</time>
      </trkpt>
      <trkpt lat="44.26543" lon="6.19422">
        <ele>2108.79</ele>
        <time>2012-05-13T11:21:31Z</time>
      </trkpt>
      <trkpt lat="44.26544" lon="6.19428">
        <ele>2109.75</ele>
        <time>2012-05-13T11:21:53Z</time>
      </trkpt>
      <trkpt lat="44.26547" lon="6.19431">
        <ele>2110.23</ele>
        <time>2012-05-13T11:22:02Z</time>
      </trkpt>
      <trkpt lat="44.2655" lon="6.19436">
        <ele>2109.75</ele>
        <time>2012-05-13T11:22:12Z</time>
      </trkpt>
      <trkpt lat="44.26551" lon="6.19437">
        <ele>2111.67</ele>
        <time>2012-05-13T11:22:14Z</time>
      </trkpt>
      <trkpt lat="44.26553" lon="6.19441">
        <ele>2110.71</ele>
        <time>2012-05-13T11:22:28Z</time>
      </trkpt>
      <trkpt lat="44.26556" lon="6.19441">
        <ele>2112.63</ele>
        <time>2012-05-13T11:22:34Z</time>
      </trkpt>
      <trkpt lat="44.26564" lon="6.19435">
        <ele>2110.71</ele>
        <time>2012-05-13T11:22:49Z</time>
      </trkpt>
      <trkpt lat="44.26568" lon="6.19425">
        <ele>2109.75</ele>
        <time>2012-05-13T11:23:03Z</time>
      </trkpt>
      <trkpt lat="44.26567" lon="6.19411">
        <ele>2110.23</ele>
        <time>2012-05-13T11:23:18Z</time>
      </trkpt>
      <trkpt lat="44.26568" lon="6.19397">
        <ele>2109.75</ele>
        <time>2012-05-13T11:23:32Z</time>
      </trkpt>
      <trkpt lat="44.26571" lon="6.19386">
        <ele>2107.35</ele>
        <time>2012-05-13T11:23:46Z</time>
      </trkpt>
      <trkpt lat="44.26576" lon="6.19382">
        <ele>2105.42</ele>
        <time>2012-05-13T11:23:53Z</time>
      </trkpt>
      <trkpt lat="44.26577" lon="6.19377">
        <ele>2103.02</ele>
        <time>2012-05-13T11:23:59Z</time>
      </trkpt>
      <trkpt lat="44.26588" lon="6.19378">
        <ele>2104.46</ele>
        <time>2012-05-13T11:24:12Z</time>
      </trkpt>
      <trkpt lat="44.26589" lon="6.19381">
        <ele>2103.98</ele>
        <time>2012-05-13T11:24:15Z</time>
      </trkpt>
      <trkpt lat="44.26592" lon="6.19384">
        <ele>2103.5</ele>
        <time>2012-05-13T11:24:21Z</time>
      </trkpt>
      <trkpt lat="44.26597" lon="6.19382">
        <ele>2102.54</ele>
        <time>2012-05-13T11:24:26Z</time>
      </trkpt>
      <trkpt lat="44.26608" lon="6.19382">
        <ele>2102.06</ele>
        <time>2012-05-13T11:24:41Z</time>
      </trkpt>
      <trkpt lat="44.26611" lon="6.1938">
        <ele>2100.62</ele>
        <time>2012-05-13T11:24:45Z</time>
      </trkpt>
      <trkpt lat="44.26614" lon="6.19373">
        <ele>2099.66</ele>
        <time>2012-05-13T11:24:56Z</time>
      </trkpt>
      <trkpt lat="44.26614" lon="6.19361">
        <ele>2097.73</ele>
        <time>2012-05-13T11:25:09Z</time>
      </trkpt>
      <trkpt lat="44.26616" lon="6.19357">
        <ele>2096.77</ele>
        <time>2012-05-13T11:25:14Z</time>
      </trkpt>
      <trkpt lat="44.26616" lon="6.19356">
        <ele>2096.77</ele>
        <time>2012-05-13T11:25:15Z</time>
      </trkpt>
      <trkpt lat="44.26626" lon="6.19352">
        <ele>2093.41</ele>
        <time>2012-05-13T11:25:29Z</time>
      </trkpt>
      <trkpt lat="44.26631" lon="6.19357">
        <ele>2090.52</ele>
        <time>2012-05-13T11:25:43Z</time>
      </trkpt>
      <trkpt lat="44.26635" lon="6.19352">
        <ele>2090.04</ele>
        <time>2012-05-13T11:25:56Z</time>
      </trkpt>
      <trkpt lat="44.26636" lon="6.19351">
        <ele>2089.56</ele>
        <time>2012-05-13T11:26:01Z</time>
      </trkpt>
      <trkpt lat="44.26639" lon="6.19347">
        <ele>2088.12</ele>
        <time>2012-05-13T11:26:11Z</time>
      </trkpt>
      <trkpt lat="44.26644" lon="6.19339">
        <ele>2084.76</ele>
        <time>2012-05-13T11:26:26Z</time>
      </trkpt>
      <trkpt lat="44.26647" lon="6.19335">
        <ele>2082.35</ele>
        <time>2012-05-13T11:26:37Z</time>
      </trkpt>
      <trkpt lat="44.26647" lon="6.19328">
        <ele>2079.47</ele>
        <time>2012-05-13T11:26:50Z</time>
      </trkpt>
      <trkpt lat="44.26646" lon="6.19322">
        <ele>2077.07</ele>
        <time>2012-05-13T11:27:03Z</time>
      </trkpt>
      <trkpt lat="44.26648" lon="6.19316">
        <ele>2074.18</ele>
        <time>2012-05-13T11:27:12Z</time>
      </trkpt>
      <trkpt lat="44.26649" lon="6.19313">
        <ele>2073.7</ele>
        <time>2012-05-13T11:27:18Z</time>
      </trkpt>
      <trkpt lat="44.26649" lon="6.19313">
        <ele>2072.26</ele>
        <time>2012-05-13T11:27:34Z</time>
      </trkpt>
      <trkpt lat="44.26655" lon="6.19302">
        <ele>2069.86</ele>
        <time>2012-05-13T11:27:44Z</time>
      </trkpt>
      <trkpt lat="44.26664" lon="6.19284">
        <ele>2065.53</ele>
        <time>2012-05-13T11:27:59Z</time>
      </trkpt>
      <trkpt lat="44.26673" lon="6.1927">
        <ele>2065.53</ele>
        <time>2012-05-13T11:28:14Z</time>
      </trkpt>
      <trkpt lat="44.26677" lon="6.19258">
        <ele>2066.49</ele>
        <time>2012-05-13T11:28:27Z</time>
      </trkpt>
      <trkpt lat="44.26678" lon="6.19251">
        <ele>2065.05</ele>
        <time>2012-05-13T11:28:40Z</time>
      </trkpt>
      <trkpt lat="44.2668" lon="6.19249">
        <ele>2063.13</ele>
        <time>2012-05-13T11:28:52Z</time>
      </trkpt>
      <trkpt lat="44.26686" lon="6.19247">
        <ele>2060.72</ele>
        <time>2012-05-13T11:29:05Z</time>
      </trkpt>
      <trkpt lat="44.26686" lon="6.19247">
        <ele>2057.36</ele>
        <time>2012-05-13T11:29:19Z</time>
      </trkpt>
      <trkpt lat="44.26691" lon="6.19242">
        <ele>2055.92</ele>
        <time>2012-05-13T11:29:26Z</time>
      </trkpt>
      <trkpt lat="44.26699" lon="6.19228">
        <ele>2053.51</ele>
        <time>2012-05-13T11:29:38Z</time>
      </trkpt>
      <trkpt lat="44.26703" lon="6.19227">
        <ele>2050.63</ele>
        <time>2012-05-13T11:29:48Z</time>
      </trkpt>
      <trkpt lat="44.26704" lon="6.19226">
        <ele>2050.15</ele>
        <time>2012-05-13T11:29:50Z</time>
      </trkpt>
      <trkpt lat="44.26709" lon="6.19223">
        <ele>2048.23</ele>
        <time>2012-05-13T11:29:57Z</time>
      </trkpt>
      <trkpt lat="44.26714" lon="6.19219">
        <ele>2046.78</ele>
        <time>2012-05-13T11:30:05Z</time>
      </trkpt>
      <trkpt lat="44.26719" lon="6.19211">
        <ele>2044.86</ele>
        <time>2012-05-13T11:30:16Z</time>
      </trkpt>
      <trkpt lat="44.26727" lon="6.19201">
        <ele>2042.94</ele>
        <time>2012-05-13T11:30:30Z</time>
      </trkpt>
      <trkpt lat="44.26728" lon="6.192">
        <ele>2042.94</ele>
        <time>2012-05-13T11:30:32Z</time>
      </trkpt>
      <trkpt lat="44.26737" lon="6.19189">
        <ele>2041.02</ele>
        <time>2012-05-13T11:30:46Z</time>
      </trkpt>
      <trkpt lat="44.26737" lon="6.19188">
        <ele>2040.54</ele>
        <time>2012-05-13T11:30:47Z</time>
      </trkpt>
      <trkpt lat="44.2674" lon="6.19177">
        <ele>2039.57</ele>
        <time>2012-05-13T11:31:01Z</time>
      </trkpt>
      <trkpt lat="44.26742" lon="6.19175">
        <ele>2040.05</ele>
        <time>2012-05-13T11:31:04Z</time>
      </trkpt>
      <trkpt lat="44.2675" lon="6.1917">
        <ele>2036.69</ele>
        <time>2012-05-13T11:31:18Z</time>
      </trkpt>
      <trkpt lat="44.26754" lon="6.19162">
        <ele>2034.77</ele>
        <time>2012-05-13T11:31:28Z</time>
      </trkpt>
      <trkpt lat="44.2676" lon="6.19151">
        <ele>2032.36</ele>
        <time>2012-05-13T11:31:41Z</time>
      </trkpt>
      <trkpt lat="44.26761" lon="6.19145">
        <ele>2030.92</ele>
        <time>2012-05-13T11:31:47Z</time>
      </trkpt>
      <trkpt lat="44.26766" lon="6.19128">
        <ele>2030.44</ele>
        <time>2012-05-13T11:32:01Z</time>
      </trkpt>
      <trkpt lat="44.26765" lon="6.19112">
        <ele>2030.44</ele>
        <time>2012-05-13T11:32:14Z</time>
      </trkpt>
      <trkpt lat="44.26762" lon="6.19108">
        <ele>2029.96</ele>
        <time>2012-05-13T11:32:18Z</time>
      </trkpt>
      <trkpt lat="44.26763" lon="6.19098">
        <ele>2029</ele>
        <time>2012-05-13T11:32:28Z</time>
      </trkpt>
      <trkpt lat="44.26766" lon="6.19093">
        <ele>2028.04</ele>
        <time>2012-05-13T11:32:32Z</time>
      </trkpt>
      <trkpt lat="44.26773" lon="6.19077">
        <ele>2026.6</ele>
        <time>2012-05-13T11:32:46Z</time>
      </trkpt>
      <trkpt lat="44.26778" lon="6.19069">
        <ele>2023.71</ele>
        <time>2012-05-13T11:32:57Z</time>
      </trkpt>
      <trkpt lat="44.26782" lon="6.19064">
        <ele>2023.23</ele>
        <time>2012-05-13T11:33:05Z</time>
      </trkpt>
      <trkpt lat="44.26791" lon="6.19053">
        <ele>2022.75</ele>
        <time>2012-05-13T11:33:19Z</time>
      </trkpt>
      <trkpt lat="44.26796" lon="6.19046">
        <ele>2022.27</ele>
        <time>2012-05-13T11:33:27Z</time>
      </trkpt>
      <trkpt lat="44.26803" lon="6.1904">
        <ele>2021.79</ele>
        <time>2012-05-13T11:33:37Z</time>
      </trkpt>
      <trkpt lat="44.26809" lon="6.19039">
        <ele>2022.27</ele>
        <time>2012-05-13T11:33:43Z</time>
      </trkpt>
      <trkpt lat="44.26815" lon="6.19026">
        <ele>2021.31</ele>
        <time>2012-05-13T11:33:58Z</time>
      </trkpt>
      <trkpt lat="44.26817" lon="6.19022">
        <ele>2020.35</ele>
        <time>2012-05-13T11:34:03Z</time>
      </trkpt>
      <trkpt lat="44.26818" lon="6.19014">
        <ele>2018.91</ele>
        <time>2012-05-13T11:34:09Z</time>
      </trkpt>
      <trkpt lat="44.26819" lon="6.19004">
        <ele>2016.02</ele>
        <time>2012-05-13T11:34:16Z</time>
      </trkpt>
      <trkpt lat="44.26816" lon="6.18994">
        <ele>2014.1</ele>
        <time>2012-05-13T11:34:25Z</time>
      </trkpt>
      <trkpt lat="44.26816" lon="6.18991">
        <ele>2015.06</ele>
        <time>2012-05-13T11:34:27Z</time>
      </trkpt>
      <trkpt lat="44.26821" lon="6.18979">
        <ele>2012.66</ele>
        <time>2012-05-13T11:34:39Z</time>
      </trkpt>
      <trkpt lat="44.26827" lon="6.18972">
        <ele>2010.73</ele>
        <time>2012-05-13T11:34:53Z</time>
      </trkpt>
      <trkpt lat="44.26835" lon="6.18959">
        <ele>2007.85</ele>
        <time>2012-05-13T11:35:05Z</time>
      </trkpt>
      <trkpt lat="44.26838" lon="6.18951">
        <ele>2006.41</ele>
        <time>2012-05-13T11:35:13Z</time>
      </trkpt>
      <trkpt lat="44.2684" lon="6.18942">
        <ele>2004.97</ele>
        <time>2012-05-13T11:35:21Z</time>
      </trkpt>
      <trkpt lat="44.26838" lon="6.18938">
        <ele>2004.49</ele>
        <time>2012-05-13T11:35:24Z</time>
      </trkpt>
      <trkpt lat="44.26835" lon="6.18926">
        <ele>2002.56</ele>
        <time>2012-05-13T11:35:33Z</time>
      </trkpt>
      <trkpt lat="44.26838" lon="6.18911">
        <ele>2004.49</ele>
        <time>2012-05-13T11:35:47Z</time>
      </trkpt>
      <trkpt lat="44.2684" lon="6.18896">
        <ele>2002.08</ele>
        <time>2012-05-13T11:36:00Z</time>
      </trkpt>
      <trkpt lat="44.26842" lon="6.18881">
        <ele>2000.16</ele>
        <time>2012-05-13T11:36:11Z</time>
      </trkpt>
      <trkpt lat="44.26842" lon="6.1888">
        <ele>1999.68</ele>
        <time>2012-05-13T11:36:12Z</time>
      </trkpt>
      <trkpt lat="44.26845" lon="6.18858">
        <ele>1998.72</ele>
        <time>2012-05-13T11:36:27Z</time>
      </trkpt>
      <trkpt lat="44.26848" lon="6.18843">
        <ele>1996.32</ele>
        <time>2012-05-13T11:36:38Z</time>
      </trkpt>
      <trkpt lat="44.26853" lon="6.18829">
        <ele>1992.95</ele>
        <time>2012-05-13T11:36:51Z</time>
      </trkpt>
      <trkpt lat="44.26856" lon="6.18822">
        <ele>1991.99</ele>
        <time>2012-05-13T11:36:58Z</time>
      </trkpt>
      <trkpt lat="44.26862" lon="6.18811">
        <ele>1990.55</ele>
        <time>2012-05-13T11:37:09Z</time>
      </trkpt>
      <trkpt lat="44.26863" lon="6.18808">
        <ele>1989.59</ele>
        <time>2012-05-13T11:37:12Z</time>
      </trkpt>
      <trkpt lat="44.26865" lon="6.18793">
        <ele>1986.22</ele>
        <time>2012-05-13T11:37:23Z</time>
      </trkpt>
      <trkpt lat="44.26865" lon="6.18783">
        <ele>1985.74</ele>
        <time>2012-05-13T11:37:31Z</time>
      </trkpt>
      <trkpt lat="44.26865" lon="6.18766">
        <ele>1984.3</ele>
        <time>2012-05-13T11:37:45Z</time>
      </trkpt>
      <trkpt lat="44.26865" lon="6.18766">
        <ele>1982.86</ele>
        <time>2012-05-13T11:37:49Z</time>
      </trkpt>
      <trkpt lat="44.26865" lon="6.18765">
        <ele>1983.82</ele>
        <time>2012-05-13T11:38:14Z</time>
      </trkpt>
      <trkpt lat="44.26867" lon="6.18754">
        <ele>1982.86</ele>
        <time>2012-05-13T11:38:25Z</time>
      </trkpt>
      <trkpt lat="44.26872" lon="6.18741">
        <ele>1979.97</ele>
        <time>2012-05-13T11:38:36Z</time>
      </trkpt>
      <trkpt lat="44.26874" lon="6.18729">
        <ele>1979.97</ele>
        <time>2012-05-13T11:38:45Z</time>
      </trkpt>
      <trkpt lat="44.2688" lon="6.18715">
        <ele>1978.05</ele>
        <time>2012-05-13T11:39:00Z</time>
      </trkpt>
      <trkpt lat="44.26881" lon="6.18714">
        <ele>1977.09</ele>
        <time>2012-05-13T11:39:02Z</time>
      </trkpt>
      <trkpt lat="44.26882" lon="6.18713">
        <ele>1976.61</ele>
        <time>2012-05-13T11:39:04Z</time>
      </trkpt>
      <trkpt lat="44.26886" lon="6.18707">
        <ele>1974.69</ele>
        <time>2012-05-13T11:39:10Z</time>
      </trkpt>
      <trkpt lat="44.26888" lon="6.18703">
        <ele>1972.76</ele>
        <time>2012-05-13T11:39:14Z</time>
      </trkpt>
      <trkpt lat="44.26896" lon="6.18698">
        <ele>1969.4</ele>
        <time>2012-05-13T11:39:24Z</time>
      </trkpt>
      <trkpt lat="44.26901" lon="6.18699">
        <ele>1967.96</ele>
        <time>2012-05-13T11:39:29Z</time>
      </trkpt>
      <trkpt lat="44.26902" lon="6.18698">
        <ele>1966.99</ele>
        <time>2012-05-13T11:39:31Z</time>
      </trkpt>
      <trkpt lat="44.26907" lon="6.18692">
        <ele>1963.63</ele>
        <time>2012-05-13T11:39:38Z</time>
      </trkpt>
      <trkpt lat="44.2691" lon="6.18691">
        <ele>1962.19</ele>
        <time>2012-05-13T11:39:42Z</time>
      </trkpt>
      <trkpt lat="44.26911" lon="6.1869">
        <ele>1961.71</ele>
        <time>2012-05-13T11:39:44Z</time>
      </trkpt>
      <trkpt lat="44.26912" lon="6.18688">
        <ele>1960.75</ele>
        <time>2012-05-13T11:39:46Z</time>
      </trkpt>
      <trkpt lat="44.2692" lon="6.18684">
        <ele>1958.34</ele>
        <time>2012-05-13T11:39:55Z</time>
      </trkpt>
      <trkpt lat="44.26926" lon="6.1868">
        <ele>1954.98</ele>
        <time>2012-05-13T11:40:04Z</time>
      </trkpt>
      <trkpt lat="44.26932" lon="6.18676">
        <ele>1951.61</ele>
        <time>2012-05-13T11:40:13Z</time>
      </trkpt>
      <trkpt lat="44.26933" lon="6.18676">
        <ele>1951.61</ele>
        <time>2012-05-13T11:40:14Z</time>
      </trkpt>
      <trkpt lat="44.26934" lon="6.18675">
        <ele>1951.13</ele>
        <time>2012-05-13T11:40:17Z</time>
      </trkpt>
      <trkpt lat="44.26941" lon="6.18672">
        <ele>1949.21</ele>
        <time>2012-05-13T11:40:25Z</time>
      </trkpt>
      <trkpt lat="44.26948" lon="6.18665">
        <ele>1944.4</ele>
        <time>2012-05-13T11:40:36Z</time>
      </trkpt>
      <trkpt lat="44.26952" lon="6.1866">
        <ele>1943.92</ele>
        <time>2012-05-13T11:40:41Z</time>
      </trkpt>
      <trkpt lat="44.26954" lon="6.18658">
        <ele>1942.48</ele>
        <time>2012-05-13T11:40:46Z</time>
      </trkpt>
      <trkpt lat="44.26956" lon="6.18652">
        <ele>1942</ele>
        <time>2012-05-13T11:40:51Z</time>
      </trkpt>
      <trkpt lat="44.26965" lon="6.18642">
        <ele>1937.67</ele>
        <time>2012-05-13T11:41:03Z</time>
      </trkpt>
      <trkpt lat="44.26971" lon="6.18631">
        <ele>1934.79</ele>
        <time>2012-05-13T11:41:11Z</time>
      </trkpt>
      <trkpt lat="44.26973" lon="6.18629">
        <ele>1933.83</ele>
        <time>2012-05-13T11:41:13Z</time>
      </trkpt>
      <trkpt lat="44.26982" lon="6.18621">
        <ele>1930.95</ele>
        <time>2012-05-13T11:41:26Z</time>
      </trkpt>
      <trkpt lat="44.26991" lon="6.18615">
        <ele>1928.54</ele>
        <time>2012-05-13T11:41:41Z</time>
      </trkpt>
      <trkpt lat="44.26988" lon="6.1861">
        <ele>1926.62</ele>
        <time>2012-05-13T11:41:55Z</time>
      </trkpt>
      <trkpt lat="44.26988" lon="6.18603">
        <ele>1924.22</ele>
        <time>2012-05-13T11:42:08Z</time>
      </trkpt>
      <trkpt lat="44.26988" lon="6.18597">
        <ele>1920.85</ele>
        <time>2012-05-13T11:42:21Z</time>
      </trkpt>
      <trkpt lat="44.26988" lon="6.18592">
        <ele>1918.45</ele>
        <time>2012-05-13T11:42:33Z</time>
      </trkpt>
      <trkpt lat="44.26988" lon="6.18584">
        <ele>1914.6</ele>
        <time>2012-05-13T11:42:47Z</time>
      </trkpt>
      <trkpt lat="44.26992" lon="6.1858">
        <ele>1912.68</ele>
        <time>2012-05-13T11:42:58Z</time>
      </trkpt>
      <trkpt lat="44.26992" lon="6.18574">
        <ele>1909.8</ele>
        <time>2012-05-13T11:43:10Z</time>
      </trkpt>
      <trkpt lat="44.26984" lon="6.18566">
        <ele>1907.39</ele>
        <time>2012-05-13T11:43:23Z</time>
      </trkpt>
      <trkpt lat="44.26984" lon="6.18554">
        <ele>1904.51</ele>
        <time>2012-05-13T11:43:36Z</time>
      </trkpt>
      <trkpt lat="44.26983" lon="6.18545">
        <ele>1903.07</ele>
        <time>2012-05-13T11:43:49Z</time>
      </trkpt>
      <trkpt lat="44.26991" lon="6.18541">
        <ele>1900.18</ele>
        <time>2012-05-13T11:44:01Z</time>
      </trkpt>
      <trkpt lat="44.26995" lon="6.18537">
        <ele>1899.22</ele>
        <time>2012-05-13T11:44:14Z</time>
      </trkpt>
      <trkpt lat="44.26991" lon="6.18531">
        <ele>1896.82</ele>
        <time>2012-05-13T11:44:31Z</time>
      </trkpt>
      <trkpt lat="44.26985" lon="6.18522">
        <ele>1893.93</ele>
        <time>2012-05-13T11:44:44Z</time>
      </trkpt>
      <trkpt lat="44.26983" lon="6.18519">
        <ele>1892.49</ele>
        <time>2012-05-13T11:44:50Z</time>
      </trkpt>
      <trkpt lat="44.26977" lon="6.18511">
        <ele>1890.09</ele>
        <time>2012-05-13T11:45:03Z</time>
      </trkpt>
      <trkpt lat="44.26976" lon="6.18504">
        <ele>1887.69</ele>
        <time>2012-05-13T11:45:15Z</time>
      </trkpt>
      <trkpt lat="44.26979" lon="6.185">
        <ele>1885.28</ele>
        <time>2012-05-13T11:45:23Z</time>
      </trkpt>
      <trkpt lat="44.26979" lon="6.1849">
        <ele>1882.88</ele>
        <time>2012-05-13T11:45:33Z</time>
      </trkpt>
      <trkpt lat="44.26983" lon="6.18481">
        <ele>1880</ele>
        <time>2012-05-13T11:45:44Z</time>
      </trkpt>
      <trkpt lat="44.26981" lon="6.18472">
        <ele>1878.55</ele>
        <time>2012-05-13T11:45:54Z</time>
      </trkpt>
      <trkpt lat="44.26979" lon="6.18465">
        <ele>1876.15</ele>
        <time>2012-05-13T11:46:06Z</time>
      </trkpt>
      <trkpt lat="44.26977" lon="6.1846">
        <ele>1873.27</ele>
        <time>2012-05-13T11:46:16Z</time>
      </trkpt>
      <trkpt lat="44.26977" lon="6.18455">
        <ele>1871.34</ele>
        <time>2012-05-13T11:46:26Z</time>
      </trkpt>
      <trkpt lat="44.26979" lon="6.18445">
        <ele>1868.94</ele>
        <time>2012-05-13T11:46:39Z</time>
      </trkpt>
      <trkpt lat="44.26977" lon="6.18443">
        <ele>1868.46</ele>
        <time>2012-05-13T11:46:42Z</time>
      </trkpt>
      <trkpt lat="44.26976" lon="6.18437">
        <ele>1867.5</ele>
        <time>2012-05-13T11:46:47Z</time>
      </trkpt>
      <trkpt lat="44.26974" lon="6.18429">
        <ele>1864.13</ele>
        <time>2012-05-13T11:47:00Z</time>
      </trkpt>
      <trkpt lat="44.26974" lon="6.18428">
        <ele>1863.17</ele>
        <time>2012-05-13T11:47:04Z</time>
      </trkpt>
      <trkpt lat="44.26978" lon="6.18417">
        <ele>1860.29</ele>
        <time>2012-05-13T11:47:17Z</time>
      </trkpt>
      <trkpt lat="44.26976" lon="6.18411">
        <ele>1858.37</ele>
        <time>2012-05-13T11:47:24Z</time>
      </trkpt>
      <trkpt lat="44.26976" lon="6.18407">
        <ele>1856.92</ele>
        <time>2012-05-13T11:47:29Z</time>
      </trkpt>
      <trkpt lat="44.26974" lon="6.184">
        <ele>1854.52</ele>
        <time>2012-05-13T11:47:35Z</time>
      </trkpt>
      <trkpt lat="44.26973" lon="6.18392">
        <ele>1851.64</ele>
        <time>2012-05-13T11:47:45Z</time>
      </trkpt>
      <trkpt lat="44.26971" lon="6.18381">
        <ele>1848.27</ele>
        <time>2012-05-13T11:47:59Z</time>
      </trkpt>
      <trkpt lat="44.26973" lon="6.18368">
        <ele>1845.39</ele>
        <time>2012-05-13T11:48:12Z</time>
      </trkpt>
      <trkpt lat="44.26973" lon="6.18367">
        <ele>1845.39</ele>
        <time>2012-05-13T11:48:13Z</time>
      </trkpt>
      <trkpt lat="44.26973" lon="6.18352">
        <ele>1843.47</ele>
        <time>2012-05-13T11:48:28Z</time>
      </trkpt>
      <trkpt lat="44.26974" lon="6.18349">
        <ele>1842.5</ele>
        <time>2012-05-13T11:48:31Z</time>
      </trkpt>
      <trkpt lat="44.26973" lon="6.18339">
        <ele>1841.06</ele>
        <time>2012-05-13T11:48:39Z</time>
      </trkpt>
      <trkpt lat="44.26969" lon="6.18318">
        <ele>1838.66</ele>
        <time>2012-05-13T11:48:55Z</time>
      </trkpt>
      <trkpt lat="44.26967" lon="6.18308">
        <ele>1837.22</ele>
        <time>2012-05-13T11:49:04Z</time>
      </trkpt>
      <trkpt lat="44.26967" lon="6.18304">
        <ele>1836.74</ele>
        <time>2012-05-13T11:49:07Z</time>
      </trkpt>
      <trkpt lat="44.26964" lon="6.18287">
        <ele>1835.29</ele>
        <time>2012-05-13T11:49:21Z</time>
      </trkpt>
      <trkpt lat="44.26962" lon="6.18271">
        <ele>1832.41</ele>
        <time>2012-05-13T11:49:36Z</time>
      </trkpt>
      <trkpt lat="44.26961" lon="6.18266">
        <ele>1831.93</ele>
        <time>2012-05-13T11:49:40Z</time>
      </trkpt>
      <trkpt lat="44.2696" lon="6.18262">
        <ele>1830.97</ele>
        <time>2012-05-13T11:49:43Z</time>
      </trkpt>
      <trkpt lat="44.26957" lon="6.18243">
        <ele>1831.93</ele>
        <time>2012-05-13T11:49:58Z</time>
      </trkpt>
      <trkpt lat="44.26954" lon="6.18223">
        <ele>1831.45</ele>
        <time>2012-05-13T11:50:13Z</time>
      </trkpt>
      <trkpt lat="44.26951" lon="6.18207">
        <ele>1832.41</ele>
        <time>2012-05-13T11:50:28Z</time>
      </trkpt>
      <trkpt lat="44.26948" lon="6.18189">
        <ele>1832.89</ele>
        <time>2012-05-13T11:50:45Z</time>
      </trkpt>
      <trkpt lat="44.26945" lon="6.18168">
        <ele>1833.85</ele>
        <time>2012-05-13T11:51:02Z</time>
      </trkpt>
      <trkpt lat="44.26939" lon="6.18147">
        <ele>1834.33</ele>
        <time>2012-05-13T11:51:19Z</time>
      </trkpt>
      <trkpt lat="44.26936" lon="6.18131">
        <ele>1835.29</ele>
        <time>2012-05-13T11:51:33Z</time>
      </trkpt>
      <trkpt lat="44.26934" lon="6.1812">
        <ele>1835.77</ele>
        <time>2012-05-13T11:51:44Z</time>
      </trkpt>
      <trkpt lat="44.26933" lon="6.18109">
        <ele>1836.26</ele>
        <time>2012-05-13T11:51:53Z</time>
      </trkpt>
      <trkpt lat="44.26933" lon="6.18092">
        <ele>1837.7</ele>
        <time>2012-05-13T11:52:09Z</time>
      </trkpt>
      <trkpt lat="44.2693" lon="6.18076">
        <ele>1838.66</ele>
        <time>2012-05-13T11:52:25Z</time>
      </trkpt>
      <trkpt lat="44.26927" lon="6.18065">
        <ele>1838.66</ele>
        <time>2012-05-13T11:52:34Z</time>
      </trkpt>
      <trkpt lat="44.26928" lon="6.18046">
        <ele>1839.14</ele>
        <time>2012-05-13T11:52:49Z</time>
      </trkpt>
      <trkpt lat="44.26928" lon="6.18043">
        <ele>1839.14</ele>
        <time>2012-05-13T11:52:51Z</time>
      </trkpt>
      <trkpt lat="44.26927" lon="6.18029">
        <ele>1838.66</ele>
        <time>2012-05-13T11:53:02Z</time>
      </trkpt>
      <trkpt lat="44.26922" lon="6.18012">
        <ele>1837.22</ele>
        <time>2012-05-13T11:53:14Z</time>
      </trkpt>
      <trkpt lat="44.26922" lon="6.17994">
        <ele>1838.18</ele>
        <time>2012-05-13T11:53:29Z</time>
      </trkpt>
      <trkpt lat="44.26919" lon="6.17981">
        <ele>1838.18</ele>
        <time>2012-05-13T11:53:42Z</time>
      </trkpt>
      <trkpt lat="44.26918" lon="6.17978">
        <ele>1837.7</ele>
        <time>2012-05-13T11:53:44Z</time>
      </trkpt>
      <trkpt lat="44.26917" lon="6.17976">
        <ele>1837.22</ele>
        <time>2012-05-13T11:53:46Z</time>
      </trkpt>
      <trkpt lat="44.26914" lon="6.17957">
        <ele>1836.74</ele>
        <time>2012-05-13T11:54:01Z</time>
      </trkpt>
      <trkpt lat="44.2691" lon="6.17938">
        <ele>1837.22</ele>
        <time>2012-05-13T11:54:16Z</time>
      </trkpt>
      <trkpt lat="44.26907" lon="6.1792">
        <ele>1836.74</ele>
        <time>2012-05-13T11:54:32Z</time>
      </trkpt>
      <trkpt lat="44.26905" lon="6.17913">
        <ele>1837.22</ele>
        <time>2012-05-13T11:54:38Z</time>
      </trkpt>
      <trkpt lat="44.26902" lon="6.17895">
        <ele>1836.26</ele>
        <time>2012-05-13T11:54:54Z</time>
      </trkpt>
      <trkpt lat="44.26902" lon="6.17877">
        <ele>1837.7</ele>
        <time>2012-05-13T11:55:08Z</time>
      </trkpt>
      <trkpt lat="44.26901" lon="6.17856">
        <ele>1836.74</ele>
        <time>2012-05-13T11:55:24Z</time>
      </trkpt>
      <trkpt lat="44.26898" lon="6.17837">
        <ele>1835.29</ele>
        <time>2012-05-13T11:55:40Z</time>
      </trkpt>
      <trkpt lat="44.26899" lon="6.17815">
        <ele>1834.33</ele>
        <time>2012-05-13T11:55:57Z</time>
      </trkpt>
      <trkpt lat="44.26899" lon="6.17807">
        <ele>1834.33</ele>
        <time>2012-05-13T11:56:04Z</time>
      </trkpt>
      <trkpt lat="44.26896" lon="6.17785">
        <ele>1832.41</ele>
        <time>2012-05-13T11:56:20Z</time>
      </trkpt>
      <trkpt lat="44.26896" lon="6.17767">
        <ele>1831.45</ele>
        <time>2012-05-13T11:56:33Z</time>
      </trkpt>
      <trkpt lat="44.26896" lon="6.17746">
        <ele>1830.01</ele>
        <time>2012-05-13T11:56:49Z</time>
      </trkpt>
      <trkpt lat="44.26896" lon="6.17739">
        <ele>1828.56</ele>
        <time>2012-05-13T11:56:55Z</time>
      </trkpt>
      <trkpt lat="44.26894" lon="6.17735">
        <ele>1828.56</ele>
        <time>2012-05-13T11:56:58Z</time>
      </trkpt>
      <trkpt lat="44.26891" lon="6.17725">
        <ele>1827.6</ele>
        <time>2012-05-13T11:57:05Z</time>
      </trkpt>
      <trkpt lat="44.26893" lon="6.17706">
        <ele>1828.08</ele>
        <time>2012-05-13T11:57:22Z</time>
      </trkpt>
      <trkpt lat="44.26893" lon="6.177">
        <ele>1827.6</ele>
        <time>2012-05-13T11:57:27Z</time>
      </trkpt>
      <trkpt lat="44.26895" lon="6.1769">
        <ele>1827.6</ele>
        <time>2012-05-13T11:57:35Z</time>
      </trkpt>
      <trkpt lat="44.26897" lon="6.17676">
        <ele>1826.64</ele>
        <time>2012-05-13T11:57:47Z</time>
      </trkpt>
      <trkpt lat="44.26895" lon="6.17658">
        <ele>1825.68</ele>
        <time>2012-05-13T11:57:59Z</time>
      </trkpt>
      <trkpt lat="44.26894" lon="6.17641">
        <ele>1824.72</ele>
        <time>2012-05-13T11:58:11Z</time>
      </trkpt>
      <trkpt lat="44.26897" lon="6.1762">
        <ele>1823.28</ele>
        <time>2012-05-13T11:58:26Z</time>
      </trkpt>
      <trkpt lat="44.26899" lon="6.17603">
        <ele>1821.84</ele>
        <time>2012-05-13T11:58:40Z</time>
      </trkpt>
      <trkpt lat="44.26901" lon="6.1759">
        <ele>1820.87</ele>
        <time>2012-05-13T11:58:49Z</time>
      </trkpt>
      <trkpt lat="44.26898" lon="6.17572">
        <ele>1819.43</ele>
        <time>2012-05-13T11:59:03Z</time>
      </trkpt>
      <trkpt lat="44.26896" lon="6.17552">
        <ele>1818.95</ele>
        <time>2012-05-13T11:59:18Z</time>
      </trkpt>
      <trkpt lat="44.26894" lon="6.1753">
        <ele>1817.99</ele>
        <time>2012-05-13T11:59:33Z</time>
      </trkpt>
      <trkpt lat="44.26895" lon="6.17508">
        <ele>1816.07</ele>
        <time>2012-05-13T11:59:49Z</time>
      </trkpt>
      <trkpt lat="44.26894" lon="6.17487">
        <ele>1814.63</ele>
        <time>2012-05-13T12:00:05Z</time>
      </trkpt>
      <trkpt lat="44.26893" lon="6.17468">
        <ele>1812.7</ele>
        <time>2012-05-13T12:00:19Z</time>
      </trkpt>
      <trkpt lat="44.26894" lon="6.17447">
        <ele>1810.3</ele>
        <time>2012-05-13T12:00:34Z</time>
      </trkpt>
      <trkpt lat="44.26896" lon="6.17423">
        <ele>1807.9</ele>
        <time>2012-05-13T12:00:51Z</time>
      </trkpt>
      <trkpt lat="44.26901" lon="6.17403">
        <ele>1805.97</ele>
        <time>2012-05-13T12:01:07Z</time>
      </trkpt>
      <trkpt lat="44.26905" lon="6.17384">
        <ele>1803.57</ele>
        <time>2012-05-13T12:01:21Z</time>
      </trkpt>
      <trkpt lat="44.26908" lon="6.17367">
        <ele>1802.61</ele>
        <time>2012-05-13T12:01:33Z</time>
      </trkpt>
      <trkpt lat="44.26909" lon="6.17354">
        <ele>1802.13</ele>
        <time>2012-05-13T12:01:42Z</time>
      </trkpt>
      <trkpt lat="44.2691" lon="6.17333">
        <ele>1802.61</ele>
        <time>2012-05-13T12:01:59Z</time>
      </trkpt>
      <trkpt lat="44.26912" lon="6.17318">
        <ele>1805.01</ele>
        <time>2012-05-13T12:02:15Z</time>
      </trkpt>
      <trkpt lat="44.26912" lon="6.17314">
        <ele>1804.05</ele>
        <time>2012-05-13T12:02:26Z</time>
      </trkpt>
      <trkpt lat="44.26916" lon="6.17309">
        <ele>1801.17</ele>
        <time>2012-05-13T12:02:37Z</time>
      </trkpt>
      <trkpt lat="44.26918" lon="6.17304">
        <ele>1801.17</ele>
        <time>2012-05-13T12:02:48Z</time>
      </trkpt>
      <trkpt lat="44.26926" lon="6.17287">
        <ele>1800.21</ele>
        <time>2012-05-13T12:03:03Z</time>
      </trkpt>
      <trkpt lat="44.26928" lon="6.17284">
        <ele>1800.21</ele>
        <time>2012-05-13T12:03:06Z</time>
      </trkpt>
      <trkpt lat="44.2693" lon="6.17278">
        <ele>1799.73</ele>
        <time>2012-05-13T12:03:12Z</time>
      </trkpt>
      <trkpt lat="44.2693" lon="6.17265">
        <ele>1797.32</ele>
        <time>2012-05-13T12:03:23Z</time>
      </trkpt>
      <trkpt lat="44.26931" lon="6.1726">
        <ele>1797.32</ele>
        <time>2012-05-13T12:03:27Z</time>
      </trkpt>
      <trkpt lat="44.26938" lon="6.17238">
        <ele>1797.32</ele>
        <time>2012-05-13T12:03:44Z</time>
      </trkpt>
      <trkpt lat="44.26938" lon="6.17236">
        <ele>1797.8</ele>
        <time>2012-05-13T12:03:46Z</time>
      </trkpt>
      <trkpt lat="44.26942" lon="6.17224">
        <ele>1800.21</ele>
        <time>2012-05-13T12:03:56Z</time>
      </trkpt>
      <trkpt lat="44.26944" lon="6.17214">
        <ele>1799.73</ele>
        <time>2012-05-13T12:04:04Z</time>
      </trkpt>
      <trkpt lat="44.26944" lon="6.17206">
        <ele>1800.21</ele>
        <time>2012-05-13T12:04:11Z</time>
      </trkpt>
      <trkpt lat="44.26947" lon="6.17184">
        <ele>1801.17</ele>
        <time>2012-05-13T12:04:27Z</time>
      </trkpt>
      <trkpt lat="44.26949" lon="6.17164">
        <ele>1801.65</ele>
        <time>2012-05-13T12:04:42Z</time>
      </trkpt>
      <trkpt lat="44.26951" lon="6.17153">
        <ele>1800.69</ele>
        <time>2012-05-13T12:04:52Z</time>
      </trkpt>
      <trkpt lat="44.26951" lon="6.17144">
        <ele>1799.24</ele>
        <time>2012-05-13T12:04:58Z</time>
      </trkpt>
      <trkpt lat="44.26949" lon="6.17138">
        <ele>1799.24</ele>
        <time>2012-05-13T12:05:02Z</time>
      </trkpt>
      <trkpt lat="44.2695" lon="6.17135">
        <ele>1798.76</ele>
        <time>2012-05-13T12:05:05Z</time>
      </trkpt>
      <trkpt lat="44.26952" lon="6.17125">
        <ele>1797.8</ele>
        <time>2012-05-13T12:05:14Z</time>
      </trkpt>
      <trkpt lat="44.26951" lon="6.17105">
        <ele>1795.4</ele>
        <time>2012-05-13T12:05:31Z</time>
      </trkpt>
      <trkpt lat="44.26951" lon="6.17104">
        <ele>1795.4</ele>
        <time>2012-05-13T12:05:32Z</time>
      </trkpt>
      <trkpt lat="44.26951" lon="6.1709">
        <ele>1793</ele>
        <time>2012-05-13T12:05:44Z</time>
      </trkpt>
      <trkpt lat="44.26952" lon="6.17081">
        <ele>1790.59</ele>
        <time>2012-05-13T12:05:51Z</time>
      </trkpt>
      <trkpt lat="44.26953" lon="6.1707">
        <ele>1788.67</ele>
        <time>2012-05-13T12:06:01Z</time>
      </trkpt>
      <trkpt lat="44.26954" lon="6.17051">
        <ele>1785.79</ele>
        <time>2012-05-13T12:06:15Z</time>
      </trkpt>
      <trkpt lat="44.26954" lon="6.17044">
        <ele>1784.34</ele>
        <time>2012-05-13T12:06:21Z</time>
      </trkpt>
      <trkpt lat="44.26955" lon="6.17037">
        <ele>1782.42</ele>
        <time>2012-05-13T12:06:26Z</time>
      </trkpt>
      <trkpt lat="44.26955" lon="6.17031">
        <ele>1781.94</ele>
        <time>2012-05-13T12:06:30Z</time>
      </trkpt>
      <trkpt lat="44.26956" lon="6.17023">
        <ele>1780.5</ele>
        <time>2012-05-13T12:06:36Z</time>
      </trkpt>
      <trkpt lat="44.26958" lon="6.1701">
        <ele>1778.58</ele>
        <time>2012-05-13T12:06:45Z</time>
      </trkpt>
      <trkpt lat="44.26959" lon="6.17002">
        <ele>1777.61</ele>
        <time>2012-05-13T12:06:52Z</time>
      </trkpt>
      <trkpt lat="44.26962" lon="6.16997">
        <ele>1777.13</ele>
        <time>2012-05-13T12:06:59Z</time>
      </trkpt>
      <trkpt lat="44.26964" lon="6.1699">
        <ele>1774.73</ele>
        <time>2012-05-13T12:07:05Z</time>
      </trkpt>
      <trkpt lat="44.26967" lon="6.16978">
        <ele>1773.77</ele>
        <time>2012-05-13T12:07:19Z</time>
      </trkpt>
      <trkpt lat="44.26967" lon="6.16976">
        <ele>1772.33</ele>
        <time>2012-05-13T12:07:21Z</time>
      </trkpt>
      <trkpt lat="44.26968" lon="6.16962">
        <ele>1768.96</ele>
        <time>2012-05-13T12:07:34Z</time>
      </trkpt>
      <trkpt lat="44.26968" lon="6.16961">
        <ele>1768.96</ele>
        <time>2012-05-13T12:07:35Z</time>
      </trkpt>
      <trkpt lat="44.26968" lon="6.16949">
        <ele>1765.12</ele>
        <time>2012-05-13T12:07:49Z</time>
      </trkpt>
      <trkpt lat="44.26971" lon="6.16936">
        <ele>1763.2</ele>
        <time>2012-05-13T12:08:00Z</time>
      </trkpt>
      <trkpt lat="44.26971" lon="6.16918">
        <ele>1763.68</ele>
        <time>2012-05-13T12:08:14Z</time>
      </trkpt>
      <trkpt lat="44.26972" lon="6.16911">
        <ele>1764.64</ele>
        <time>2012-05-13T12:08:20Z</time>
      </trkpt>
      <trkpt lat="44.26973" lon="6.16906">
        <ele>1763.2</ele>
        <time>2012-05-13T12:08:24Z</time>
      </trkpt>
      <trkpt lat="44.26974" lon="6.1689">
        <ele>1763.2</ele>
        <time>2012-05-13T12:08:39Z</time>
      </trkpt>
      <trkpt lat="44.26974" lon="6.16889">
        <ele>1763.2</ele>
        <time>2012-05-13T12:08:40Z</time>
      </trkpt>
      <trkpt lat="44.26973" lon="6.16884">
        <ele>1759.35</ele>
        <time>2012-05-13T12:08:44Z</time>
      </trkpt>
      <trkpt lat="44.26974" lon="6.16883">
        <ele>1763.68</ele>
        <time>2012-05-13T12:08:45Z</time>
      </trkpt>
      <trkpt lat="44.26975" lon="6.16873">
        <ele>1758.87</ele>
        <time>2012-05-13T12:08:53Z</time>
      </trkpt>
      <trkpt lat="44.26975" lon="6.16872">
        <ele>1763.68</ele>
        <time>2012-05-13T12:08:54Z</time>
      </trkpt>
      <trkpt lat="44.26976" lon="6.16871">
        <ele>1759.83</ele>
        <time>2012-05-13T12:08:55Z</time>
      </trkpt>
      <trkpt lat="44.26976" lon="6.16867">
        <ele>1762.23</ele>
        <time>2012-05-13T12:08:58Z</time>
      </trkpt>
      <trkpt lat="44.26977" lon="6.1686">
        <ele>1759.35</ele>
        <time>2012-05-13T12:09:05Z</time>
      </trkpt>
      <trkpt lat="44.26978" lon="6.16841">
        <ele>1757.91</ele>
        <time>2012-05-13T12:09:19Z</time>
      </trkpt>
      <trkpt lat="44.2698" lon="6.16837">
        <ele>1757.43</ele>
        <time>2012-05-13T12:09:22Z</time>
      </trkpt>
      <trkpt lat="44.26981" lon="6.16821">
        <ele>1756.95</ele>
        <time>2012-05-13T12:09:33Z</time>
      </trkpt>
      <trkpt lat="44.26984" lon="6.16798">
        <ele>1755.99</ele>
        <time>2012-05-13T12:09:49Z</time>
      </trkpt>
      <trkpt lat="44.26984" lon="6.16787">
        <ele>1754.54</ele>
        <time>2012-05-13T12:09:57Z</time>
      </trkpt>
      <trkpt lat="44.26984" lon="6.16764">
        <ele>1753.58</ele>
        <time>2012-05-13T12:10:13Z</time>
      </trkpt>
      <trkpt lat="44.26984" lon="6.16739">
        <ele>1752.62</ele>
        <time>2012-05-13T12:10:30Z</time>
      </trkpt>
      <trkpt lat="44.26984" lon="6.16716">
        <ele>1752.62</ele>
        <time>2012-05-13T12:10:45Z</time>
      </trkpt>
      <trkpt lat="44.26983" lon="6.1671">
        <ele>1752.62</ele>
        <time>2012-05-13T12:10:49Z</time>
      </trkpt>
      <trkpt lat="44.26982" lon="6.16696">
        <ele>1750.22</ele>
        <time>2012-05-13T12:10:59Z</time>
      </trkpt>
      <trkpt lat="44.26982" lon="6.16694">
        <ele>1750.22</ele>
        <time>2012-05-13T12:11:00Z</time>
      </trkpt>
      <trkpt lat="44.26979" lon="6.16672">
        <ele>1747.81</ele>
        <time>2012-05-13T12:11:15Z</time>
      </trkpt>
      <trkpt lat="44.26975" lon="6.16651">
        <ele>1748.78</ele>
        <time>2012-05-13T12:11:31Z</time>
      </trkpt>
      <trkpt lat="44.26975" lon="6.16648">
        <ele>1747.33</ele>
        <time>2012-05-13T12:11:33Z</time>
      </trkpt>
      <trkpt lat="44.26974" lon="6.16623">
        <ele>1748.78</ele>
        <time>2012-05-13T12:11:51Z</time>
      </trkpt>
      <trkpt lat="44.26972" lon="6.16609">
        <ele>1750.22</ele>
        <time>2012-05-13T12:12:05Z</time>
      </trkpt>
      <trkpt lat="44.26974" lon="6.16591">
        <ele>1751.18</ele>
        <time>2012-05-13T12:12:19Z</time>
      </trkpt>
      <trkpt lat="44.26978" lon="6.16573">
        <ele>1753.1</ele>
        <time>2012-05-13T12:12:36Z</time>
      </trkpt>
      <trkpt lat="44.26978" lon="6.16563">
        <ele>1753.58</ele>
        <time>2012-05-13T12:12:45Z</time>
      </trkpt>
      <trkpt lat="44.26978" lon="6.16558">
        <ele>1753.58</ele>
        <time>2012-05-13T12:12:49Z</time>
      </trkpt>
      <trkpt lat="44.26973" lon="6.16536">
        <ele>1753.58</ele>
        <time>2012-05-13T12:13:05Z</time>
      </trkpt>
      <trkpt lat="44.26971" lon="6.16522">
        <ele>1753.58</ele>
        <time>2012-05-13T12:13:17Z</time>
      </trkpt>
      <trkpt lat="44.26971" lon="6.1652">
        <ele>1753.58</ele>
        <time>2012-05-13T12:13:20Z</time>
      </trkpt>
      <trkpt lat="44.26972" lon="6.16505">
        <ele>1754.54</ele>
        <time>2012-05-13T12:13:33Z</time>
      </trkpt>
      <trkpt lat="44.26971" lon="6.16484">
        <ele>1755.5</ele>
        <time>2012-05-13T12:13:48Z</time>
      </trkpt>
      <trkpt lat="44.26971" lon="6.16467">
        <ele>1756.47</ele>
        <time>2012-05-13T12:14:01Z</time>
      </trkpt>
      <trkpt lat="44.26971" lon="6.1645">
        <ele>1757.91</ele>
        <time>2012-05-13T12:14:15Z</time>
      </trkpt>
      <trkpt lat="44.26972" lon="6.16434">
        <ele>1758.87</ele>
        <time>2012-05-13T12:14:29Z</time>
      </trkpt>
      <trkpt lat="44.26973" lon="6.16422">
        <ele>1760.31</ele>
        <time>2012-05-13T12:14:40Z</time>
      </trkpt>
      <trkpt lat="44.26971" lon="6.16408">
        <ele>1761.75</ele>
        <time>2012-05-13T12:14:53Z</time>
      </trkpt>
      <trkpt lat="44.26973" lon="6.16392">
        <ele>1762.23</ele>
        <time>2012-05-13T12:15:06Z</time>
      </trkpt>
      <trkpt lat="44.26973" lon="6.16372">
        <ele>1763.2</ele>
        <time>2012-05-13T12:15:22Z</time>
      </trkpt>
      <trkpt lat="44.26968" lon="6.16354">
        <ele>1763.2</ele>
        <time>2012-05-13T12:15:35Z</time>
      </trkpt>
      <trkpt lat="44.26965" lon="6.1634">
        <ele>1763.2</ele>
        <time>2012-05-13T12:15:45Z</time>
      </trkpt>
      <trkpt lat="44.26964" lon="6.16337">
        <ele>1762.71</ele>
        <time>2012-05-13T12:15:47Z</time>
      </trkpt>
      <trkpt lat="44.26963" lon="6.16332">
        <ele>1762.71</ele>
        <time>2012-05-13T12:15:51Z</time>
      </trkpt>
      <trkpt lat="44.26961" lon="6.1631">
        <ele>1761.75</ele>
        <time>2012-05-13T12:16:06Z</time>
      </trkpt>
      <trkpt lat="44.26958" lon="6.16302">
        <ele>1761.75</ele>
        <time>2012-05-13T12:16:13Z</time>
      </trkpt>
      <trkpt lat="44.2695" lon="6.16288">
        <ele>1760.31</ele>
        <time>2012-05-13T12:16:25Z</time>
      </trkpt>
      <trkpt lat="44.26948" lon="6.16278">
        <ele>1758.87</ele>
        <time>2012-05-13T12:16:31Z</time>
      </trkpt>
      <trkpt lat="44.26949" lon="6.16256">
        <ele>1757.91</ele>
        <time>2012-05-13T12:16:47Z</time>
      </trkpt>
      <trkpt lat="44.26948" lon="6.16255">
        <ele>1757.91</ele>
        <time>2012-05-13T12:16:48Z</time>
      </trkpt>
      <trkpt lat="44.26946" lon="6.16246">
        <ele>1759.35</ele>
        <time>2012-05-13T12:16:55Z</time>
      </trkpt>
      <trkpt lat="44.26947" lon="6.16238">
        <ele>1758.87</ele>
        <time>2012-05-13T12:17:02Z</time>
      </trkpt>
      <trkpt lat="44.26944" lon="6.16218">
        <ele>1758.39</ele>
        <time>2012-05-13T12:17:17Z</time>
      </trkpt>
      <trkpt lat="44.2694" lon="6.16198">
        <ele>1759.83</ele>
        <time>2012-05-13T12:17:32Z</time>
      </trkpt>
      <trkpt lat="44.26936" lon="6.16176">
        <ele>1760.31</ele>
        <time>2012-05-13T12:17:49Z</time>
      </trkpt>
      <trkpt lat="44.26935" lon="6.16167">
        <ele>1761.75</ele>
        <time>2012-05-13T12:17:57Z</time>
      </trkpt>
      <trkpt lat="44.26931" lon="6.16153">
        <ele>1762.23</ele>
        <time>2012-05-13T12:18:09Z</time>
      </trkpt>
      <trkpt lat="44.26931" lon="6.16136">
        <ele>1764.64</ele>
        <time>2012-05-13T12:18:23Z</time>
      </trkpt>
      <trkpt lat="44.26931" lon="6.16121">
        <ele>1764.64</ele>
        <time>2012-05-13T12:18:36Z</time>
      </trkpt>
      <trkpt lat="44.26932" lon="6.16103">
        <ele>1766.56</ele>
        <time>2012-05-13T12:18:51Z</time>
      </trkpt>
      <trkpt lat="44.26932" lon="6.16098">
        <ele>1767.52</ele>
        <time>2012-05-13T12:18:55Z</time>
      </trkpt>
      <trkpt lat="44.26934" lon="6.16082">
        <ele>1767.52</ele>
        <time>2012-05-13T12:19:08Z</time>
      </trkpt>
      <trkpt lat="44.26938" lon="6.1607">
        <ele>1769.92</ele>
        <time>2012-05-13T12:19:20Z</time>
      </trkpt>
      <trkpt lat="44.26939" lon="6.16055">
        <ele>1771.85</ele>
        <time>2012-05-13T12:19:36Z</time>
      </trkpt>
      <trkpt lat="44.2694" lon="6.16041">
        <ele>1774.25</ele>
        <time>2012-05-13T12:19:52Z</time>
      </trkpt>
      <trkpt lat="44.26943" lon="6.16031">
        <ele>1775.21</ele>
        <time>2012-05-13T12:20:04Z</time>
      </trkpt>
      <trkpt lat="44.26946" lon="6.16018">
        <ele>1778.1</ele>
        <time>2012-05-13T12:20:18Z</time>
      </trkpt>
      <trkpt lat="44.26949" lon="6.16007">
        <ele>1780.02</ele>
        <time>2012-05-13T12:20:32Z</time>
      </trkpt>
      <trkpt lat="44.26952" lon="6.16003">
        <ele>1782.9</ele>
        <time>2012-05-13T12:20:44Z</time>
      </trkpt>
      <trkpt lat="44.26954" lon="6.16">
        <ele>1783.38</ele>
        <time>2012-05-13T12:20:49Z</time>
      </trkpt>
      <trkpt lat="44.26957" lon="6.15985">
        <ele>1783.86</ele>
        <time>2012-05-13T12:21:03Z</time>
      </trkpt>
      <trkpt lat="44.26955" lon="6.15969">
        <ele>1783.86</ele>
        <time>2012-05-13T12:21:17Z</time>
      </trkpt>
      <trkpt lat="44.26954" lon="6.15956">
        <ele>1786.75</ele>
        <time>2012-05-13T12:21:31Z</time>
      </trkpt>
      <trkpt lat="44.26951" lon="6.15941">
        <ele>1787.23</ele>
        <time>2012-05-13T12:21:45Z</time>
      </trkpt>
      <trkpt lat="44.26954" lon="6.15928">
        <ele>1788.67</ele>
        <time>2012-05-13T12:22:00Z</time>
      </trkpt>
      <trkpt lat="44.26954" lon="6.15909">
        <ele>1787.71</ele>
        <time>2012-05-13T12:22:14Z</time>
      </trkpt>
      <trkpt lat="44.26955" lon="6.15898">
        <ele>1787.23</ele>
        <time>2012-05-13T12:22:23Z</time>
      </trkpt>
      <trkpt lat="44.26958" lon="6.15877">
        <ele>1785.79</ele>
        <time>2012-05-13T12:22:39Z</time>
      </trkpt>
      <trkpt lat="44.26959" lon="6.15861">
        <ele>1785.31</ele>
        <time>2012-05-13T12:22:51Z</time>
      </trkpt>
      <trkpt lat="44.26957" lon="6.15839">
        <ele>1785.31</ele>
        <time>2012-05-13T12:23:09Z</time>
      </trkpt>
      <trkpt lat="44.26955" lon="6.15823">
        <ele>1783.38</ele>
        <time>2012-05-13T12:23:24Z</time>
      </trkpt>
      <trkpt lat="44.26954" lon="6.15804">
        <ele>1780.02</ele>
        <time>2012-05-13T12:23:41Z</time>
      </trkpt>
      <trkpt lat="44.26954" lon="6.15803">
        <ele>1780.5</ele>
        <time>2012-05-13T12:23:42Z</time>
      </trkpt>
      <trkpt lat="44.26954" lon="6.15795">
        <ele>1778.58</ele>
        <time>2012-05-13T12:23:47Z</time>
      </trkpt>
      <trkpt lat="44.26951" lon="6.15777">
        <ele>1777.13</ele>
        <time>2012-05-13T12:24:02Z</time>
      </trkpt>
      <trkpt lat="44.26949" lon="6.15765">
        <ele>1776.65</ele>
        <time>2012-05-13T12:24:12Z</time>
      </trkpt>
      <trkpt lat="44.26947" lon="6.15761">
        <ele>1776.65</ele>
        <time>2012-05-13T12:24:16Z</time>
      </trkpt>
      <trkpt lat="44.26948" lon="6.15754">
        <ele>1775.69</ele>
        <time>2012-05-13T12:24:21Z</time>
      </trkpt>
      <trkpt lat="44.26945" lon="6.15728">
        <ele>1774.73</ele>
        <time>2012-05-13T12:24:39Z</time>
      </trkpt>
      <trkpt lat="44.26944" lon="6.15707">
        <ele>1772.81</ele>
        <time>2012-05-13T12:24:56Z</time>
      </trkpt>
      <trkpt lat="44.26942" lon="6.15687">
        <ele>1771.85</ele>
        <time>2012-05-13T12:25:10Z</time>
      </trkpt>
      <trkpt lat="44.26941" lon="6.15667">
        <ele>1769.44</ele>
        <time>2012-05-13T12:25:26Z</time>
      </trkpt>
      <trkpt lat="44.26939" lon="6.15656">
        <ele>1767.52</ele>
        <time>2012-05-13T12:25:34Z</time>
      </trkpt>
      <trkpt lat="44.26939" lon="6.15651">
        <ele>1767.52</ele>
        <time>2012-05-13T12:25:38Z</time>
      </trkpt>
      <trkpt lat="44.26934" lon="6.15633">
        <ele>1768.48</ele>
        <time>2012-05-13T12:25:53Z</time>
      </trkpt>
      <trkpt lat="44.26934" lon="6.15615">
        <ele>1768.96</ele>
        <time>2012-05-13T12:26:08Z</time>
      </trkpt>
      <trkpt lat="44.26934" lon="6.15612">
        <ele>1768.48</ele>
        <time>2012-05-13T12:26:10Z</time>
      </trkpt>
      <trkpt lat="44.26932" lon="6.15602">
        <ele>1766.56</ele>
        <time>2012-05-13T12:26:20Z</time>
      </trkpt>
      <trkpt lat="44.26927" lon="6.15597">
        <ele>1763.68</ele>
        <time>2012-05-13T12:26:32Z</time>
      </trkpt>
      <trkpt lat="44.26928" lon="6.15595">
        <ele>1763.2</ele>
        <time>2012-05-13T12:26:33Z</time>
      </trkpt>
      <trkpt lat="44.26925" lon="6.15587">
        <ele>1760.79</ele>
        <time>2012-05-13T12:26:45Z</time>
      </trkpt>
      <trkpt lat="44.26925" lon="6.15585">
        <ele>1760.31</ele>
        <time>2012-05-13T12:26:46Z</time>
      </trkpt>
      <trkpt lat="44.26929" lon="6.1558">
        <ele>1758.39</ele>
        <time>2012-05-13T12:26:55Z</time>
      </trkpt>
      <trkpt lat="44.26931" lon="6.15572">
        <ele>1756.95</ele>
        <time>2012-05-13T12:27:03Z</time>
      </trkpt>
      <trkpt lat="44.2692" lon="6.15553">
        <ele>1752.62</ele>
        <time>2012-05-13T12:27:18Z</time>
      </trkpt>
      <trkpt lat="44.2692" lon="6.15552">
        <ele>1752.62</ele>
        <time>2012-05-13T12:27:19Z</time>
      </trkpt>
      <trkpt lat="44.26911" lon="6.15548">
        <ele>1749.74</ele>
        <time>2012-05-13T12:27:28Z</time>
      </trkpt>
      <trkpt lat="44.2691" lon="6.15548">
        <ele>1749.74</ele>
        <time>2012-05-13T12:27:29Z</time>
      </trkpt>
      <trkpt lat="44.26904" lon="6.15534">
        <ele>1746.37</ele>
        <time>2012-05-13T12:27:42Z</time>
      </trkpt>
      <trkpt lat="44.26904" lon="6.15528">
        <ele>1745.41</ele>
        <time>2012-05-13T12:27:48Z</time>
      </trkpt>
      <trkpt lat="44.26903" lon="6.15525">
        <ele>1744.93</ele>
        <time>2012-05-13T12:27:51Z</time>
      </trkpt>
      <trkpt lat="44.26902" lon="6.15522">
        <ele>1744.93</ele>
        <time>2012-05-13T12:27:53Z</time>
      </trkpt>
      <trkpt lat="44.26899" lon="6.1551">
        <ele>1743.49</ele>
        <time>2012-05-13T12:28:04Z</time>
      </trkpt>
      <trkpt lat="44.26895" lon="6.15497">
        <ele>1743.01</ele>
        <time>2012-05-13T12:28:14Z</time>
      </trkpt>
      <trkpt lat="44.26893" lon="6.1548">
        <ele>1742.05</ele>
        <time>2012-05-13T12:28:29Z</time>
      </trkpt>
      <trkpt lat="44.26891" lon="6.15477">
        <ele>1742.05</ele>
        <time>2012-05-13T12:28:33Z</time>
      </trkpt>
      <trkpt lat="44.26887" lon="6.15473">
        <ele>1740.12</ele>
        <time>2012-05-13T12:28:38Z</time>
      </trkpt>
      <trkpt lat="44.2688" lon="6.15453">
        <ele>1742.05</ele>
        <time>2012-05-13T12:28:54Z</time>
      </trkpt>
      <trkpt lat="44.26874" lon="6.15431">
        <ele>1740.12</ele>
        <time>2012-05-13T12:29:10Z</time>
      </trkpt>
      <trkpt lat="44.26872" lon="6.15417">
        <ele>1740.12</ele>
        <time>2012-05-13T12:29:21Z</time>
      </trkpt>
      <trkpt lat="44.26872" lon="6.15412">
        <ele>1739.64</ele>
        <time>2012-05-13T12:29:25Z</time>
      </trkpt>
      <trkpt lat="44.26868" lon="6.15391">
        <ele>1740.6</ele>
        <time>2012-05-13T12:29:41Z</time>
      </trkpt>
      <trkpt lat="44.26868" lon="6.15373">
        <ele>1742.05</ele>
        <time>2012-05-13T12:29:55Z</time>
      </trkpt>
      <trkpt lat="44.26866" lon="6.15348">
        <ele>1743.49</ele>
        <time>2012-05-13T12:30:13Z</time>
      </trkpt>
      <trkpt lat="44.26867" lon="6.15344">
        <ele>1744.45</ele>
        <time>2012-05-13T12:30:16Z</time>
      </trkpt>
      <trkpt lat="44.26867" lon="6.15325">
        <ele>1744.93</ele>
        <time>2012-05-13T12:30:32Z</time>
      </trkpt>
      <trkpt lat="44.26868" lon="6.15319">
        <ele>1744.93</ele>
        <time>2012-05-13T12:30:37Z</time>
      </trkpt>
      <trkpt lat="44.26867" lon="6.15297">
        <ele>1745.41</ele>
        <time>2012-05-13T12:30:54Z</time>
      </trkpt>
      <trkpt lat="44.26867" lon="6.15291">
        <ele>1744.45</ele>
        <time>2012-05-13T12:30:58Z</time>
      </trkpt>
      <trkpt lat="44.26866" lon="6.1527">
        <ele>1743.49</ele>
        <time>2012-05-13T12:31:13Z</time>
      </trkpt>
      <trkpt lat="44.26867" lon="6.15255">
        <ele>1743.01</ele>
        <time>2012-05-13T12:31:24Z</time>
      </trkpt>
      <trkpt lat="44.26867" lon="6.15249">
        <ele>1742.53</ele>
        <time>2012-05-13T12:31:28Z</time>
      </trkpt>
      <trkpt lat="44.26863" lon="6.15225">
        <ele>1741.08</ele>
        <time>2012-05-13T12:31:44Z</time>
      </trkpt>
      <trkpt lat="44.26862" lon="6.15211">
        <ele>1740.6</ele>
        <time>2012-05-13T12:31:53Z</time>
      </trkpt>
      <trkpt lat="44.26861" lon="6.15192">
        <ele>1740.6</ele>
        <time>2012-05-13T12:32:07Z</time>
      </trkpt>
      <trkpt lat="44.26858" lon="6.15184">
        <ele>1742.05</ele>
        <time>2012-05-13T12:32:14Z</time>
      </trkpt>
      <trkpt lat="44.26856" lon="6.1516">
        <ele>1741.57</ele>
        <time>2012-05-13T12:32:32Z</time>
      </trkpt>
      <trkpt lat="44.26854" lon="6.15148">
        <ele>1742.05</ele>
        <time>2012-05-13T12:32:44Z</time>
      </trkpt>
      <trkpt lat="44.26852" lon="6.15136">
        <ele>1743.01</ele>
        <time>2012-05-13T12:32:54Z</time>
      </trkpt>
      <trkpt lat="44.26847" lon="6.1512">
        <ele>1744.45</ele>
        <time>2012-05-13T12:33:09Z</time>
      </trkpt>
      <trkpt lat="44.2684" lon="6.15103">
        <ele>1744.45</ele>
        <time>2012-05-13T12:33:24Z</time>
      </trkpt>
      <trkpt lat="44.26838" lon="6.15085">
        <ele>1743.97</ele>
        <time>2012-05-13T12:33:39Z</time>
      </trkpt>
      <trkpt lat="44.26834" lon="6.15066">
        <ele>1743.49</ele>
        <time>2012-05-13T12:33:55Z</time>
      </trkpt>
      <trkpt lat="44.26835" lon="6.1504">
        <ele>1743.01</ele>
        <time>2012-05-13T12:34:14Z</time>
      </trkpt>
      <trkpt lat="44.26836" lon="6.15029">
        <ele>1743.01</ele>
        <time>2012-05-13T12:34:22Z</time>
      </trkpt>
      <trkpt lat="44.26839" lon="6.15016">
        <ele>1741.57</ele>
        <time>2012-05-13T12:34:33Z</time>
      </trkpt>
      <trkpt lat="44.26839" lon="6.15007">
        <ele>1741.08</ele>
        <time>2012-05-13T12:34:40Z</time>
      </trkpt>
      <trkpt lat="44.26838" lon="6.14996">
        <ele>1741.08</ele>
        <time>2012-05-13T12:34:49Z</time>
      </trkpt>
      <trkpt lat="44.26839" lon="6.14991">
        <ele>1737.72</ele>
        <time>2012-05-13T12:34:54Z</time>
      </trkpt>
      <trkpt lat="44.26839" lon="6.14985">
        <ele>1739.16</ele>
        <time>2012-05-13T12:35:10Z</time>
      </trkpt>
      <trkpt lat="44.26836" lon="6.14972">
        <ele>1737.72</ele>
        <time>2012-05-13T12:35:25Z</time>
      </trkpt>
      <trkpt lat="44.26836" lon="6.14971">
        <ele>1737.72</ele>
        <time>2012-05-13T12:35:39Z</time>
      </trkpt>
      <trkpt lat="44.26836" lon="6.14971">
        <ele>1738.68</ele>
        <time>2012-05-13T12:35:57Z</time>
      </trkpt>
      <trkpt lat="44.26836" lon="6.14971">
        <ele>1737.24</ele>
        <time>2012-05-13T12:35:59Z</time>
      </trkpt>
      <trkpt lat="44.26836" lon="6.14971">
        <ele>1737.24</ele>
        <time>2012-05-13T12:36:32Z</time>
      </trkpt>
      <trkpt lat="44.26836" lon="6.14971">
        <ele>1737.72</ele>
        <time>2012-05-13T12:36:51Z</time>
      </trkpt>
      <trkpt lat="44.26833" lon="6.14966">
        <ele>1736.76</ele>
        <time>2012-05-13T12:37:16Z</time>
      </trkpt>
      <trkpt lat="44.26832" lon="6.14966">
        <ele>1736.28</ele>
        <time>2012-05-13T12:37:33Z</time>
      </trkpt>
      <trkpt lat="44.26828" lon="6.14957">
        <ele>1735.32</ele>
        <time>2012-05-13T12:37:49Z</time>
      </trkpt>
      <trkpt lat="44.26823" lon="6.14959">
        <ele>1732.43</ele>
        <time>2012-05-13T12:38:02Z</time>
      </trkpt>
      <trkpt lat="44.26822" lon="6.1496">
        <ele>1731.95</ele>
        <time>2012-05-13T12:38:18Z</time>
      </trkpt>
      <trkpt lat="44.26822" lon="6.14961">
        <ele>1731.95</ele>
        <time>2012-05-13T12:38:40Z</time>
      </trkpt>
      <trkpt lat="44.26822" lon="6.14961">
        <ele>1731.95</ele>
        <time>2012-05-13T12:39:02Z</time>
      </trkpt>
      <trkpt lat="44.26822" lon="6.14961">
        <ele>1732.43</ele>
        <time>2012-05-13T12:39:24Z</time>
      </trkpt>
      <trkpt lat="44.26822" lon="6.14961">
        <ele>1731.95</ele>
        <time>2012-05-13T12:39:56Z</time>
      </trkpt>
      <trkpt lat="44.26822" lon="6.14961">
        <ele>1732.43</ele>
        <time>2012-05-13T12:40:23Z</time>
      </trkpt>
      <trkpt lat="44.26822" lon="6.14973">
        <ele>1730.99</ele>
        <time>2012-05-13T12:40:40Z</time>
      </trkpt>
      <trkpt lat="44.26817" lon="6.14977">
        <ele>1729.55</ele>
        <time>2012-05-13T12:40:48Z</time>
      </trkpt>
      <trkpt lat="44.26815" lon="6.14977">
        <ele>1728.59</ele>
        <time>2012-05-13T12:40:50Z</time>
      </trkpt>
      <trkpt lat="44.26808" lon="6.14966">
        <ele>1724.74</ele>
        <time>2012-05-13T12:41:04Z</time>
      </trkpt>
      <trkpt lat="44.26808" lon="6.14966">
        <ele>1724.74</ele>
        <time>2012-05-13T12:41:05Z</time>
      </trkpt>
      <trkpt lat="44.26805" lon="6.14975">
        <ele>1722.34</ele>
        <time>2012-05-13T12:41:18Z</time>
      </trkpt>
      <trkpt lat="44.26801" lon="6.14987">
        <ele>1719.46</ele>
        <time>2012-05-13T12:41:32Z</time>
      </trkpt>
      <trkpt lat="44.26796" lon="6.1501">
        <ele>1716.09</ele>
        <time>2012-05-13T12:41:50Z</time>
      </trkpt>
      <trkpt lat="44.26792" lon="6.15025">
        <ele>1713.69</ele>
        <time>2012-05-13T12:42:06Z</time>
      </trkpt>
      <trkpt lat="44.26789" lon="6.15046">
        <ele>1711.76</ele>
        <time>2012-05-13T12:42:23Z</time>
      </trkpt>
      <trkpt lat="44.26787" lon="6.15051">
        <ele>1710.32</ele>
        <time>2012-05-13T12:42:28Z</time>
      </trkpt>
      <trkpt lat="44.26785" lon="6.15052">
        <ele>1710.32</ele>
        <time>2012-05-13T12:42:30Z</time>
      </trkpt>
      <trkpt lat="44.26779" lon="6.15036">
        <ele>1706.96</ele>
        <time>2012-05-13T12:42:44Z</time>
      </trkpt>
      <trkpt lat="44.26776" lon="6.15026">
        <ele>1705.52</ele>
        <time>2012-05-13T12:42:52Z</time>
      </trkpt>
      <trkpt lat="44.26775" lon="6.15016">
        <ele>1705.04</ele>
        <time>2012-05-13T12:42:58Z</time>
      </trkpt>
      <trkpt lat="44.26769" lon="6.15002">
        <ele>1701.67</ele>
        <time>2012-05-13T12:43:10Z</time>
      </trkpt>
      <trkpt lat="44.26764" lon="6.14986">
        <ele>1698.31</ele>
        <time>2012-05-13T12:43:25Z</time>
      </trkpt>
      <trkpt lat="44.26759" lon="6.14971">
        <ele>1695.9</ele>
        <time>2012-05-13T12:43:39Z</time>
      </trkpt>
      <trkpt lat="44.26759" lon="6.14971">
        <ele>1695.9</ele>
        <time>2012-05-13T12:44:04Z</time>
      </trkpt>
      <trkpt lat="44.26759" lon="6.14971">
        <ele>1695.42</ele>
        <time>2012-05-13T12:44:18Z</time>
      </trkpt>
      <trkpt lat="44.26752" lon="6.14958">
        <ele>1692.54</ele>
        <time>2012-05-13T12:44:31Z</time>
      </trkpt>
      <trkpt lat="44.2675" lon="6.14954">
        <ele>1692.06</ele>
        <time>2012-05-13T12:44:34Z</time>
      </trkpt>
      <trkpt lat="44.26746" lon="6.1495">
        <ele>1690.14</ele>
        <time>2012-05-13T12:44:39Z</time>
      </trkpt>
      <trkpt lat="44.26738" lon="6.1493">
        <ele>1686.77</ele>
        <time>2012-05-13T12:44:55Z</time>
      </trkpt>
      <trkpt lat="44.26729" lon="6.14905">
        <ele>1683.41</ele>
        <time>2012-05-13T12:45:11Z</time>
      </trkpt>
      <trkpt lat="44.26726" lon="6.14892">
        <ele>1681.96</ele>
        <time>2012-05-13T12:45:20Z</time>
      </trkpt>
      <trkpt lat="44.26716" lon="6.14879">
        <ele>1678.6</ele>
        <time>2012-05-13T12:45:34Z</time>
      </trkpt>
      <trkpt lat="44.26713" lon="6.14876">
        <ele>1677.64</ele>
        <time>2012-05-13T12:45:38Z</time>
      </trkpt>
      <trkpt lat="44.26708" lon="6.14873">
        <ele>1676.2</ele>
        <time>2012-05-13T12:45:43Z</time>
      </trkpt>
      <trkpt lat="44.26699" lon="6.14857">
        <ele>1673.31</ele>
        <time>2012-05-13T12:45:55Z</time>
      </trkpt>
      <trkpt lat="44.26695" lon="6.14842">
        <ele>1670.91</ele>
        <time>2012-05-13T12:46:06Z</time>
      </trkpt>
      <trkpt lat="44.26687" lon="6.14822">
        <ele>1668.99</ele>
        <time>2012-05-13T12:46:19Z</time>
      </trkpt>
      <trkpt lat="44.26677" lon="6.14805">
        <ele>1665.62</ele>
        <time>2012-05-13T12:46:29Z</time>
      </trkpt>
      <trkpt lat="44.26669" lon="6.14795">
        <ele>1662.74</ele>
        <time>2012-05-13T12:46:39Z</time>
      </trkpt>
      <trkpt lat="44.26664" lon="6.14773">
        <ele>1659.85</ele>
        <time>2012-05-13T12:46:54Z</time>
      </trkpt>
      <trkpt lat="44.26662" lon="6.14768">
        <ele>1659.37</ele>
        <time>2012-05-13T12:46:57Z</time>
      </trkpt>
      <trkpt lat="44.26658" lon="6.14758">
        <ele>1657.93</ele>
        <time>2012-05-13T12:47:03Z</time>
      </trkpt>
      <trkpt lat="44.26652" lon="6.14748">
        <ele>1654.57</ele>
        <time>2012-05-13T12:47:13Z</time>
      </trkpt>
      <trkpt lat="44.26653" lon="6.14756">
        <ele>1653.12</ele>
        <time>2012-05-13T12:47:25Z</time>
      </trkpt>
      <trkpt lat="44.26654" lon="6.1476">
        <ele>1652.64</ele>
        <time>2012-05-13T12:47:31Z</time>
      </trkpt>
      <trkpt lat="44.2665" lon="6.14771">
        <ele>1649.28</ele>
        <time>2012-05-13T12:47:38Z</time>
      </trkpt>
      <trkpt lat="44.26649" lon="6.14773">
        <ele>1648.8</ele>
        <time>2012-05-13T12:47:39Z</time>
      </trkpt>
      <trkpt lat="44.26646" lon="6.14788">
        <ele>1646.4</ele>
        <time>2012-05-13T12:47:46Z</time>
      </trkpt>
      <trkpt lat="44.26645" lon="6.14789">
        <ele>1646.4</ele>
        <time>2012-05-13T12:47:47Z</time>
      </trkpt>
      <trkpt lat="44.26642" lon="6.148">
        <ele>1644.47</ele>
        <time>2012-05-13T12:48:00Z</time>
      </trkpt>
      <trkpt lat="44.26642" lon="6.14802">
        <ele>1644.47</ele>
        <time>2012-05-13T12:48:02Z</time>
      </trkpt>
      <trkpt lat="44.2664" lon="6.14805">
        <ele>1643.03</ele>
        <time>2012-05-13T12:48:04Z</time>
      </trkpt>
      <trkpt lat="44.26637" lon="6.14813">
        <ele>1640.63</ele>
        <time>2012-05-13T12:48:10Z</time>
      </trkpt>
      <trkpt lat="44.26634" lon="6.14818">
        <ele>1638.7</ele>
        <time>2012-05-13T12:48:14Z</time>
      </trkpt>
      <trkpt lat="44.26632" lon="6.14822">
        <ele>1636.78</ele>
        <time>2012-05-13T12:48:17Z</time>
      </trkpt>
      <trkpt lat="44.26632" lon="6.14835">
        <ele>1633.42</ele>
        <time>2012-05-13T12:48:28Z</time>
      </trkpt>
      <trkpt lat="44.26634" lon="6.14839">
        <ele>1632.94</ele>
        <time>2012-05-13T12:48:31Z</time>
      </trkpt>
      <trkpt lat="44.2663" lon="6.14849">
        <ele>1630.53</ele>
        <time>2012-05-13T12:48:40Z</time>
      </trkpt>
      <trkpt lat="44.26632" lon="6.14864">
        <ele>1627.17</ele>
        <time>2012-05-13T12:48:52Z</time>
      </trkpt>
      <trkpt lat="44.26626" lon="6.14878">
        <ele>1624.28</ele>
        <time>2012-05-13T12:49:05Z</time>
      </trkpt>
      <trkpt lat="44.26625" lon="6.14879">
        <ele>1623.32</ele>
        <time>2012-05-13T12:49:06Z</time>
      </trkpt>
      <trkpt lat="44.26622" lon="6.14886">
        <ele>1622.84</ele>
        <time>2012-05-13T12:49:11Z</time>
      </trkpt>
      <trkpt lat="44.26622" lon="6.14889">
        <ele>1622.36</ele>
        <time>2012-05-13T12:49:13Z</time>
      </trkpt>
      <trkpt lat="44.26616" lon="6.1489">
        <ele>1619.48</ele>
        <time>2012-05-13T12:49:21Z</time>
      </trkpt>
      <trkpt lat="44.26605" lon="6.14874">
        <ele>1616.59</ele>
        <time>2012-05-13T12:49:37Z</time>
      </trkpt>
      <trkpt lat="44.266" lon="6.14871">
        <ele>1614.67</ele>
        <time>2012-05-13T12:49:42Z</time>
      </trkpt>
      <trkpt lat="44.26598" lon="6.14871">
        <ele>1613.23</ele>
        <time>2012-05-13T12:49:45Z</time>
      </trkpt>
      <trkpt lat="44.26587" lon="6.14863">
        <ele>1610.35</ele>
        <time>2012-05-13T12:49:58Z</time>
      </trkpt>
      <trkpt lat="44.26579" lon="6.14853">
        <ele>1607.46</ele>
        <time>2012-05-13T12:50:14Z</time>
      </trkpt>
      <trkpt lat="44.26569" lon="6.14828">
        <ele>1605.54</ele>
        <time>2012-05-13T12:50:29Z</time>
      </trkpt>
      <trkpt lat="44.26564" lon="6.1482">
        <ele>1604.1</ele>
        <time>2012-05-13T12:50:34Z</time>
      </trkpt>
      <trkpt lat="44.26561" lon="6.14816">
        <ele>1602.66</ele>
        <time>2012-05-13T12:50:36Z</time>
      </trkpt>
      <trkpt lat="44.26555" lon="6.14801">
        <ele>1600.25</ele>
        <time>2012-05-13T12:50:51Z</time>
      </trkpt>
      <trkpt lat="44.26557" lon="6.14809">
        <ele>1598.33</ele>
        <time>2012-05-13T12:50:58Z</time>
      </trkpt>
      <trkpt lat="44.26559" lon="6.1482">
        <ele>1596.89</ele>
        <time>2012-05-13T12:51:05Z</time>
      </trkpt>
      <trkpt lat="44.26559" lon="6.14822">
        <ele>1595.93</ele>
        <time>2012-05-13T12:51:08Z</time>
      </trkpt>
      <trkpt lat="44.26555" lon="6.14821">
        <ele>1595.45</ele>
        <time>2012-05-13T12:51:11Z</time>
      </trkpt>
      <trkpt lat="44.26547" lon="6.14819">
        <ele>1594</ele>
        <time>2012-05-13T12:51:16Z</time>
      </trkpt>
      <trkpt lat="44.26542" lon="6.14811">
        <ele>1593.04</ele>
        <time>2012-05-13T12:51:23Z</time>
      </trkpt>
      <trkpt lat="44.2654" lon="6.14806">
        <ele>1591.6</ele>
        <time>2012-05-13T12:51:29Z</time>
      </trkpt>
      <trkpt lat="44.26533" lon="6.14796">
        <ele>1589.68</ele>
        <time>2012-05-13T12:51:36Z</time>
      </trkpt>
      <trkpt lat="44.26534" lon="6.14778">
        <ele>1588.72</ele>
        <time>2012-05-13T12:51:48Z</time>
      </trkpt>
      <trkpt lat="44.2653" lon="6.14773">
        <ele>1587.27</ele>
        <time>2012-05-13T12:51:52Z</time>
      </trkpt>
      <trkpt lat="44.26527" lon="6.14771">
        <ele>1586.31</ele>
        <time>2012-05-13T12:51:56Z</time>
      </trkpt>
      <trkpt lat="44.26521" lon="6.14768">
        <ele>1584.87</ele>
        <time>2012-05-13T12:52:01Z</time>
      </trkpt>
      <trkpt lat="44.26512" lon="6.14767">
        <ele>1581.99</ele>
        <time>2012-05-13T12:52:13Z</time>
      </trkpt>
      <trkpt lat="44.26511" lon="6.14767">
        <ele>1581.51</ele>
        <time>2012-05-13T12:52:14Z</time>
      </trkpt>
      <trkpt lat="44.26498" lon="6.14774">
        <ele>1579.1</ele>
        <time>2012-05-13T12:52:32Z</time>
      </trkpt>
      <trkpt lat="44.26498" lon="6.14792">
        <ele>1576.22</ele>
        <time>2012-05-13T12:52:46Z</time>
      </trkpt>
      <trkpt lat="44.26491" lon="6.14811">
        <ele>1574.3</ele>
        <time>2012-05-13T12:53:01Z</time>
      </trkpt>
      <trkpt lat="44.26479" lon="6.1483">
        <ele>1570.45</ele>
        <time>2012-05-13T12:53:15Z</time>
      </trkpt>
      <trkpt lat="44.26476" lon="6.14835">
        <ele>1569.97</ele>
        <time>2012-05-13T12:53:22Z</time>
      </trkpt>
      <trkpt lat="44.26468" lon="6.14864">
        <ele>1568.05</ele>
        <time>2012-05-13T12:53:39Z</time>
      </trkpt>
      <trkpt lat="44.26465" lon="6.1487">
        <ele>1567.09</ele>
        <time>2012-05-13T12:53:45Z</time>
      </trkpt>
      <trkpt lat="44.26458" lon="6.14891">
        <ele>1564.68</ele>
        <time>2012-05-13T12:54:02Z</time>
      </trkpt>
      <trkpt lat="44.26454" lon="6.14895">
        <ele>1563.72</ele>
        <time>2012-05-13T12:54:06Z</time>
      </trkpt>
      <trkpt lat="44.26445" lon="6.14884">
        <ele>1560.84</ele>
        <time>2012-05-13T12:54:18Z</time>
      </trkpt>
      <trkpt lat="44.26442" lon="6.14868">
        <ele>1557.95</ele>
        <time>2012-05-13T12:54:31Z</time>
      </trkpt>
      <trkpt lat="44.26439" lon="6.14861">
        <ele>1556.03</ele>
        <time>2012-05-13T12:54:37Z</time>
      </trkpt>
      <trkpt lat="44.26433" lon="6.14851">
        <ele>1552.67</ele>
        <time>2012-05-13T12:54:48Z</time>
      </trkpt>
      <trkpt lat="44.26432" lon="6.14853">
        <ele>1552.19</ele>
        <time>2012-05-13T12:54:50Z</time>
      </trkpt>
      <trkpt lat="44.26428" lon="6.14869">
        <ele>1550.74</ele>
        <time>2012-05-13T12:55:02Z</time>
      </trkpt>
      <trkpt lat="44.2642" lon="6.14882">
        <ele>1547.86</ele>
        <time>2012-05-13T12:55:13Z</time>
      </trkpt>
      <trkpt lat="44.26416" lon="6.14884">
        <ele>1546.42</ele>
        <time>2012-05-13T12:55:18Z</time>
      </trkpt>
      <trkpt lat="44.26408" lon="6.14884">
        <ele>1544.5</ele>
        <time>2012-05-13T12:55:26Z</time>
      </trkpt>
      <trkpt lat="44.26407" lon="6.14886">
        <ele>1544.01</ele>
        <time>2012-05-13T12:55:28Z</time>
      </trkpt>
      <trkpt lat="44.26399" lon="6.14903">
        <ele>1541.13</ele>
        <time>2012-05-13T12:55:40Z</time>
      </trkpt>
      <trkpt lat="44.26394" lon="6.14905">
        <ele>1539.69</ele>
        <time>2012-05-13T12:55:45Z</time>
      </trkpt>
      <trkpt lat="44.26377" lon="6.14894">
        <ele>1537.77</ele>
        <time>2012-05-13T12:56:00Z</time>
      </trkpt>
      <trkpt lat="44.2637" lon="6.1488">
        <ele>1533.92</ele>
        <time>2012-05-13T12:56:11Z</time>
      </trkpt>
      <trkpt lat="44.2637" lon="6.14879">
        <ele>1533.92</ele>
        <time>2012-05-13T12:56:13Z</time>
      </trkpt>
      <trkpt lat="44.26367" lon="6.14885">
        <ele>1532.48</ele>
        <time>2012-05-13T12:56:20Z</time>
      </trkpt>
      <trkpt lat="44.26366" lon="6.14896">
        <ele>1530.08</ele>
        <time>2012-05-13T12:56:27Z</time>
      </trkpt>
      <trkpt lat="44.26365" lon="6.14898">
        <ele>1529.59</ele>
        <time>2012-05-13T12:56:28Z</time>
      </trkpt>
      <trkpt lat="44.26364" lon="6.14912">
        <ele>1526.71</ele>
        <time>2012-05-13T12:56:39Z</time>
      </trkpt>
      <trkpt lat="44.26363" lon="6.14917">
        <ele>1525.75</ele>
        <time>2012-05-13T12:56:44Z</time>
      </trkpt>
      <trkpt lat="44.26351" lon="6.14932">
        <ele>1522.39</ele>
        <time>2012-05-13T12:56:59Z</time>
      </trkpt>
      <trkpt lat="44.26345" lon="6.14931">
        <ele>1521.42</ele>
        <time>2012-05-13T12:57:04Z</time>
      </trkpt>
      <trkpt lat="44.26333" lon="6.14911">
        <ele>1519.5</ele>
        <time>2012-05-13T12:57:20Z</time>
      </trkpt>
      <trkpt lat="44.26331" lon="6.1491">
        <ele>1519.02</ele>
        <time>2012-05-13T12:57:24Z</time>
      </trkpt>
      <trkpt lat="44.26321" lon="6.14911">
        <ele>1516.62</ele>
        <time>2012-05-13T12:57:34Z</time>
      </trkpt>
      <trkpt lat="44.2631" lon="6.1492">
        <ele>1514.21</ele>
        <time>2012-05-13T12:57:47Z</time>
      </trkpt>
      <trkpt lat="44.26304" lon="6.14919">
        <ele>1514.21</ele>
        <time>2012-05-13T12:57:52Z</time>
      </trkpt>
      <trkpt lat="44.26297" lon="6.14917">
        <ele>1513.25</ele>
        <time>2012-05-13T12:57:58Z</time>
      </trkpt>
      <trkpt lat="44.26295" lon="6.14898">
        <ele>1513.73</ele>
        <time>2012-05-13T12:58:07Z</time>
      </trkpt>
      <trkpt lat="44.26279" lon="6.14881">
        <ele>1511.33</ele>
        <time>2012-05-13T12:58:24Z</time>
      </trkpt>
      <trkpt lat="44.26277" lon="6.14881">
        <ele>1511.33</ele>
        <time>2012-05-13T12:58:26Z</time>
      </trkpt>
      <trkpt lat="44.2627" lon="6.14859">
        <ele>1510.37</ele>
        <time>2012-05-13T12:58:39Z</time>
      </trkpt>
      <trkpt lat="44.2627" lon="6.14841">
        <ele>1509.41</ele>
        <time>2012-05-13T12:58:54Z</time>
      </trkpt>
      <trkpt lat="44.26263" lon="6.1484">
        <ele>1507</ele>
        <time>2012-05-13T12:59:04Z</time>
      </trkpt>
      <trkpt lat="44.26255" lon="6.14828">
        <ele>1503.64</ele>
        <time>2012-05-13T12:59:15Z</time>
      </trkpt>
      <trkpt lat="44.26249" lon="6.14833">
        <ele>1500.76</ele>
        <time>2012-05-13T12:59:27Z</time>
      </trkpt>
      <trkpt lat="44.26246" lon="6.14836">
        <ele>1500.27</ele>
        <time>2012-05-13T12:59:30Z</time>
      </trkpt>
      <trkpt lat="44.26242" lon="6.14835">
        <ele>1497.87</ele>
        <time>2012-05-13T12:59:33Z</time>
      </trkpt>
      <trkpt lat="44.26234" lon="6.14829">
        <ele>1497.39</ele>
        <time>2012-05-13T12:59:41Z</time>
      </trkpt>
      <trkpt lat="44.26224" lon="6.14827">
        <ele>1493.55</ele>
        <time>2012-05-13T12:59:52Z</time>
      </trkpt>
      <trkpt lat="44.26222" lon="6.14825">
        <ele>1493.06</ele>
        <time>2012-05-13T12:59:56Z</time>
      </trkpt>
      <trkpt lat="44.2622" lon="6.14825">
        <ele>1492.1</ele>
        <time>2012-05-13T12:59:58Z</time>
      </trkpt>
      <trkpt lat="44.26219" lon="6.14828">
        <ele>1492.1</ele>
        <time>2012-05-13T13:00:01Z</time>
      </trkpt>
      <trkpt lat="44.26215" lon="6.14835">
        <ele>1490.18</ele>
        <time>2012-05-13T13:00:08Z</time>
      </trkpt>
      <trkpt lat="44.26211" lon="6.14837">
        <ele>1489.22</ele>
        <time>2012-05-13T13:00:12Z</time>
      </trkpt>
      <trkpt lat="44.26202" lon="6.14839">
        <ele>1487.3</ele>
        <time>2012-05-13T13:00:20Z</time>
      </trkpt>
      <trkpt lat="44.26194" lon="6.1484">
        <ele>1486.34</ele>
        <time>2012-05-13T13:00:29Z</time>
      </trkpt>
      <trkpt lat="44.26181" lon="6.14848">
        <ele>1483.45</ele>
        <time>2012-05-13T13:00:44Z</time>
      </trkpt>
      <trkpt lat="44.26172" lon="6.14846">
        <ele>1482.01</ele>
        <time>2012-05-13T13:00:54Z</time>
      </trkpt>
      <trkpt lat="44.26167" lon="6.14844">
        <ele>1480.09</ele>
        <time>2012-05-13T13:01:00Z</time>
      </trkpt>
      <trkpt lat="44.26161" lon="6.14839">
        <ele>1478.65</ele>
        <time>2012-05-13T13:01:08Z</time>
      </trkpt>
      <trkpt lat="44.26155" lon="6.14826">
        <ele>1476.72</ele>
        <time>2012-05-13T13:01:19Z</time>
      </trkpt>
      <trkpt lat="44.26143" lon="6.14823">
        <ele>1474.32</ele>
        <time>2012-05-13T13:01:30Z</time>
      </trkpt>
      <trkpt lat="44.26136" lon="6.14823">
        <ele>1473.36</ele>
        <time>2012-05-13T13:01:39Z</time>
      </trkpt>
      <trkpt lat="44.26136" lon="6.14849">
        <ele>1470.47</ele>
        <time>2012-05-13T13:01:56Z</time>
      </trkpt>
      <trkpt lat="44.26136" lon="6.14851">
        <ele>1470.47</ele>
        <time>2012-05-13T13:01:57Z</time>
      </trkpt>
      <trkpt lat="44.26131" lon="6.14864">
        <ele>1468.55</ele>
        <time>2012-05-13T13:02:08Z</time>
      </trkpt>
      <trkpt lat="44.26125" lon="6.14871">
        <ele>1466.63</ele>
        <time>2012-05-13T13:02:16Z</time>
      </trkpt>
      <trkpt lat="44.26121" lon="6.14872">
        <ele>1465.19</ele>
        <time>2012-05-13T13:02:20Z</time>
      </trkpt>
      <trkpt lat="44.26113" lon="6.14864">
        <ele>1463.26</ele>
        <time>2012-05-13T13:02:30Z</time>
      </trkpt>
      <trkpt lat="44.26112" lon="6.14852">
        <ele>1462.3</ele>
        <time>2012-05-13T13:02:38Z</time>
      </trkpt>
      <trkpt lat="44.26103" lon="6.14838">
        <ele>1458.94</ele>
        <time>2012-05-13T13:02:50Z</time>
      </trkpt>
      <trkpt lat="44.26092" lon="6.14825">
        <ele>1456.05</ele>
        <time>2012-05-13T13:03:03Z</time>
      </trkpt>
      <trkpt lat="44.26086" lon="6.14828">
        <ele>1454.61</ele>
        <time>2012-05-13T13:03:11Z</time>
      </trkpt>
      <trkpt lat="44.26079" lon="6.14845">
        <ele>1451.25</ele>
        <time>2012-05-13T13:03:27Z</time>
      </trkpt>
      <trkpt lat="44.26075" lon="6.14846">
        <ele>1450.29</ele>
        <time>2012-05-13T13:03:31Z</time>
      </trkpt>
      <trkpt lat="44.26062" lon="6.14838">
        <ele>1446.92</ele>
        <time>2012-05-13T13:03:45Z</time>
      </trkpt>
      <trkpt lat="44.26053" lon="6.14832">
        <ele>1445.48</ele>
        <time>2012-05-13T13:03:55Z</time>
      </trkpt>
      <trkpt lat="44.26043" lon="6.14834">
        <ele>1444.04</ele>
        <time>2012-05-13T13:04:04Z</time>
      </trkpt>
      <trkpt lat="44.26027" lon="6.14833">
        <ele>1440.19</ele>
        <time>2012-05-13T13:04:20Z</time>
      </trkpt>
      <trkpt lat="44.26014" lon="6.1484">
        <ele>1437.79</ele>
        <time>2012-05-13T13:04:33Z</time>
      </trkpt>
      <trkpt lat="44.26009" lon="6.14843">
        <ele>1437.31</ele>
        <time>2012-05-13T13:04:38Z</time>
      </trkpt>
      <trkpt lat="44.25996" lon="6.1485">
        <ele>1434.91</ele>
        <time>2012-05-13T13:04:54Z</time>
      </trkpt>
      <trkpt lat="44.25982" lon="6.14852">
        <ele>1432.98</ele>
        <time>2012-05-13T13:05:08Z</time>
      </trkpt>
      <trkpt lat="44.25966" lon="6.14853">
        <ele>1430.58</ele>
        <time>2012-05-13T13:05:22Z</time>
      </trkpt>
      <trkpt lat="44.25954" lon="6.14861">
        <ele>1428.18</ele>
        <time>2012-05-13T13:05:35Z</time>
      </trkpt>
      <trkpt lat="44.25948" lon="6.14869">
        <ele>1426.73</ele>
        <time>2012-05-13T13:05:42Z</time>
      </trkpt>
      <trkpt lat="44.25946" lon="6.14869">
        <ele>1426.73</ele>
        <time>2012-05-13T13:05:44Z</time>
      </trkpt>
      <trkpt lat="44.25932" lon="6.1487">
        <ele>1423.37</ele>
        <time>2012-05-13T13:05:59Z</time>
      </trkpt>
      <trkpt lat="44.2593" lon="6.14872">
        <ele>1423.37</ele>
        <time>2012-05-13T13:06:01Z</time>
      </trkpt>
      <trkpt lat="44.25921" lon="6.14876">
        <ele>1421.93</ele>
        <time>2012-05-13T13:06:10Z</time>
      </trkpt>
      <trkpt lat="44.25909" lon="6.14872">
        <ele>1420</ele>
        <time>2012-05-13T13:06:21Z</time>
      </trkpt>
      <trkpt lat="44.25906" lon="6.14869">
        <ele>1419.52</ele>
        <time>2012-05-13T13:06:24Z</time>
      </trkpt>
      <trkpt lat="44.25898" lon="6.14866">
        <ele>1417.12</ele>
        <time>2012-05-13T13:06:32Z</time>
      </trkpt>
      <trkpt lat="44.25887" lon="6.14878">
        <ele>1415.68</ele>
        <time>2012-05-13T13:06:45Z</time>
      </trkpt>
      <trkpt lat="44.25885" lon="6.14885">
        <ele>1414.72</ele>
        <time>2012-05-13T13:06:55Z</time>
      </trkpt>
      <trkpt lat="44.25885" lon="6.14886">
        <ele>1414.24</ele>
        <time>2012-05-13T13:06:57Z</time>
      </trkpt>
      <trkpt lat="44.25892" lon="6.14912">
        <ele>1414.24</ele>
        <time>2012-05-13T13:07:14Z</time>
      </trkpt>
      <trkpt lat="44.259" lon="6.14933">
        <ele>1414.24</ele>
        <time>2012-05-13T13:07:29Z</time>
      </trkpt>
      <trkpt lat="44.25902" lon="6.14938">
        <ele>1414.24</ele>
        <time>2012-05-13T13:07:33Z</time>
      </trkpt>
      <trkpt lat="44.25905" lon="6.14942">
        <ele>1413.76</ele>
        <time>2012-05-13T13:07:37Z</time>
      </trkpt>
      <trkpt lat="44.25916" lon="6.14955">
        <ele>1413.28</ele>
        <time>2012-05-13T13:07:52Z</time>
      </trkpt>
      <trkpt lat="44.25916" lon="6.14956">
        <ele>1413.28</ele>
        <time>2012-05-13T13:08:13Z</time>
      </trkpt>
      <trkpt lat="44.25916" lon="6.14956">
        <ele>1414.24</ele>
        <time>2012-05-13T13:08:17Z</time>
      </trkpt>
      <trkpt lat="44.25924" lon="6.14971">
        <ele>1413.76</ele>
        <time>2012-05-13T13:08:29Z</time>
      </trkpt>
      <trkpt lat="44.2593" lon="6.14978">
        <ele>1412.79</ele>
        <time>2012-05-13T13:08:37Z</time>
      </trkpt>
      <trkpt lat="44.25935" lon="6.14982">
        <ele>1412.31</ele>
        <time>2012-05-13T13:08:42Z</time>
      </trkpt>
      <trkpt lat="44.25953" lon="6.14994">
        <ele>1410.87</ele>
        <time>2012-05-13T13:08:59Z</time>
      </trkpt>
      <trkpt lat="44.25958" lon="6.15002">
        <ele>1410.39</ele>
        <time>2012-05-13T13:09:07Z</time>
      </trkpt>
      <trkpt lat="44.25962" lon="6.15006">
        <ele>1409.91</ele>
        <time>2012-05-13T13:09:12Z</time>
      </trkpt>
      <trkpt lat="44.25979" lon="6.15027">
        <ele>1408.95</ele>
        <time>2012-05-13T13:09:28Z</time>
      </trkpt>
      <trkpt lat="44.25981" lon="6.15032">
        <ele>1408.95</ele>
        <time>2012-05-13T13:09:31Z</time>
      </trkpt>
      <trkpt lat="44.25977" lon="6.15057">
        <ele>1407.51</ele>
        <time>2012-05-13T13:09:47Z</time>
      </trkpt>
      <trkpt lat="44.25981" lon="6.15076">
        <ele>1406.07</ele>
        <time>2012-05-13T13:10:01Z</time>
      </trkpt>
      <trkpt lat="44.25982" lon="6.15082">
        <ele>1405.58</ele>
        <time>2012-05-13T13:10:05Z</time>
      </trkpt>
      <trkpt lat="44.2598" lon="6.15093">
        <ele>1405.1</ele>
        <time>2012-05-13T13:10:12Z</time>
      </trkpt>
      <trkpt lat="44.25962" lon="6.15107">
        <ele>1403.66</ele>
        <time>2012-05-13T13:10:30Z</time>
      </trkpt>
      <trkpt lat="44.25961" lon="6.15108">
        <ele>1403.66</ele>
        <time>2012-05-13T13:10:31Z</time>
      </trkpt>
      <trkpt lat="44.25942" lon="6.15102">
        <ele>1402.22</ele>
        <time>2012-05-13T13:10:48Z</time>
      </trkpt>
      <trkpt lat="44.25921" lon="6.15082">
        <ele>1399.34</ele>
        <time>2012-05-13T13:11:06Z</time>
      </trkpt>
      <trkpt lat="44.2591" lon="6.1507">
        <ele>1398.86</ele>
        <time>2012-05-13T13:11:18Z</time>
      </trkpt>
      <trkpt lat="44.25897" lon="6.15063">
        <ele>1395.97</ele>
        <time>2012-05-13T13:11:35Z</time>
      </trkpt>
      <trkpt lat="44.2589" lon="6.15061">
        <ele>1395.97</ele>
        <time>2012-05-13T13:11:43Z</time>
      </trkpt>
      <trkpt lat="44.25877" lon="6.15048">
        <ele>1394.53</ele>
        <time>2012-05-13T13:11:58Z</time>
      </trkpt>
      <trkpt lat="44.2587" lon="6.15042">
        <ele>1393.09</ele>
        <time>2012-05-13T13:12:07Z</time>
      </trkpt>
      <trkpt lat="44.25848" lon="6.15037">
        <ele>1391.65</ele>
        <time>2012-05-13T13:12:28Z</time>
      </trkpt>
      <trkpt lat="44.25828" lon="6.15037">
        <ele>1389.72</ele>
        <time>2012-05-13T13:12:45Z</time>
      </trkpt>
      <trkpt lat="44.25826" lon="6.15036">
        <ele>1388.76</ele>
        <time>2012-05-13T13:12:47Z</time>
      </trkpt>
      <trkpt lat="44.25809" lon="6.15031">
        <ele>1386.84</ele>
        <time>2012-05-13T13:13:02Z</time>
      </trkpt>
      <trkpt lat="44.2579" lon="6.15032">
        <ele>1384.44</ele>
        <time>2012-05-13T13:13:19Z</time>
      </trkpt>
      <trkpt lat="44.25785" lon="6.1503">
        <ele>1384.92</ele>
        <time>2012-05-13T13:13:26Z</time>
      </trkpt>
      <trkpt lat="44.25771" lon="6.15034">
        <ele>1382.99</ele>
        <time>2012-05-13T13:13:41Z</time>
      </trkpt>
      <trkpt lat="44.2575" lon="6.15036">
        <ele>1380.59</ele>
        <time>2012-05-13T13:13:57Z</time>
      </trkpt>
      <trkpt lat="44.2573" lon="6.15037">
        <ele>1379.15</ele>
        <time>2012-05-13T13:14:12Z</time>
      </trkpt>
      <trkpt lat="44.25723" lon="6.15034">
        <ele>1377.23</ele>
        <time>2012-05-13T13:14:17Z</time>
      </trkpt>
      <trkpt lat="44.25705" lon="6.15034">
        <ele>1376.26</ele>
        <time>2012-05-13T13:14:32Z</time>
      </trkpt>
      <trkpt lat="44.25704" lon="6.15034">
        <ele>1377.23</ele>
        <time>2012-05-13T13:14:33Z</time>
      </trkpt>
      <trkpt lat="44.25684" lon="6.15023">
        <ele>1375.3</ele>
        <time>2012-05-13T13:14:50Z</time>
      </trkpt>
      <trkpt lat="44.25668" lon="6.15014">
        <ele>1374.82</ele>
        <time>2012-05-13T13:15:05Z</time>
      </trkpt>
      <trkpt lat="44.25657" lon="6.15">
        <ele>1374.82</ele>
        <time>2012-05-13T13:15:19Z</time>
      </trkpt>
      <trkpt lat="44.25648" lon="6.14993">
        <ele>1373.38</ele>
        <time>2012-05-13T13:15:27Z</time>
      </trkpt>
      <trkpt lat="44.25633" lon="6.14991">
        <ele>1371.94</ele>
        <time>2012-05-13T13:15:43Z</time>
      </trkpt>
      <trkpt lat="44.25614" lon="6.14998">
        <ele>1370.5</ele>
        <time>2012-05-13T13:16:00Z</time>
      </trkpt>
      <trkpt lat="44.256" lon="6.15014">
        <ele>1368.57</ele>
        <time>2012-05-13T13:16:17Z</time>
      </trkpt>
      <trkpt lat="44.25599" lon="6.15028">
        <ele>1367.61</ele>
        <time>2012-05-13T13:16:28Z</time>
      </trkpt>
      <trkpt lat="44.256" lon="6.15039">
        <ele>1365.69</ele>
        <time>2012-05-13T13:16:35Z</time>
      </trkpt>
      <trkpt lat="44.25605" lon="6.15066">
        <ele>1362.33</ele>
        <time>2012-05-13T13:16:52Z</time>
      </trkpt>
      <trkpt lat="44.25606" lon="6.1508">
        <ele>1360.88</ele>
        <time>2012-05-13T13:17:00Z</time>
      </trkpt>
      <trkpt lat="44.25606" lon="6.15082">
        <ele>1361.84</ele>
        <time>2012-05-13T13:17:01Z</time>
      </trkpt>
      <trkpt lat="44.25607" lon="6.15097">
        <ele>1360.4</ele>
        <time>2012-05-13T13:17:10Z</time>
      </trkpt>
      <trkpt lat="44.25607" lon="6.15106">
        <ele>1358.48</ele>
        <time>2012-05-13T13:17:15Z</time>
      </trkpt>
      <trkpt lat="44.25604" lon="6.15126">
        <ele>1356.56</ele>
        <time>2012-05-13T13:17:28Z</time>
      </trkpt>
      <trkpt lat="44.25602" lon="6.15136">
        <ele>1355.6</ele>
        <time>2012-05-13T13:17:35Z</time>
      </trkpt>
      <trkpt lat="44.25599" lon="6.15162">
        <ele>1353.67</ele>
        <time>2012-05-13T13:17:51Z</time>
      </trkpt>
      <trkpt lat="44.25599" lon="6.15164">
        <ele>1352.71</ele>
        <time>2012-05-13T13:17:53Z</time>
      </trkpt>
      <trkpt lat="44.25599" lon="6.15174">
        <ele>1352.23</ele>
        <time>2012-05-13T13:17:59Z</time>
      </trkpt>
      <trkpt lat="44.256" lon="6.15199">
        <ele>1350.31</ele>
        <time>2012-05-13T13:18:14Z</time>
      </trkpt>
      <trkpt lat="44.25601" lon="6.15212">
        <ele>1348.87</ele>
        <time>2012-05-13T13:18:21Z</time>
      </trkpt>
      <trkpt lat="44.25603" lon="6.15242">
        <ele>1345.98</ele>
        <time>2012-05-13T13:18:39Z</time>
      </trkpt>
      <trkpt lat="44.25597" lon="6.15257">
        <ele>1344.54</ele>
        <time>2012-05-13T13:18:49Z</time>
      </trkpt>
      <trkpt lat="44.25596" lon="6.1526">
        <ele>1343.58</ele>
        <time>2012-05-13T13:18:52Z</time>
      </trkpt>
      <trkpt lat="44.25592" lon="6.15277">
        <ele>1341.66</ele>
        <time>2012-05-13T13:19:04Z</time>
      </trkpt>
      <trkpt lat="44.2559" lon="6.1531">
        <ele>1338.77</ele>
        <time>2012-05-13T13:19:22Z</time>
      </trkpt>
      <trkpt lat="44.25586" lon="6.15321">
        <ele>1337.81</ele>
        <time>2012-05-13T13:19:30Z</time>
      </trkpt>
      <trkpt lat="44.25578" lon="6.1534">
        <ele>1335.89</ele>
        <time>2012-05-13T13:19:45Z</time>
      </trkpt>
      <trkpt lat="44.25576" lon="6.15352">
        <ele>1335.41</ele>
        <time>2012-05-13T13:19:53Z</time>
      </trkpt>
      <trkpt lat="44.25574" lon="6.15368">
        <ele>1333.49</ele>
        <time>2012-05-13T13:20:02Z</time>
      </trkpt>
      <trkpt lat="44.25567" lon="6.15378">
        <ele>1332.04</ele>
        <time>2012-05-13T13:20:10Z</time>
      </trkpt>
      <trkpt lat="44.25566" lon="6.15377">
        <ele>1333.49</ele>
        <time>2012-05-13T13:20:11Z</time>
      </trkpt>
      <trkpt lat="44.25564" lon="6.15382">
        <ele>1333.49</ele>
        <time>2012-05-13T13:20:12Z</time>
      </trkpt>
      <trkpt lat="44.25549" lon="6.15373">
        <ele>1332.52</ele>
        <time>2012-05-13T13:20:28Z</time>
      </trkpt>
      <trkpt lat="44.25549" lon="6.15367">
        <ele>1332.52</ele>
        <time>2012-05-13T13:20:48Z</time>
      </trkpt>
      <trkpt lat="44.25549" lon="6.15362">
        <ele>1332.04</ele>
        <time>2012-05-13T13:20:51Z</time>
      </trkpt>
      <trkpt lat="44.25552" lon="6.15338">
        <ele>1331.08</ele>
        <time>2012-05-13T13:21:04Z</time>
      </trkpt>
      <trkpt lat="44.25552" lon="6.15309">
        <ele>1330.12</ele>
        <time>2012-05-13T13:21:18Z</time>
      </trkpt>
      <trkpt lat="44.25552" lon="6.15306">
        <ele>1331.08</ele>
        <time>2012-05-13T13:21:20Z</time>
      </trkpt>
      <trkpt lat="44.25546" lon="6.15286">
        <ele>1331.08</ele>
        <time>2012-05-13T13:21:33Z</time>
      </trkpt>
      <trkpt lat="44.25545" lon="6.15278">
        <ele>1331.08</ele>
        <time>2012-05-13T13:21:38Z</time>
      </trkpt>
      <trkpt lat="44.25542" lon="6.15269">
        <ele>1330.6</ele>
        <time>2012-05-13T13:21:43Z</time>
      </trkpt>
      <trkpt lat="44.25542" lon="6.15245">
        <ele>1327.72</ele>
        <time>2012-05-13T13:21:56Z</time>
      </trkpt>
      <trkpt lat="44.25541" lon="6.15232">
        <ele>1328.68</ele>
        <time>2012-05-13T13:22:05Z</time>
      </trkpt>
      <trkpt lat="44.25541" lon="6.15225">
        <ele>1327.72</ele>
        <time>2012-05-13T13:22:09Z</time>
      </trkpt>
      <trkpt lat="44.25531" lon="6.1521">
        <ele>1328.2</ele>
        <time>2012-05-13T13:22:23Z</time>
      </trkpt>
      <trkpt lat="44.25527" lon="6.15207">
        <ele>1326.76</ele>
        <time>2012-05-13T13:22:28Z</time>
      </trkpt>
      <trkpt lat="44.25522" lon="6.15198">
        <ele>1326.76</ele>
        <time>2012-05-13T13:22:34Z</time>
      </trkpt>
      <trkpt lat="44.25509" lon="6.15171">
        <ele>1326.28</ele>
        <time>2012-05-13T13:22:49Z</time>
      </trkpt>
      <trkpt lat="44.25504" lon="6.15156">
        <ele>1326.76</ele>
        <time>2012-05-13T13:22:59Z</time>
      </trkpt>
      <trkpt lat="44.25505" lon="6.15152">
        <ele>1327.24</ele>
        <time>2012-05-13T13:23:02Z</time>
      </trkpt>
      <trkpt lat="44.25505" lon="6.15149">
        <ele>1327.24</ele>
        <time>2012-05-13T13:23:03Z</time>
      </trkpt>
      <trkpt lat="44.25504" lon="6.15123">
        <ele>1328.2</ele>
        <time>2012-05-13T13:23:17Z</time>
      </trkpt>
      <trkpt lat="44.25502" lon="6.1511">
        <ele>1328.68</ele>
        <time>2012-05-13T13:23:25Z</time>
      </trkpt>
      <trkpt lat="44.25499" lon="6.15087">
        <ele>1327.72</ele>
        <time>2012-05-13T13:23:40Z</time>
      </trkpt>
      <trkpt lat="44.25499" lon="6.15077">
        <ele>1327.24</ele>
        <time>2012-05-13T13:23:47Z</time>
      </trkpt>
      <trkpt lat="44.25501" lon="6.1507">
        <ele>1325.8</ele>
        <time>2012-05-13T13:23:52Z</time>
      </trkpt>
      <trkpt lat="44.25501" lon="6.15067">
        <ele>1326.28</ele>
        <time>2012-05-13T13:23:54Z</time>
      </trkpt>
      <trkpt lat="44.25499" lon="6.15047">
        <ele>1324.35</ele>
        <time>2012-05-13T13:24:06Z</time>
      </trkpt>
      <trkpt lat="44.25489" lon="6.15037">
        <ele>1322.91</ele>
        <time>2012-05-13T13:24:17Z</time>
      </trkpt>
      <trkpt lat="44.25479" lon="6.15033">
        <ele>1320.99</ele>
        <time>2012-05-13T13:24:25Z</time>
      </trkpt>
      <trkpt lat="44.25458" lon="6.15032">
        <ele>1319.55</ele>
        <time>2012-05-13T13:24:42Z</time>
      </trkpt>
      <trkpt lat="44.25457" lon="6.1503">
        <ele>1318.59</ele>
        <time>2012-05-13T13:24:44Z</time>
      </trkpt>
      <trkpt lat="44.25438" lon="6.15021">
        <ele>1316.18</ele>
        <time>2012-05-13T13:25:00Z</time>
      </trkpt>
      <trkpt lat="44.25437" lon="6.15021">
        <ele>1316.18</ele>
        <time>2012-05-13T13:25:01Z</time>
      </trkpt>
      <trkpt lat="44.2542" lon="6.15012">
        <ele>1313.78</ele>
        <time>2012-05-13T13:25:17Z</time>
      </trkpt>
      <trkpt lat="44.25403" lon="6.15012">
        <ele>1314.26</ele>
        <time>2012-05-13T13:25:32Z</time>
      </trkpt>
      <trkpt lat="44.25394" lon="6.1501">
        <ele>1312.34</ele>
        <time>2012-05-13T13:25:37Z</time>
      </trkpt>
      <trkpt lat="44.25372" lon="6.14996">
        <ele>1310.9</ele>
        <time>2012-05-13T13:25:52Z</time>
      </trkpt>
      <trkpt lat="44.25363" lon="6.14988">
        <ele>1308.97</ele>
        <time>2012-05-13T13:26:02Z</time>
      </trkpt>
      <trkpt lat="44.25347" lon="6.14993">
        <ele>1304.65</ele>
        <time>2012-05-13T13:26:16Z</time>
      </trkpt>
      <trkpt lat="44.25331" lon="6.15006">
        <ele>1302.72</ele>
        <time>2012-05-13T13:26:29Z</time>
      </trkpt>
      <trkpt lat="44.25328" lon="6.15009">
        <ele>1303.2</ele>
        <time>2012-05-13T13:26:33Z</time>
      </trkpt>
      <trkpt lat="44.25316" lon="6.15014">
        <ele>1302.72</ele>
        <time>2012-05-13T13:26:43Z</time>
      </trkpt>
      <trkpt lat="44.25311" lon="6.15017">
        <ele>1299.84</ele>
        <time>2012-05-13T13:26:48Z</time>
      </trkpt>
      <trkpt lat="44.25311" lon="6.15017">
        <ele>1299.84</ele>
        <time>2012-05-13T13:26:49Z</time>
      </trkpt>
      <trkpt lat="44.25306" lon="6.15017">
        <ele>1300.8</ele>
        <time>2012-05-13T13:26:52Z</time>
      </trkpt>
      <trkpt lat="44.25286" lon="6.15012">
        <ele>1296.96</ele>
        <time>2012-05-13T13:27:08Z</time>
      </trkpt>
      <trkpt lat="44.25274" lon="6.15011">
        <ele>1295.99</ele>
        <time>2012-05-13T13:27:16Z</time>
      </trkpt>
      <trkpt lat="44.25271" lon="6.15012">
        <ele>1296.48</ele>
        <time>2012-05-13T13:27:19Z</time>
      </trkpt>
      <trkpt lat="44.2526" lon="6.1503">
        <ele>1295.03</ele>
        <time>2012-05-13T13:27:33Z</time>
      </trkpt>
      <trkpt lat="44.25258" lon="6.15034">
        <ele>1293.59</ele>
        <time>2012-05-13T13:27:36Z</time>
      </trkpt>
      <trkpt lat="44.25257" lon="6.15037">
        <ele>1292.15</ele>
        <time>2012-05-13T13:27:38Z</time>
      </trkpt>
      <trkpt lat="44.25254" lon="6.15056">
        <ele>1290.23</ele>
        <time>2012-05-13T13:27:48Z</time>
      </trkpt>
      <trkpt lat="44.25253" lon="6.15059">
        <ele>1291.19</ele>
        <time>2012-05-13T13:27:50Z</time>
      </trkpt>
      <trkpt lat="44.25242" lon="6.15071">
        <ele>1290.23</ele>
        <time>2012-05-13T13:28:00Z</time>
      </trkpt>
      <trkpt lat="44.25237" lon="6.15077">
        <ele>1287.82</ele>
        <time>2012-05-13T13:28:06Z</time>
      </trkpt>
      <trkpt lat="44.25236" lon="6.15076">
        <ele>1290.71</ele>
        <time>2012-05-13T13:28:07Z</time>
      </trkpt>
      <trkpt lat="44.25231" lon="6.15076">
        <ele>1287.82</ele>
        <time>2012-05-13T13:28:10Z</time>
      </trkpt>
      <trkpt lat="44.25214" lon="6.15085">
        <ele>1287.34</ele>
        <time>2012-05-13T13:28:25Z</time>
      </trkpt>
      <trkpt lat="44.25201" lon="6.15104">
        <ele>1284.46</ele>
        <time>2012-05-13T13:28:40Z</time>
      </trkpt>
      <trkpt lat="44.25198" lon="6.1512">
        <ele>1283.98</ele>
        <time>2012-05-13T13:28:50Z</time>
      </trkpt>
      <trkpt lat="44.25192" lon="6.15137">
        <ele>1280.61</ele>
        <time>2012-05-13T13:29:02Z</time>
      </trkpt>
      <trkpt lat="44.25187" lon="6.15148">
        <ele>1279.65</ele>
        <time>2012-05-13T13:29:10Z</time>
      </trkpt>
      <trkpt lat="44.25179" lon="6.15152">
        <ele>1278.21</ele>
        <time>2012-05-13T13:29:16Z</time>
      </trkpt>
      <trkpt lat="44.25173" lon="6.15148">
        <ele>1277.25</ele>
        <time>2012-05-13T13:29:23Z</time>
      </trkpt>
      <trkpt lat="44.25173" lon="6.15138">
        <ele>1275.81</ele>
        <time>2012-05-13T13:29:28Z</time>
      </trkpt>
      <trkpt lat="44.25177" lon="6.15125">
        <ele>1274.85</ele>
        <time>2012-05-13T13:29:34Z</time>
      </trkpt>
      <trkpt lat="44.25183" lon="6.15103">
        <ele>1273.4</ele>
        <time>2012-05-13T13:29:45Z</time>
      </trkpt>
      <trkpt lat="44.25173" lon="6.15075">
        <ele>1271</ele>
        <time>2012-05-13T13:29:59Z</time>
      </trkpt>
      <trkpt lat="44.25163" lon="6.15054">
        <ele>1271</ele>
        <time>2012-05-13T13:30:15Z</time>
      </trkpt>
      <trkpt lat="44.25164" lon="6.15034">
        <ele>1267.16</ele>
        <time>2012-05-13T13:30:25Z</time>
      </trkpt>
      <trkpt lat="44.25163" lon="6.15031">
        <ele>1267.64</ele>
        <time>2012-05-13T13:30:26Z</time>
      </trkpt>
      <trkpt lat="44.25169" lon="6.15005">
        <ele>1266.67</ele>
        <time>2012-05-13T13:30:42Z</time>
      </trkpt>
      <trkpt lat="44.25166" lon="6.1499">
        <ele>1263.79</ele>
        <time>2012-05-13T13:30:54Z</time>
      </trkpt>
      <trkpt lat="44.25163" lon="6.14983">
        <ele>1262.35</ele>
        <time>2012-05-13T13:31:00Z</time>
      </trkpt>
      <trkpt lat="44.25152" lon="6.14967">
        <ele>1260.91</ele>
        <time>2012-05-13T13:31:13Z</time>
      </trkpt>
      <trkpt lat="44.25134" lon="6.14955">
        <ele>1257.54</ele>
        <time>2012-05-13T13:31:32Z</time>
      </trkpt>
      <trkpt lat="44.25129" lon="6.14949">
        <ele>1257.54</ele>
        <time>2012-05-13T13:31:38Z</time>
      </trkpt>
      <trkpt lat="44.25116" lon="6.14929">
        <ele>1255.62</ele>
        <time>2012-05-13T13:31:54Z</time>
      </trkpt>
      <trkpt lat="44.251" lon="6.14912">
        <ele>1253.22</ele>
        <time>2012-05-13T13:32:11Z</time>
      </trkpt>
      <trkpt lat="44.25094" lon="6.14908">
        <ele>1252.74</ele>
        <time>2012-05-13T13:32:19Z</time>
      </trkpt>
      <trkpt lat="44.25084" lon="6.14883">
        <ele>1249.37</ele>
        <time>2012-05-13T13:32:36Z</time>
      </trkpt>
      <trkpt lat="44.25086" lon="6.14876">
        <ele>1249.85</ele>
        <time>2012-05-13T13:32:39Z</time>
      </trkpt>
      <trkpt lat="44.25095" lon="6.14853">
        <ele>1246.97</ele>
        <time>2012-05-13T13:32:55Z</time>
      </trkpt>
      <trkpt lat="44.25105" lon="6.14838">
        <ele>1245.53</ele>
        <time>2012-05-13T13:33:07Z</time>
      </trkpt>
      <trkpt lat="44.25106" lon="6.14835">
        <ele>1243.12</ele>
        <time>2012-05-13T13:33:10Z</time>
      </trkpt>
      <trkpt lat="44.25116" lon="6.14816">
        <ele>1243.12</ele>
        <time>2012-05-13T13:33:26Z</time>
      </trkpt>
      <trkpt lat="44.25116" lon="6.14814">
        <ele>1243.12</ele>
        <time>2012-05-13T13:33:28Z</time>
      </trkpt>
      <trkpt lat="44.25101" lon="6.14797">
        <ele>1243.6</ele>
        <time>2012-05-13T13:33:46Z</time>
      </trkpt>
      <trkpt lat="44.25084" lon="6.14783">
        <ele>1241.68</ele>
        <time>2012-05-13T13:34:05Z</time>
      </trkpt>
      <trkpt lat="44.25068" lon="6.14774">
        <ele>1241.2</ele>
        <time>2012-05-13T13:34:18Z</time>
      </trkpt>
      <trkpt lat="44.25061" lon="6.1477">
        <ele>1240.24</ele>
        <time>2012-05-13T13:34:23Z</time>
      </trkpt>
      <trkpt lat="44.2505" lon="6.1475">
        <ele>1239.28</ele>
        <time>2012-05-13T13:34:40Z</time>
      </trkpt>
      <trkpt lat="44.2504" lon="6.14729">
        <ele>1238.32</ele>
        <time>2012-05-13T13:34:57Z</time>
      </trkpt>
      <trkpt lat="44.25032" lon="6.14708">
        <ele>1237.35</ele>
        <time>2012-05-13T13:35:13Z</time>
      </trkpt>
      <trkpt lat="44.25031" lon="6.14703">
        <ele>1235.91</ele>
        <time>2012-05-13T13:35:16Z</time>
      </trkpt>
      <trkpt lat="44.25029" lon="6.14695">
        <ele>1235.91</ele>
        <time>2012-05-13T13:35:22Z</time>
      </trkpt>
      <trkpt lat="44.2502" lon="6.14678">
        <ele>1235.91</ele>
        <time>2012-05-13T13:35:33Z</time>
      </trkpt>
      <trkpt lat="44.25015" lon="6.14653">
        <ele>1234.95</ele>
        <time>2012-05-13T13:35:50Z</time>
      </trkpt>
      <trkpt lat="44.2501" lon="6.14645">
        <ele>1233.99</ele>
        <time>2012-05-13T13:35:56Z</time>
      </trkpt>
      <trkpt lat="44.24996" lon="6.14625">
        <ele>1233.51</ele>
        <time>2012-05-13T13:36:13Z</time>
      </trkpt>
      <trkpt lat="44.24986" lon="6.14607">
        <ele>1231.11</ele>
        <time>2012-05-13T13:36:27Z</time>
      </trkpt>
      <trkpt lat="44.24984" lon="6.14603">
        <ele>1231.59</ele>
        <time>2012-05-13T13:36:31Z</time>
      </trkpt>
      <trkpt lat="44.24979" lon="6.14595">
        <ele>1231.11</ele>
        <time>2012-05-13T13:36:36Z</time>
      </trkpt>
      <trkpt lat="44.24972" lon="6.14576">
        <ele>1229.66</ele>
        <time>2012-05-13T13:36:49Z</time>
      </trkpt>
      <trkpt lat="44.24965" lon="6.14551">
        <ele>1228.7</ele>
        <time>2012-05-13T13:37:06Z</time>
      </trkpt>
      <trkpt lat="44.24953" lon="6.14534">
        <ele>1228.7</ele>
        <time>2012-05-13T13:37:21Z</time>
      </trkpt>
      <trkpt lat="44.24944" lon="6.14525">
        <ele>1228.22</ele>
        <time>2012-05-13T13:37:30Z</time>
      </trkpt>
      <trkpt lat="44.24935" lon="6.14504">
        <ele>1226.78</ele>
        <time>2012-05-13T13:37:45Z</time>
      </trkpt>
      <trkpt lat="44.24933" lon="6.14498">
        <ele>1226.3</ele>
        <time>2012-05-13T13:37:49Z</time>
      </trkpt>
      <trkpt lat="44.2493" lon="6.14485">
        <ele>1225.82</ele>
        <time>2012-05-13T13:37:57Z</time>
      </trkpt>
      <trkpt lat="44.24926" lon="6.1447">
        <ele>1225.34</ele>
        <time>2012-05-13T13:38:07Z</time>
      </trkpt>
      <trkpt lat="44.24926" lon="6.14458">
        <ele>1224.86</ele>
        <time>2012-05-13T13:38:20Z</time>
      </trkpt>
      <trkpt lat="44.24928" lon="6.1444">
        <ele>1224.38</ele>
        <time>2012-05-13T13:38:33Z</time>
      </trkpt>
      <trkpt lat="44.24928" lon="6.14439">
        <ele>1223.42</ele>
        <time>2012-05-13T13:38:47Z</time>
      </trkpt>
    </trkseg>
  </trk>
</gpx>